<?xml version="1.0" encoding="UTF-8" standalone="no" ?>
<gpx xmlns="http://www.topografix.com/GPX/1/1" xmlns:xsi="http://www.w3.org/2001/XMLSchema-instance" xsi:schemaLocation="http://www.topografix.com/GPX/1/1 http://www.topografix.com/GPX/1/1/gpx.xsd" version="1.1" creator="VisuGPX - https://www.visugpx.com">
  <metadata>
    <name>Balade digestive</name>
    <desc><![CDATA[Balade digestive dans le Tarn ... y\'a que ça de vrai !!!]]></desc>
  </metadata>
  <trk>
    <name><![CDATA[20110827]]></name>
    <trkseg>
      <trkpt lat="43.82615" lon="1.86125">
        <ele>196.246338</ele>
        <time>2011-08-27T10:24:53Z</time>
      </trkpt>
      <trkpt lat="43.82647" lon="1.8617">
        <ele>193.362305</ele>
        <time>2011-08-27T10:24:58Z</time>
      </trkpt>
      <trkpt lat="43.82703" lon="1.86273">
        <ele>189.516968</ele>
        <time>2011-08-27T10:25:07Z</time>
      </trkpt>
      <trkpt lat="43.82722" lon="1.8631">
        <ele>187.59436</ele>
        <time>2011-08-27T10:25:10Z</time>
      </trkpt>
      <trkpt lat="43.82819" lon="1.86498">
        <ele>186.633179</ele>
        <time>2011-08-27T10:25:27Z</time>
      </trkpt>
      <trkpt lat="43.82836" lon="1.86531">
        <ele>188.555786</ele>
        <time>2011-08-27T10:25:31Z</time>
      </trkpt>
      <trkpt lat="43.8284" lon="1.86538">
        <ele>188.555786</ele>
        <time>2011-08-27T10:25:32Z</time>
      </trkpt>
      <trkpt lat="43.8285" lon="1.86552">
        <ele>189.516968</ele>
        <time>2011-08-27T10:25:34Z</time>
      </trkpt>
      <trkpt lat="43.82874" lon="1.86593">
        <ele>193.362305</ele>
        <time>2011-08-27T10:25:40Z</time>
      </trkpt>
      <trkpt lat="43.82879" lon="1.86599">
        <ele>192.881714</ele>
        <time>2011-08-27T10:25:41Z</time>
      </trkpt>
      <trkpt lat="43.82883" lon="1.86605">
        <ele>192.881714</ele>
        <time>2011-08-27T10:25:42Z</time>
      </trkpt>
      <trkpt lat="43.82952" lon="1.86647">
        <ele>197.688232</ele>
        <time>2011-08-27T10:25:53Z</time>
      </trkpt>
      <trkpt lat="43.83045" lon="1.86642">
        <ele>199.61084</ele>
        <time>2011-08-27T10:26:07Z</time>
      </trkpt>
      <trkpt lat="43.83262" lon="1.86615">
        <ele>199.61084</ele>
        <time>2011-08-27T10:26:40Z</time>
      </trkpt>
      <trkpt lat="43.83434" lon="1.86595">
        <ele>200.091675</ele>
        <time>2011-08-27T10:27:04Z</time>
      </trkpt>
      <trkpt lat="43.83449" lon="1.86593">
        <ele>200.091675</ele>
        <time>2011-08-27T10:27:06Z</time>
      </trkpt>
      <trkpt lat="43.83458" lon="1.86626">
        <ele>199.130127</ele>
        <time>2011-08-27T10:27:11Z</time>
      </trkpt>
      <trkpt lat="43.83447" lon="1.86641">
        <ele>199.61084</ele>
        <time>2011-08-27T10:27:13Z</time>
      </trkpt>
      <trkpt lat="43.83345" lon="1.86793">
        <ele>199.130127</ele>
        <time>2011-08-27T10:27:31Z</time>
      </trkpt>
      <trkpt lat="43.83276" lon="1.86887">
        <ele>200.091675</ele>
        <time>2011-08-27T10:27:42Z</time>
      </trkpt>
      <trkpt lat="43.83172" lon="1.8703">
        <ele>199.130127</ele>
        <time>2011-08-27T10:27:58Z</time>
      </trkpt>
      <trkpt lat="43.83058" lon="1.87152">
        <ele>198.649536</ele>
        <time>2011-08-27T10:28:15Z</time>
      </trkpt>
      <trkpt lat="43.8293" lon="1.87252">
        <ele>197.20752</ele>
        <time>2011-08-27T10:28:32Z</time>
      </trkpt>
      <trkpt lat="43.82901" lon="1.87279">
        <ele>196.246338</ele>
        <time>2011-08-27T10:28:36Z</time>
      </trkpt>
      <trkpt lat="43.82843" lon="1.87394">
        <ele>197.688232</ele>
        <time>2011-08-27T10:28:47Z</time>
      </trkpt>
      <trkpt lat="43.82759" lon="1.8756">
        <ele>196.726929</ele>
        <time>2011-08-27T10:29:03Z</time>
      </trkpt>
      <trkpt lat="43.82652" lon="1.87713">
        <ele>198.649536</ele>
        <time>2011-08-27T10:29:21Z</time>
      </trkpt>
      <trkpt lat="43.82549" lon="1.87826">
        <ele>201.052856</ele>
        <time>2011-08-27T10:29:38Z</time>
      </trkpt>
      <trkpt lat="43.82439" lon="1.87961">
        <ele>203.93689</ele>
        <time>2011-08-27T10:29:57Z</time>
      </trkpt>
      <trkpt lat="43.82375" lon="1.88048">
        <ele>205.378784</ele>
        <time>2011-08-27T10:30:09Z</time>
      </trkpt>
      <trkpt lat="43.82363" lon="1.8809">
        <ele>205.859497</ele>
        <time>2011-08-27T10:30:13Z</time>
      </trkpt>
      <trkpt lat="43.82331" lon="1.88263">
        <ele>206.340088</ele>
        <time>2011-08-27T10:30:28Z</time>
      </trkpt>
      <trkpt lat="43.82289" lon="1.88443">
        <ele>205.859497</ele>
        <time>2011-08-27T10:30:44Z</time>
      </trkpt>
      <trkpt lat="43.82253" lon="1.88671">
        <ele>206.820679</ele>
        <time>2011-08-27T10:31:03Z</time>
      </trkpt>
      <trkpt lat="43.82216" lon="1.888">
        <ele>208.743408</ele>
        <time>2011-08-27T10:31:17Z</time>
      </trkpt>
      <trkpt lat="43.82163" lon="1.88959">
        <ele>210.666016</ele>
        <time>2011-08-27T10:31:33Z</time>
      </trkpt>
      <trkpt lat="43.82108" lon="1.89167">
        <ele>213.069336</ele>
        <time>2011-08-27T10:31:54Z</time>
      </trkpt>
      <trkpt lat="43.82081" lon="1.89308">
        <ele>209.704834</ele>
        <time>2011-08-27T10:32:06Z</time>
      </trkpt>
      <trkpt lat="43.82057" lon="1.8952">
        <ele>209.224121</ele>
        <time>2011-08-27T10:32:23Z</time>
      </trkpt>
      <trkpt lat="43.82055" lon="1.89626">
        <ele>211.146729</ele>
        <time>2011-08-27T10:32:33Z</time>
      </trkpt>
      <trkpt lat="43.82045" lon="1.8969">
        <ele>212.108032</ele>
        <time>2011-08-27T10:32:40Z</time>
      </trkpt>
      <trkpt lat="43.8203" lon="1.89794">
        <ele>215.472656</ele>
        <time>2011-08-27T10:32:51Z</time>
      </trkpt>
      <trkpt lat="43.82006" lon="1.89936">
        <ele>217.395386</ele>
        <time>2011-08-27T10:33:06Z</time>
      </trkpt>
      <trkpt lat="43.81968" lon="1.90043">
        <ele>220.759888</ele>
        <time>2011-08-27T10:33:18Z</time>
      </trkpt>
      <trkpt lat="43.81923" lon="1.90139">
        <ele>223.163208</ele>
        <time>2011-08-27T10:33:30Z</time>
      </trkpt>
      <trkpt lat="43.81882" lon="1.90246">
        <ele>226.047119</ele>
        <time>2011-08-27T10:33:43Z</time>
      </trkpt>
      <trkpt lat="43.81842" lon="1.90354">
        <ele>228.931152</ele>
        <time>2011-08-27T10:33:57Z</time>
      </trkpt>
      <trkpt lat="43.81813" lon="1.90425">
        <ele>232.295776</ele>
        <time>2011-08-27T10:34:07Z</time>
      </trkpt>
      <trkpt lat="43.81783" lon="1.90477">
        <ele>234.699097</ele>
        <time>2011-08-27T10:34:15Z</time>
      </trkpt>
      <trkpt lat="43.81751" lon="1.90528">
        <ele>238.063599</ele>
        <time>2011-08-27T10:34:26Z</time>
      </trkpt>
      <trkpt lat="43.81728" lon="1.9056">
        <ele>239.505493</ele>
        <time>2011-08-27T10:34:32Z</time>
      </trkpt>
      <trkpt lat="43.81715" lon="1.90579">
        <ele>239.986206</ele>
        <time>2011-08-27T10:34:36Z</time>
      </trkpt>
      <trkpt lat="43.81673" lon="1.90637">
        <ele>242.870239</ele>
        <time>2011-08-27T10:34:48Z</time>
      </trkpt>
      <trkpt lat="43.81669" lon="1.90643">
        <ele>243.831543</ele>
        <time>2011-08-27T10:34:49Z</time>
      </trkpt>
      <trkpt lat="43.81644" lon="1.90689">
        <ele>246.234863</ele>
        <time>2011-08-27T10:34:57Z</time>
      </trkpt>
      <trkpt lat="43.81622" lon="1.90748">
        <ele>249.599487</ele>
        <time>2011-08-27T10:35:07Z</time>
      </trkpt>
      <trkpt lat="43.81603" lon="1.90822">
        <ele>252.002808</ele>
        <time>2011-08-27T10:35:18Z</time>
      </trkpt>
      <trkpt lat="43.816" lon="1.9084">
        <ele>252.963989</ele>
        <time>2011-08-27T10:35:21Z</time>
      </trkpt>
      <trkpt lat="43.81594" lon="1.90857">
        <ele>253.925415</ele>
        <time>2011-08-27T10:35:24Z</time>
      </trkpt>
      <trkpt lat="43.81584" lon="1.90909">
        <ele>257.290039</ele>
        <time>2011-08-27T10:35:33Z</time>
      </trkpt>
      <trkpt lat="43.81583" lon="1.90915">
        <ele>257.770752</ele>
        <time>2011-08-27T10:35:34Z</time>
      </trkpt>
      <trkpt lat="43.81566" lon="1.91011">
        <ele>261.615967</ele>
        <time>2011-08-27T10:35:46Z</time>
      </trkpt>
      <trkpt lat="43.81556" lon="1.91042">
        <ele>263.057861</ele>
        <time>2011-08-27T10:35:50Z</time>
      </trkpt>
      <trkpt lat="43.8154" lon="1.91076">
        <ele>264.499878</ele>
        <time>2011-08-27T10:35:55Z</time>
      </trkpt>
      <trkpt lat="43.81531" lon="1.91093">
        <ele>265.941895</ele>
        <time>2011-08-27T10:35:58Z</time>
      </trkpt>
      <trkpt lat="43.81509" lon="1.91126">
        <ele>268.345093</ele>
        <time>2011-08-27T10:36:04Z</time>
      </trkpt>
      <trkpt lat="43.81467" lon="1.912">
        <ele>272.19043</ele>
        <time>2011-08-27T10:36:16Z</time>
      </trkpt>
      <trkpt lat="43.81457" lon="1.91219">
        <ele>272.671143</ele>
        <time>2011-08-27T10:36:19Z</time>
      </trkpt>
      <trkpt lat="43.81431" lon="1.91276">
        <ele>275.555054</ele>
        <time>2011-08-27T10:36:28Z</time>
      </trkpt>
      <trkpt lat="43.81424" lon="1.91294">
        <ele>276.516357</ele>
        <time>2011-08-27T10:36:31Z</time>
      </trkpt>
      <trkpt lat="43.81411" lon="1.91331">
        <ele>277.477661</ele>
        <time>2011-08-27T10:36:37Z</time>
      </trkpt>
      <trkpt lat="43.81394" lon="1.9141">
        <ele>281.322998</ele>
        <time>2011-08-27T10:36:49Z</time>
      </trkpt>
      <trkpt lat="43.81369" lon="1.91478">
        <ele>284.206909</ele>
        <time>2011-08-27T10:36:59Z</time>
      </trkpt>
      <trkpt lat="43.81316" lon="1.91565">
        <ele>287.571411</ele>
        <time>2011-08-27T10:37:13Z</time>
      </trkpt>
      <trkpt lat="43.8126" lon="1.91659">
        <ele>290.455566</ele>
        <time>2011-08-27T10:37:28Z</time>
      </trkpt>
      <trkpt lat="43.81194" lon="1.91706">
        <ele>291.416748</ele>
        <time>2011-08-27T10:37:40Z</time>
      </trkpt>
      <trkpt lat="43.81174" lon="1.9171">
        <ele>291.416748</ele>
        <time>2011-08-27T10:37:43Z</time>
      </trkpt>
      <trkpt lat="43.81151" lon="1.91709">
        <ele>293.339355</ele>
        <time>2011-08-27T10:37:46Z</time>
      </trkpt>
      <trkpt lat="43.8112" lon="1.91703">
        <ele>294.300781</ele>
        <time>2011-08-27T10:37:50Z</time>
      </trkpt>
      <trkpt lat="43.81079" lon="1.91711">
        <ele>294.781372</ele>
        <time>2011-08-27T10:37:55Z</time>
      </trkpt>
      <trkpt lat="43.81002" lon="1.91781">
        <ele>296.704102</ele>
        <time>2011-08-27T10:38:07Z</time>
      </trkpt>
      <trkpt lat="43.80919" lon="1.91872">
        <ele>300.068726</ele>
        <time>2011-08-27T10:38:21Z</time>
      </trkpt>
      <trkpt lat="43.80818" lon="1.9196">
        <ele>301.991333</ele>
        <time>2011-08-27T10:38:38Z</time>
      </trkpt>
      <trkpt lat="43.80792" lon="1.9198">
        <ele>301.991333</ele>
        <time>2011-08-27T10:38:43Z</time>
      </trkpt>
      <trkpt lat="43.80773" lon="1.92005">
        <ele>302.952515</ele>
        <time>2011-08-27T10:38:47Z</time>
      </trkpt>
      <trkpt lat="43.80699" lon="1.9214">
        <ele>303.91394</ele>
        <time>2011-08-27T10:39:03Z</time>
      </trkpt>
      <trkpt lat="43.80567" lon="1.9233">
        <ele>305.355957</ele>
        <time>2011-08-27T10:39:27Z</time>
      </trkpt>
      <trkpt lat="43.80466" lon="1.92459">
        <ele>307.278564</ele>
        <time>2011-08-27T10:39:46Z</time>
      </trkpt>
      <trkpt lat="43.80415" lon="1.92515">
        <ele>311.123779</ele>
        <time>2011-08-27T10:39:56Z</time>
      </trkpt>
      <trkpt lat="43.80358" lon="1.92603">
        <ele>313.046509</ele>
        <time>2011-08-27T10:40:09Z</time>
      </trkpt>
      <trkpt lat="43.80343" lon="1.92627">
        <ele>314.488403</ele>
        <time>2011-08-27T10:40:12Z</time>
      </trkpt>
      <trkpt lat="43.80224" lon="1.92832">
        <ele>316.891724</ele>
        <time>2011-08-27T10:40:36Z</time>
      </trkpt>
      <trkpt lat="43.80104" lon="1.93034">
        <ele>320.256348</ele>
        <time>2011-08-27T10:40:59Z</time>
      </trkpt>
      <trkpt lat="43.80058" lon="1.93101">
        <ele>322.659668</ele>
        <time>2011-08-27T10:41:06Z</time>
      </trkpt>
      <trkpt lat="43.80033" lon="1.93138">
        <ele>321.217773</ele>
        <time>2011-08-27T10:41:10Z</time>
      </trkpt>
      <trkpt lat="43.79948" lon="1.93262">
        <ele>319.295044</ele>
        <time>2011-08-27T10:41:24Z</time>
      </trkpt>
      <trkpt lat="43.79871" lon="1.93338">
        <ele>317.372437</ele>
        <time>2011-08-27T10:41:35Z</time>
      </trkpt>
      <trkpt lat="43.79792" lon="1.93413">
        <ele>316.411011</ele>
        <time>2011-08-27T10:41:46Z</time>
      </trkpt>
      <trkpt lat="43.79694" lon="1.93476">
        <ele>316.411011</ele>
        <time>2011-08-27T10:41:58Z</time>
      </trkpt>
      <trkpt lat="43.79603" lon="1.93531">
        <ele>319.295044</ele>
        <time>2011-08-27T10:42:11Z</time>
      </trkpt>
      <trkpt lat="43.79591" lon="1.93537">
        <ele>319.775635</ele>
        <time>2011-08-27T10:42:13Z</time>
      </trkpt>
      <trkpt lat="43.7948" lon="1.93588">
        <ele>318.814331</ele>
        <time>2011-08-27T10:42:28Z</time>
      </trkpt>
      <trkpt lat="43.7944" lon="1.93597">
        <ele>316.891724</ele>
        <time>2011-08-27T10:42:33Z</time>
      </trkpt>
      <trkpt lat="43.79291" lon="1.93602">
        <ele>317.372437</ele>
        <time>2011-08-27T10:42:51Z</time>
      </trkpt>
      <trkpt lat="43.79247" lon="1.93604">
        <ele>318.333618</ele>
        <time>2011-08-27T10:42:57Z</time>
      </trkpt>
      <trkpt lat="43.79172" lon="1.93601">
        <ele>320.737061</ele>
        <time>2011-08-27T10:43:09Z</time>
      </trkpt>
      <trkpt lat="43.79083" lon="1.93612">
        <ele>318.333618</ele>
        <time>2011-08-27T10:43:21Z</time>
      </trkpt>
      <trkpt lat="43.7903" lon="1.93654">
        <ele>316.411011</ele>
        <time>2011-08-27T10:43:29Z</time>
      </trkpt>
      <trkpt lat="43.78996" lon="1.9372">
        <ele>312.565796</ele>
        <time>2011-08-27T10:43:35Z</time>
      </trkpt>
      <trkpt lat="43.78976" lon="1.93753">
        <ele>311.123779</ele>
        <time>2011-08-27T10:43:38Z</time>
      </trkpt>
      <trkpt lat="43.78951" lon="1.93818">
        <ele>308.720459</ele>
        <time>2011-08-27T10:43:43Z</time>
      </trkpt>
      <trkpt lat="43.78924" lon="1.93844">
        <ele>306.317261</ele>
        <time>2011-08-27T10:43:46Z</time>
      </trkpt>
      <trkpt lat="43.7889" lon="1.93843">
        <ele>305.83667</ele>
        <time>2011-08-27T10:43:49Z</time>
      </trkpt>
      <trkpt lat="43.78868" lon="1.93841">
        <ele>305.355957</ele>
        <time>2011-08-27T10:43:51Z</time>
      </trkpt>
      <trkpt lat="43.78836" lon="1.93845">
        <ele>303.91394</ele>
        <time>2011-08-27T10:43:54Z</time>
      </trkpt>
      <trkpt lat="43.78767" lon="1.93915">
        <ele>301.029907</ele>
        <time>2011-08-27T10:44:03Z</time>
      </trkpt>
      <trkpt lat="43.78755" lon="1.93933">
        <ele>300.068726</ele>
        <time>2011-08-27T10:44:05Z</time>
      </trkpt>
      <trkpt lat="43.78709" lon="1.94042">
        <ele>296.704102</ele>
        <time>2011-08-27T10:44:14Z</time>
      </trkpt>
      <trkpt lat="43.78671" lon="1.94052">
        <ele>293.820068</ele>
        <time>2011-08-27T10:44:19Z</time>
      </trkpt>
      <trkpt lat="43.7866" lon="1.9403">
        <ele>292.858765</ele>
        <time>2011-08-27T10:44:21Z</time>
      </trkpt>
      <trkpt lat="43.78621" lon="1.93952">
        <ele>290.455566</ele>
        <time>2011-08-27T10:44:28Z</time>
      </trkpt>
      <trkpt lat="43.78556" lon="1.93932">
        <ele>286.610229</ele>
        <time>2011-08-27T10:44:35Z</time>
      </trkpt>
      <trkpt lat="43.78547" lon="1.93936">
        <ele>286.610229</ele>
        <time>2011-08-27T10:44:36Z</time>
      </trkpt>
      <trkpt lat="43.78511" lon="1.93973">
        <ele>282.765015</ele>
        <time>2011-08-27T10:44:41Z</time>
      </trkpt>
      <trkpt lat="43.78486" lon="1.94004">
        <ele>280.361694</ele>
        <time>2011-08-27T10:44:44Z</time>
      </trkpt>
      <trkpt lat="43.78443" lon="1.94028">
        <ele>277.477661</ele>
        <time>2011-08-27T10:44:48Z</time>
      </trkpt>
      <trkpt lat="43.7841" lon="1.94075">
        <ele>275.555054</ele>
        <time>2011-08-27T10:44:52Z</time>
      </trkpt>
      <trkpt lat="43.78372" lon="1.94145">
        <ele>270.2677</ele>
        <time>2011-08-27T10:44:57Z</time>
      </trkpt>
      <trkpt lat="43.78347" lon="1.94194">
        <ele>267.383911</ele>
        <time>2011-08-27T10:45:00Z</time>
      </trkpt>
      <trkpt lat="43.78328" lon="1.94238">
        <ele>265.461304</ele>
        <time>2011-08-27T10:45:03Z</time>
      </trkpt>
      <trkpt lat="43.78305" lon="1.94285">
        <ele>261.615967</ele>
        <time>2011-08-27T10:45:06Z</time>
      </trkpt>
      <trkpt lat="43.78277" lon="1.94347">
        <ele>257.290039</ele>
        <time>2011-08-27T10:45:10Z</time>
      </trkpt>
      <trkpt lat="43.78256" lon="1.94393">
        <ele>253.925415</ele>
        <time>2011-08-27T10:45:13Z</time>
      </trkpt>
      <trkpt lat="43.78234" lon="1.94436">
        <ele>250.560791</ele>
        <time>2011-08-27T10:45:16Z</time>
      </trkpt>
      <trkpt lat="43.78229" lon="1.94468">
        <ele>245.273438</ele>
        <time>2011-08-27T10:45:19Z</time>
      </trkpt>
      <trkpt lat="43.7823" lon="1.94477">
        <ele>245.273438</ele>
        <time>2011-08-27T10:45:20Z</time>
      </trkpt>
      <trkpt lat="43.78252" lon="1.94491">
        <ele>243.831543</ele>
        <time>2011-08-27T10:45:23Z</time>
      </trkpt>
      <trkpt lat="43.78261" lon="1.94491">
        <ele>242.870239</ele>
        <time>2011-08-27T10:45:24Z</time>
      </trkpt>
      <trkpt lat="43.78298" lon="1.94471">
        <ele>239.505493</ele>
        <time>2011-08-27T10:45:29Z</time>
      </trkpt>
      <trkpt lat="43.78322" lon="1.9448">
        <ele>235.179688</ele>
        <time>2011-08-27T10:45:33Z</time>
      </trkpt>
      <trkpt lat="43.78315" lon="1.94518">
        <ele>232.776489</ele>
        <time>2011-08-27T10:45:37Z</time>
      </trkpt>
      <trkpt lat="43.78292" lon="1.94553">
        <ele>230.85376</ele>
        <time>2011-08-27T10:45:41Z</time>
      </trkpt>
      <trkpt lat="43.78272" lon="1.94604">
        <ele>227.008545</ele>
        <time>2011-08-27T10:45:45Z</time>
      </trkpt>
      <trkpt lat="43.78251" lon="1.94652">
        <ele>224.124512</ele>
        <time>2011-08-27T10:45:48Z</time>
      </trkpt>
      <trkpt lat="43.78244" lon="1.94669">
        <ele>223.163208</ele>
        <time>2011-08-27T10:45:49Z</time>
      </trkpt>
      <trkpt lat="43.78231" lon="1.94722">
        <ele>218.356567</ele>
        <time>2011-08-27T10:45:52Z</time>
      </trkpt>
      <trkpt lat="43.78229" lon="1.94741">
        <ele>218.356567</ele>
        <time>2011-08-27T10:45:53Z</time>
      </trkpt>
      <trkpt lat="43.78226" lon="1.94796">
        <ele>214.03064</ele>
        <time>2011-08-27T10:45:56Z</time>
      </trkpt>
      <trkpt lat="43.7822" lon="1.94853">
        <ele>210.185425</ele>
        <time>2011-08-27T10:45:59Z</time>
      </trkpt>
      <trkpt lat="43.78212" lon="1.94891">
        <ele>209.224121</ele>
        <time>2011-08-27T10:46:01Z</time>
      </trkpt>
      <trkpt lat="43.78186" lon="1.94979">
        <ele>205.859497</ele>
        <time>2011-08-27T10:46:06Z</time>
      </trkpt>
      <trkpt lat="43.78168" lon="1.95026">
        <ele>202.975464</ele>
        <time>2011-08-27T10:46:09Z</time>
      </trkpt>
      <trkpt lat="43.78139" lon="1.95084">
        <ele>199.61084</ele>
        <time>2011-08-27T10:46:13Z</time>
      </trkpt>
      <trkpt lat="43.78076" lon="1.9517">
        <ele>196.246338</ele>
        <time>2011-08-27T10:46:20Z</time>
      </trkpt>
      <trkpt lat="43.78031" lon="1.95229">
        <ele>192.401123</ele>
        <time>2011-08-27T10:46:25Z</time>
      </trkpt>
      <trkpt lat="43.77993" lon="1.95272">
        <ele>189.036377</ele>
        <time>2011-08-27T10:46:29Z</time>
      </trkpt>
      <trkpt lat="43.77943" lon="1.95319">
        <ele>185.671753</ele>
        <time>2011-08-27T10:46:34Z</time>
      </trkpt>
      <trkpt lat="43.77923" lon="1.95337">
        <ele>185.191162</ele>
        <time>2011-08-27T10:46:36Z</time>
      </trkpt>
      <trkpt lat="43.77893" lon="1.95365">
        <ele>183.268433</ele>
        <time>2011-08-27T10:46:39Z</time>
      </trkpt>
      <trkpt lat="43.77835" lon="1.95416">
        <ele>180.384521</ele>
        <time>2011-08-27T10:46:45Z</time>
      </trkpt>
      <trkpt lat="43.77826" lon="1.95424">
        <ele>180.384521</ele>
        <time>2011-08-27T10:46:46Z</time>
      </trkpt>
      <trkpt lat="43.77738" lon="1.95503">
        <ele>177.50061</ele>
        <time>2011-08-27T10:46:56Z</time>
      </trkpt>
      <trkpt lat="43.77726" lon="1.95546">
        <ele>178.461914</ele>
        <time>2011-08-27T10:47:01Z</time>
      </trkpt>
      <trkpt lat="43.7775" lon="1.95572">
        <ele>179.903809</ele>
        <time>2011-08-27T10:47:05Z</time>
      </trkpt>
      <trkpt lat="43.77833" lon="1.95622">
        <ele>180.865234</ele>
        <time>2011-08-27T10:47:16Z</time>
      </trkpt>
      <trkpt lat="43.77967" lon="1.95679">
        <ele>179.423218</ele>
        <time>2011-08-27T10:47:33Z</time>
      </trkpt>
      <trkpt lat="43.78126" lon="1.95768">
        <ele>176.539307</ele>
        <time>2011-08-27T10:47:53Z</time>
      </trkpt>
      <trkpt lat="43.78199" lon="1.95789">
        <ele>173.655273</ele>
        <time>2011-08-27T10:48:01Z</time>
      </trkpt>
      <trkpt lat="43.78217" lon="1.9579">
        <ele>173.655273</ele>
        <time>2011-08-27T10:48:03Z</time>
      </trkpt>
      <trkpt lat="43.78248" lon="1.95782">
        <ele>175.577881</ele>
        <time>2011-08-27T10:48:07Z</time>
      </trkpt>
      <trkpt lat="43.78267" lon="1.95772">
        <ele>176.058594</ele>
        <time>2011-08-27T10:48:10Z</time>
      </trkpt>
      <trkpt lat="43.78287" lon="1.95758">
        <ele>176.058594</ele>
        <time>2011-08-27T10:48:14Z</time>
      </trkpt>
      <trkpt lat="43.78295" lon="1.95746">
        <ele>177.02002</ele>
        <time>2011-08-27T10:48:16Z</time>
      </trkpt>
      <trkpt lat="43.78308" lon="1.95732">
        <ele>177.02002</ele>
        <time>2011-08-27T10:48:19Z</time>
      </trkpt>
      <trkpt lat="43.78358" lon="1.95641">
        <ele>178.942627</ele>
        <time>2011-08-27T10:48:33Z</time>
      </trkpt>
      <trkpt lat="43.78404" lon="1.95573">
        <ele>181.345825</ele>
        <time>2011-08-27T10:48:45Z</time>
      </trkpt>
      <trkpt lat="43.78422" lon="1.95543">
        <ele>183.268433</ele>
        <time>2011-08-27T10:48:50Z</time>
      </trkpt>
      <trkpt lat="43.78447" lon="1.95483">
        <ele>184.710571</ele>
        <time>2011-08-27T10:48:59Z</time>
      </trkpt>
      <trkpt lat="43.78466" lon="1.95439">
        <ele>185.671753</ele>
        <time>2011-08-27T10:49:05Z</time>
      </trkpt>
      <trkpt lat="43.78494" lon="1.95399">
        <ele>186.152466</ele>
        <time>2011-08-27T10:49:11Z</time>
      </trkpt>
      <trkpt lat="43.78526" lon="1.95357">
        <ele>187.11377</ele>
        <time>2011-08-27T10:49:18Z</time>
      </trkpt>
      <trkpt lat="43.78559" lon="1.95333">
        <ele>188.075073</ele>
        <time>2011-08-27T10:49:24Z</time>
      </trkpt>
      <trkpt lat="43.78661" lon="1.95312">
        <ele>189.516968</ele>
        <time>2011-08-27T10:49:41Z</time>
      </trkpt>
      <trkpt lat="43.78693" lon="1.9531">
        <ele>189.036377</ele>
        <time>2011-08-27T10:49:46Z</time>
      </trkpt>
      <trkpt lat="43.78713" lon="1.95311">
        <ele>189.036377</ele>
        <time>2011-08-27T10:49:49Z</time>
      </trkpt>
      <trkpt lat="43.78732" lon="1.95318">
        <ele>189.516968</ele>
        <time>2011-08-27T10:49:52Z</time>
      </trkpt>
      <trkpt lat="43.78774" lon="1.95341">
        <ele>190.478394</ele>
        <time>2011-08-27T10:49:59Z</time>
      </trkpt>
      <trkpt lat="43.78839" lon="1.95327">
        <ele>192.401123</ele>
        <time>2011-08-27T10:50:10Z</time>
      </trkpt>
      <trkpt lat="43.78912" lon="1.95234">
        <ele>192.401123</ele>
        <time>2011-08-27T10:50:25Z</time>
      </trkpt>
      <trkpt lat="43.78967" lon="1.95193">
        <ele>193.362305</ele>
        <time>2011-08-27T10:50:34Z</time>
      </trkpt>
      <trkpt lat="43.78991" lon="1.95187">
        <ele>195.765625</ele>
        <time>2011-08-27T10:50:38Z</time>
      </trkpt>
      <trkpt lat="43.79013" lon="1.9519">
        <ele>198.168945</ele>
        <time>2011-08-27T10:50:42Z</time>
      </trkpt>
      <trkpt lat="43.79034" lon="1.95196">
        <ele>198.649536</ele>
        <time>2011-08-27T10:50:46Z</time>
      </trkpt>
      <trkpt lat="43.79052" lon="1.95207">
        <ele>199.61084</ele>
        <time>2011-08-27T10:50:50Z</time>
      </trkpt>
      <trkpt lat="43.79068" lon="1.95223">
        <ele>201.052856</ele>
        <time>2011-08-27T10:50:54Z</time>
      </trkpt>
      <trkpt lat="43.79081" lon="1.95239">
        <ele>202.014282</ele>
        <time>2011-08-27T10:50:57Z</time>
      </trkpt>
      <trkpt lat="43.79147" lon="1.95278">
        <ele>206.340088</ele>
        <time>2011-08-27T10:51:11Z</time>
      </trkpt>
      <trkpt lat="43.79188" lon="1.95302">
        <ele>209.704834</ele>
        <time>2011-08-27T10:51:19Z</time>
      </trkpt>
      <trkpt lat="43.79193" lon="1.95306">
        <ele>209.704834</ele>
        <time>2011-08-27T10:51:20Z</time>
      </trkpt>
      <trkpt lat="43.7923" lon="1.95328">
        <ele>213.550049</ele>
        <time>2011-08-27T10:51:28Z</time>
      </trkpt>
      <trkpt lat="43.79239" lon="1.95334">
        <ele>214.51123</ele>
        <time>2011-08-27T10:51:30Z</time>
      </trkpt>
      <trkpt lat="43.79261" lon="1.95347">
        <ele>215.472656</ele>
        <time>2011-08-27T10:51:35Z</time>
      </trkpt>
      <trkpt lat="43.79279" lon="1.95349">
        <ele>215.472656</ele>
        <time>2011-08-27T10:51:39Z</time>
      </trkpt>
      <trkpt lat="43.79335" lon="1.95328">
        <ele>212.108032</ele>
        <time>2011-08-27T10:51:47Z</time>
      </trkpt>
      <trkpt lat="43.79361" lon="1.95316">
        <ele>210.666016</ele>
        <time>2011-08-27T10:51:50Z</time>
      </trkpt>
      <trkpt lat="43.79394" lon="1.95292">
        <ele>208.262817</ele>
        <time>2011-08-27T10:51:54Z</time>
      </trkpt>
      <trkpt lat="43.79431" lon="1.95248">
        <ele>206.820679</ele>
        <time>2011-08-27T10:51:59Z</time>
      </trkpt>
      <trkpt lat="43.79442" lon="1.95231">
        <ele>204.898071</ele>
        <time>2011-08-27T10:52:01Z</time>
      </trkpt>
      <trkpt lat="43.79458" lon="1.95204">
        <ele>200.091675</ele>
        <time>2011-08-27T10:52:06Z</time>
      </trkpt>
      <trkpt lat="43.79485" lon="1.95206">
        <ele>202.494873</ele>
        <time>2011-08-27T10:52:11Z</time>
      </trkpt>
      <trkpt lat="43.79519" lon="1.95196">
        <ele>207.301392</ele>
        <time>2011-08-27T10:52:17Z</time>
      </trkpt>
      <trkpt lat="43.79533" lon="1.95194">
        <ele>208.743408</ele>
        <time>2011-08-27T10:52:20Z</time>
      </trkpt>
      <trkpt lat="43.79544" lon="1.95178">
        <ele>211.627441</ele>
        <time>2011-08-27T10:52:24Z</time>
      </trkpt>
      <trkpt lat="43.79558" lon="1.95134">
        <ele>215.472656</ele>
        <time>2011-08-27T10:52:31Z</time>
      </trkpt>
      <trkpt lat="43.79561" lon="1.95125">
        <ele>215.953247</ele>
        <time>2011-08-27T10:52:33Z</time>
      </trkpt>
      <trkpt lat="43.79584" lon="1.95109">
        <ele>219.798584</ele>
        <time>2011-08-27T10:52:40Z</time>
      </trkpt>
      <trkpt lat="43.79614" lon="1.95093">
        <ele>222.682495</ele>
        <time>2011-08-27T10:52:48Z</time>
      </trkpt>
      <trkpt lat="43.79634" lon="1.95078">
        <ele>226.047119</ele>
        <time>2011-08-27T10:52:54Z</time>
      </trkpt>
      <trkpt lat="43.79638" lon="1.95075">
        <ele>226.047119</ele>
        <time>2011-08-27T10:52:55Z</time>
      </trkpt>
      <trkpt lat="43.7966" lon="1.95059">
        <ele>229.892334</ele>
        <time>2011-08-27T10:53:02Z</time>
      </trkpt>
      <trkpt lat="43.79677" lon="1.95045">
        <ele>232.776489</ele>
        <time>2011-08-27T10:53:08Z</time>
      </trkpt>
      <trkpt lat="43.79688" lon="1.95038">
        <ele>233.737671</ele>
        <time>2011-08-27T10:53:12Z</time>
      </trkpt>
      <trkpt lat="43.7971" lon="1.95029">
        <ele>237.102295</ele>
        <time>2011-08-27T10:53:20Z</time>
      </trkpt>
      <trkpt lat="43.79736" lon="1.95035">
        <ele>240.467041</ele>
        <time>2011-08-27T10:53:29Z</time>
      </trkpt>
      <trkpt lat="43.79742" lon="1.95039">
        <ele>240.947632</ele>
        <time>2011-08-27T10:53:31Z</time>
      </trkpt>
      <trkpt lat="43.79756" lon="1.95046">
        <ele>243.35083</ele>
        <time>2011-08-27T10:53:36Z</time>
      </trkpt>
      <trkpt lat="43.79778" lon="1.95055">
        <ele>246.234863</ele>
        <time>2011-08-27T10:53:44Z</time>
      </trkpt>
      <trkpt lat="43.79781" lon="1.95056">
        <ele>246.234863</ele>
        <time>2011-08-27T10:53:45Z</time>
      </trkpt>
      <trkpt lat="43.79795" lon="1.95059">
        <ele>247.676758</ele>
        <time>2011-08-27T10:53:50Z</time>
      </trkpt>
      <trkpt lat="43.79797" lon="1.95058">
        <ele>248.157593</ele>
        <time>2011-08-27T10:53:51Z</time>
      </trkpt>
      <trkpt lat="43.7981" lon="1.95056">
        <ele>249.599487</ele>
        <time>2011-08-27T10:53:56Z</time>
      </trkpt>
      <trkpt lat="43.79815" lon="1.95053">
        <ele>250.560791</ele>
        <time>2011-08-27T10:53:58Z</time>
      </trkpt>
      <trkpt lat="43.79829" lon="1.95032">
        <ele>253.444702</ele>
        <time>2011-08-27T10:54:07Z</time>
      </trkpt>
      <trkpt lat="43.79831" lon="1.95021">
        <ele>255.36731</ele>
        <time>2011-08-27T10:54:10Z</time>
      </trkpt>
      <trkpt lat="43.79854" lon="1.94988">
        <ele>258.731934</ele>
        <time>2011-08-27T10:54:21Z</time>
      </trkpt>
      <trkpt lat="43.79896" lon="1.94968">
        <ele>261.615967</ele>
        <time>2011-08-27T10:54:31Z</time>
      </trkpt>
      <trkpt lat="43.79934" lon="1.94954">
        <ele>264.980591</ele>
        <time>2011-08-27T10:54:40Z</time>
      </trkpt>
      <trkpt lat="43.79944" lon="1.9495">
        <ele>264.499878</ele>
        <time>2011-08-27T10:54:43Z</time>
      </trkpt>
      <trkpt lat="43.7995" lon="1.94976">
        <ele>263.538574</ele>
        <time>2011-08-27T10:54:48Z</time>
      </trkpt>
      <trkpt lat="43.79931" lon="1.95075">
        <ele>260.17395</ele>
        <time>2011-08-27T10:54:57Z</time>
      </trkpt>
      <trkpt lat="43.79923" lon="1.95112">
        <ele>257.770752</ele>
        <time>2011-08-27T10:55:00Z</time>
      </trkpt>
      <trkpt lat="43.79916" lon="1.95138">
        <ele>256.809326</ele>
        <time>2011-08-27T10:55:02Z</time>
      </trkpt>
      <trkpt lat="43.79882" lon="1.95212">
        <ele>253.925415</ele>
        <time>2011-08-27T10:55:08Z</time>
      </trkpt>
      <trkpt lat="43.79814" lon="1.95311">
        <ele>250.560791</ele>
        <time>2011-08-27T10:55:17Z</time>
      </trkpt>
      <trkpt lat="43.79799" lon="1.95335">
        <ele>249.599487</ele>
        <time>2011-08-27T10:55:19Z</time>
      </trkpt>
      <trkpt lat="43.79767" lon="1.95405">
        <ele>246.715454</ele>
        <time>2011-08-27T10:55:24Z</time>
      </trkpt>
      <trkpt lat="43.7975" lon="1.9549">
        <ele>242.389648</ele>
        <time>2011-08-27T10:55:29Z</time>
      </trkpt>
      <trkpt lat="43.79745" lon="1.95549">
        <ele>239.505493</ele>
        <time>2011-08-27T10:55:32Z</time>
      </trkpt>
      <trkpt lat="43.79742" lon="1.95588">
        <ele>236.140991</ele>
        <time>2011-08-27T10:55:34Z</time>
      </trkpt>
      <trkpt lat="43.79738" lon="1.95648">
        <ele>231.814941</ele>
        <time>2011-08-27T10:55:37Z</time>
      </trkpt>
      <trkpt lat="43.79735" lon="1.95688">
        <ele>228.450439</ele>
        <time>2011-08-27T10:55:39Z</time>
      </trkpt>
      <trkpt lat="43.79731" lon="1.95749">
        <ele>224.605225</ele>
        <time>2011-08-27T10:55:42Z</time>
      </trkpt>
      <trkpt lat="43.79724" lon="1.9581">
        <ele>220.279175</ele>
        <time>2011-08-27T10:55:45Z</time>
      </trkpt>
      <trkpt lat="43.79719" lon="1.95851">
        <ele>216.914673</ele>
        <time>2011-08-27T10:55:47Z</time>
      </trkpt>
      <trkpt lat="43.79711" lon="1.95936">
        <ele>212.108032</ele>
        <time>2011-08-27T10:55:51Z</time>
      </trkpt>
      <trkpt lat="43.7971" lon="1.95979">
        <ele>208.743408</ele>
        <time>2011-08-27T10:55:53Z</time>
      </trkpt>
      <trkpt lat="43.79707" lon="1.96044">
        <ele>205.859497</ele>
        <time>2011-08-27T10:55:56Z</time>
      </trkpt>
      <trkpt lat="43.79701" lon="1.9611">
        <ele>200.572266</ele>
        <time>2011-08-27T10:55:59Z</time>
      </trkpt>
      <trkpt lat="43.79694" lon="1.96197">
        <ele>195.765625</ele>
        <time>2011-08-27T10:56:03Z</time>
      </trkpt>
      <trkpt lat="43.79692" lon="1.96241">
        <ele>194.32373</ele>
        <time>2011-08-27T10:56:05Z</time>
      </trkpt>
      <trkpt lat="43.79689" lon="1.96285">
        <ele>191.439575</ele>
        <time>2011-08-27T10:56:07Z</time>
      </trkpt>
      <trkpt lat="43.79687" lon="1.96369">
        <ele>187.59436</ele>
        <time>2011-08-27T10:56:11Z</time>
      </trkpt>
      <trkpt lat="43.79687" lon="1.9647">
        <ele>184.710571</ele>
        <time>2011-08-27T10:56:16Z</time>
      </trkpt>
      <trkpt lat="43.79683" lon="1.96552">
        <ele>182.307129</ele>
        <time>2011-08-27T10:56:20Z</time>
      </trkpt>
      <trkpt lat="43.79695" lon="1.96631">
        <ele>177.50061</ele>
        <time>2011-08-27T10:56:24Z</time>
      </trkpt>
      <trkpt lat="43.79712" lon="1.96679">
        <ele>175.577881</ele>
        <time>2011-08-27T10:56:27Z</time>
      </trkpt>
      <trkpt lat="43.79731" lon="1.96737">
        <ele>177.02002</ele>
        <time>2011-08-27T10:56:31Z</time>
      </trkpt>
      <trkpt lat="43.79737" lon="1.96761">
        <ele>177.981201</ele>
        <time>2011-08-27T10:56:33Z</time>
      </trkpt>
      <trkpt lat="43.79742" lon="1.96828">
        <ele>181.345825</ele>
        <time>2011-08-27T10:56:39Z</time>
      </trkpt>
      <trkpt lat="43.79741" lon="1.96837">
        <ele>181.345825</ele>
        <time>2011-08-27T10:56:40Z</time>
      </trkpt>
      <trkpt lat="43.79739" lon="1.96855">
        <ele>183.268433</ele>
        <time>2011-08-27T10:56:42Z</time>
      </trkpt>
      <trkpt lat="43.79737" lon="1.96883">
        <ele>183.749023</ele>
        <time>2011-08-27T10:56:45Z</time>
      </trkpt>
      <trkpt lat="43.7973" lon="1.96921">
        <ele>185.671753</ele>
        <time>2011-08-27T10:56:50Z</time>
      </trkpt>
      <trkpt lat="43.79726" lon="1.96935">
        <ele>186.152466</ele>
        <time>2011-08-27T10:56:52Z</time>
      </trkpt>
      <trkpt lat="43.79722" lon="1.96949">
        <ele>187.11377</ele>
        <time>2011-08-27T10:56:54Z</time>
      </trkpt>
      <trkpt lat="43.79687" lon="1.97034">
        <ele>190.958984</ele>
        <time>2011-08-27T10:57:07Z</time>
      </trkpt>
      <trkpt lat="43.79684" lon="1.9704">
        <ele>191.439575</ele>
        <time>2011-08-27T10:57:08Z</time>
      </trkpt>
      <trkpt lat="43.79655" lon="1.97106">
        <ele>194.804321</ele>
        <time>2011-08-27T10:57:19Z</time>
      </trkpt>
      <trkpt lat="43.79629" lon="1.97166">
        <ele>198.649536</ele>
        <time>2011-08-27T10:57:29Z</time>
      </trkpt>
      <trkpt lat="43.79627" lon="1.97172">
        <ele>198.649536</ele>
        <time>2011-08-27T10:57:30Z</time>
      </trkpt>
      <trkpt lat="43.79615" lon="1.97197">
        <ele>200.091675</ele>
        <time>2011-08-27T10:57:34Z</time>
      </trkpt>
      <trkpt lat="43.79597" lon="1.97238">
        <ele>203.456177</ele>
        <time>2011-08-27T10:57:41Z</time>
      </trkpt>
      <trkpt lat="43.79572" lon="1.97299">
        <ele>205.859497</ele>
        <time>2011-08-27T10:57:51Z</time>
      </trkpt>
      <trkpt lat="43.79565" lon="1.97324">
        <ele>207.782104</ele>
        <time>2011-08-27T10:57:55Z</time>
      </trkpt>
      <trkpt lat="43.7956" lon="1.97374">
        <ele>209.704834</ele>
        <time>2011-08-27T10:58:02Z</time>
      </trkpt>
      <trkpt lat="43.79568" lon="1.97418">
        <ele>212.108032</ele>
        <time>2011-08-27T10:58:09Z</time>
      </trkpt>
      <trkpt lat="43.79578" lon="1.97443">
        <ele>213.550049</ele>
        <time>2011-08-27T10:58:13Z</time>
      </trkpt>
      <trkpt lat="43.79581" lon="1.97448">
        <ele>213.069336</ele>
        <time>2011-08-27T10:58:14Z</time>
      </trkpt>
      <trkpt lat="43.79598" lon="1.97475">
        <ele>215.953247</ele>
        <time>2011-08-27T10:58:20Z</time>
      </trkpt>
      <trkpt lat="43.79622" lon="1.97501">
        <ele>217.875977</ele>
        <time>2011-08-27T10:58:27Z</time>
      </trkpt>
      <trkpt lat="43.7968" lon="1.97568">
        <ele>220.759888</ele>
        <time>2011-08-27T10:58:43Z</time>
      </trkpt>
      <trkpt lat="43.79729" lon="1.97633">
        <ele>217.395386</ele>
        <time>2011-08-27T10:58:53Z</time>
      </trkpt>
      <trkpt lat="43.79739" lon="1.9765">
        <ele>216.914673</ele>
        <time>2011-08-27T10:58:55Z</time>
      </trkpt>
      <trkpt lat="43.79755" lon="1.97686">
        <ele>215.472656</ele>
        <time>2011-08-27T10:58:59Z</time>
      </trkpt>
      <trkpt lat="43.79802" lon="1.97782">
        <ele>214.51123</ele>
        <time>2011-08-27T10:59:09Z</time>
      </trkpt>
      <trkpt lat="43.79811" lon="1.9785">
        <ele>213.069336</ele>
        <time>2011-08-27T10:59:15Z</time>
      </trkpt>
      <trkpt lat="43.79791" lon="1.97945">
        <ele>215.472656</ele>
        <time>2011-08-27T10:59:24Z</time>
      </trkpt>
      <trkpt lat="43.79755" lon="1.98082">
        <ele>217.875977</ele>
        <time>2011-08-27T10:59:39Z</time>
      </trkpt>
      <trkpt lat="43.79699" lon="1.98253">
        <ele>219.317993</ele>
        <time>2011-08-27T10:59:58Z</time>
      </trkpt>
      <trkpt lat="43.79687" lon="1.98278">
        <ele>219.317993</ele>
        <time>2011-08-27T11:00:01Z</time>
      </trkpt>
      <trkpt lat="43.79687" lon="1.98332">
        <ele>220.279175</ele>
        <time>2011-08-27T11:00:07Z</time>
      </trkpt>
      <trkpt lat="43.79694" lon="1.98338">
        <ele>220.759888</ele>
        <time>2011-08-27T11:00:08Z</time>
      </trkpt>
      <trkpt lat="43.79751" lon="1.98378">
        <ele>224.124512</ele>
        <time>2011-08-27T11:00:17Z</time>
      </trkpt>
      <trkpt lat="43.79756" lon="1.98382">
        <ele>224.124512</ele>
        <time>2011-08-27T11:00:18Z</time>
      </trkpt>
      <trkpt lat="43.79773" lon="1.98393">
        <ele>224.124512</ele>
        <time>2011-08-27T11:00:21Z</time>
      </trkpt>
      <trkpt lat="43.79804" lon="1.98418">
        <ele>225.085938</ele>
        <time>2011-08-27T11:00:27Z</time>
      </trkpt>
      <trkpt lat="43.79869" lon="1.98463">
        <ele>229.411743</ele>
        <time>2011-08-27T11:00:40Z</time>
      </trkpt>
      <trkpt lat="43.79922" lon="1.98501">
        <ele>232.776489</ele>
        <time>2011-08-27T11:00:51Z</time>
      </trkpt>
      <trkpt lat="43.79966" lon="1.98533">
        <ele>236.140991</ele>
        <time>2011-08-27T11:01:01Z</time>
      </trkpt>
      <trkpt lat="43.8002" lon="1.98571">
        <ele>239.024902</ele>
        <time>2011-08-27T11:01:13Z</time>
      </trkpt>
      <trkpt lat="43.80024" lon="1.98575">
        <ele>239.505493</ele>
        <time>2011-08-27T11:01:14Z</time>
      </trkpt>
      <trkpt lat="43.80036" lon="1.98596">
        <ele>240.947632</ele>
        <time>2011-08-27T11:01:18Z</time>
      </trkpt>
      <trkpt lat="43.80041" lon="1.98619">
        <ele>242.389648</ele>
        <time>2011-08-27T11:01:21Z</time>
      </trkpt>
      <trkpt lat="43.80052" lon="1.98687">
        <ele>240.947632</ele>
        <time>2011-08-27T11:01:29Z</time>
      </trkpt>
      <trkpt lat="43.80081" lon="1.98742">
        <ele>237.102295</ele>
        <time>2011-08-27T11:01:34Z</time>
      </trkpt>
      <trkpt lat="43.80089" lon="1.98754">
        <ele>236.621704</ele>
        <time>2011-08-27T11:01:35Z</time>
      </trkpt>
      <trkpt lat="43.8011" lon="1.98854">
        <ele>230.373047</ele>
        <time>2011-08-27T11:01:41Z</time>
      </trkpt>
      <trkpt lat="43.80099" lon="1.9891">
        <ele>228.450439</ele>
        <time>2011-08-27T11:01:44Z</time>
      </trkpt>
      <trkpt lat="43.80092" lon="1.98948">
        <ele>223.643799</ele>
        <time>2011-08-27T11:01:46Z</time>
      </trkpt>
      <trkpt lat="43.80081" lon="1.99007">
        <ele>220.279175</ele>
        <time>2011-08-27T11:01:49Z</time>
      </trkpt>
      <trkpt lat="43.80068" lon="1.99084">
        <ele>216.43396</ele>
        <time>2011-08-27T11:01:53Z</time>
      </trkpt>
      <trkpt lat="43.8006" lon="1.99143">
        <ele>213.069336</ele>
        <time>2011-08-27T11:01:56Z</time>
      </trkpt>
      <trkpt lat="43.80054" lon="1.99222">
        <ele>210.185425</ele>
        <time>2011-08-27T11:02:00Z</time>
      </trkpt>
      <trkpt lat="43.80049" lon="1.99295">
        <ele>206.820679</ele>
        <time>2011-08-27T11:02:04Z</time>
      </trkpt>
      <trkpt lat="43.80049" lon="1.99329">
        <ele>206.340088</ele>
        <time>2011-08-27T11:02:06Z</time>
      </trkpt>
      <trkpt lat="43.80073" lon="1.99392">
        <ele>207.301392</ele>
        <time>2011-08-27T11:02:11Z</time>
      </trkpt>
      <trkpt lat="43.80098" lon="1.99417">
        <ele>209.704834</ele>
        <time>2011-08-27T11:02:15Z</time>
      </trkpt>
      <trkpt lat="43.80136" lon="1.99455">
        <ele>212.108032</ele>
        <time>2011-08-27T11:02:23Z</time>
      </trkpt>
      <trkpt lat="43.80144" lon="1.99466">
        <ele>213.550049</ele>
        <time>2011-08-27T11:02:25Z</time>
      </trkpt>
      <trkpt lat="43.80148" lon="1.99472">
        <ele>214.51123</ele>
        <time>2011-08-27T11:02:26Z</time>
      </trkpt>
      <trkpt lat="43.80158" lon="1.99501">
        <ele>215.953247</ele>
        <time>2011-08-27T11:02:30Z</time>
      </trkpt>
      <trkpt lat="43.80161" lon="1.99516">
        <ele>216.914673</ele>
        <time>2011-08-27T11:02:32Z</time>
      </trkpt>
      <trkpt lat="43.8016" lon="1.99545">
        <ele>219.317993</ele>
        <time>2011-08-27T11:02:36Z</time>
      </trkpt>
      <trkpt lat="43.80156" lon="1.99584">
        <ele>222.201782</ele>
        <time>2011-08-27T11:02:42Z</time>
      </trkpt>
      <trkpt lat="43.80152" lon="1.99609">
        <ele>223.643799</ele>
        <time>2011-08-27T11:02:46Z</time>
      </trkpt>
      <trkpt lat="43.80142" lon="1.99646">
        <ele>226.047119</ele>
        <time>2011-08-27T11:02:52Z</time>
      </trkpt>
      <trkpt lat="43.80136" lon="1.99657">
        <ele>226.527832</ele>
        <time>2011-08-27T11:02:54Z</time>
      </trkpt>
      <trkpt lat="43.80127" lon="1.99671">
        <ele>227.008545</ele>
        <time>2011-08-27T11:02:57Z</time>
      </trkpt>
      <trkpt lat="43.80122" lon="1.9968">
        <ele>227.489136</ele>
        <time>2011-08-27T11:02:59Z</time>
      </trkpt>
      <trkpt lat="43.80115" lon="1.99696">
        <ele>229.411743</ele>
        <time>2011-08-27T11:03:02Z</time>
      </trkpt>
      <trkpt lat="43.8011" lon="1.99707">
        <ele>229.411743</ele>
        <time>2011-08-27T11:03:04Z</time>
      </trkpt>
      <trkpt lat="43.80097" lon="1.99768">
        <ele>233.737671</ele>
        <time>2011-08-27T11:03:13Z</time>
      </trkpt>
      <trkpt lat="43.80092" lon="1.99789">
        <ele>235.179688</ele>
        <time>2011-08-27T11:03:16Z</time>
      </trkpt>
      <trkpt lat="43.80075" lon="1.99828">
        <ele>238.063599</ele>
        <time>2011-08-27T11:03:23Z</time>
      </trkpt>
      <trkpt lat="43.80073" lon="1.99833">
        <ele>238.544312</ele>
        <time>2011-08-27T11:03:24Z</time>
      </trkpt>
      <trkpt lat="43.80063" lon="1.99859">
        <ele>240.467041</ele>
        <time>2011-08-27T11:03:29Z</time>
      </trkpt>
      <trkpt lat="43.80055" lon="1.9988">
        <ele>242.389648</ele>
        <time>2011-08-27T11:03:33Z</time>
      </trkpt>
      <trkpt lat="43.80048" lon="1.99906">
        <ele>244.312256</ele>
        <time>2011-08-27T11:03:38Z</time>
      </trkpt>
      <trkpt lat="43.80046" lon="1.99933">
        <ele>246.715454</ele>
        <time>2011-08-27T11:03:43Z</time>
      </trkpt>
      <trkpt lat="43.80056" lon="1.99978">
        <ele>247.676758</ele>
        <time>2011-08-27T11:03:51Z</time>
      </trkpt>
      <trkpt lat="43.80084" lon="2.00041">
        <ele>251.522095</ele>
        <time>2011-08-27T11:04:03Z</time>
      </trkpt>
      <trkpt lat="43.80102" lon="2.00086">
        <ele>254.886597</ele>
        <time>2011-08-27T11:04:11Z</time>
      </trkpt>
      <trkpt lat="43.80108" lon="2.00102">
        <ele>256.328735</ele>
        <time>2011-08-27T11:04:14Z</time>
      </trkpt>
      <trkpt lat="43.80143" lon="2.00227">
        <ele>257.770752</ele>
        <time>2011-08-27T11:04:32Z</time>
      </trkpt>
      <trkpt lat="43.80148" lon="2.00384">
        <ele>259.693359</ele>
        <time>2011-08-27T11:04:51Z</time>
      </trkpt>
      <trkpt lat="43.80161" lon="2.00455">
        <ele>259.693359</ele>
        <time>2011-08-27T11:04:59Z</time>
      </trkpt>
      <trkpt lat="43.80181" lon="2.0047">
        <ele>260.17395</ele>
        <time>2011-08-27T11:05:05Z</time>
      </trkpt>
      <trkpt lat="43.80192" lon="2.00456">
        <ele>259.693359</ele>
        <time>2011-08-27T11:05:07Z</time>
      </trkpt>
      <trkpt lat="43.80229" lon="2.00413">
        <ele>254.886597</ele>
        <time>2011-08-27T11:05:12Z</time>
      </trkpt>
      <trkpt lat="43.80245" lon="2.00395">
        <ele>253.444702</ele>
        <time>2011-08-27T11:05:14Z</time>
      </trkpt>
      <trkpt lat="43.80275" lon="2.0033">
        <ele>249.599487</ele>
        <time>2011-08-27T11:05:19Z</time>
      </trkpt>
      <trkpt lat="43.80286" lon="2.00302">
        <ele>245.75415</ele>
        <time>2011-08-27T11:05:21Z</time>
      </trkpt>
      <trkpt lat="43.803" lon="2.00277">
        <ele>243.831543</ele>
        <time>2011-08-27T11:05:23Z</time>
      </trkpt>
      <trkpt lat="43.80315" lon="2.00246">
        <ele>241.908936</ele>
        <time>2011-08-27T11:05:26Z</time>
      </trkpt>
      <trkpt lat="43.80337" lon="2.00211">
        <ele>244.312256</ele>
        <time>2011-08-27T11:05:30Z</time>
      </trkpt>
      <trkpt lat="43.80388" lon="2.00125">
        <ele>241.428223</ele>
        <time>2011-08-27T11:05:41Z</time>
      </trkpt>
      <trkpt lat="43.8042" lon="2.00076">
        <ele>237.102295</ele>
        <time>2011-08-27T11:05:46Z</time>
      </trkpt>
      <trkpt lat="43.80451" lon="2.00037">
        <ele>233.737671</ele>
        <time>2011-08-27T11:05:50Z</time>
      </trkpt>
      <trkpt lat="43.80489" lon="1.99996">
        <ele>230.373047</ele>
        <time>2011-08-27T11:05:54Z</time>
      </trkpt>
      <trkpt lat="43.8051" lon="1.99976">
        <ele>228.931152</ele>
        <time>2011-08-27T11:05:56Z</time>
      </trkpt>
      <trkpt lat="43.80551" lon="1.99942">
        <ele>227.008545</ele>
        <time>2011-08-27T11:06:00Z</time>
      </trkpt>
      <trkpt lat="43.8059" lon="1.99909">
        <ele>223.643799</ele>
        <time>2011-08-27T11:06:04Z</time>
      </trkpt>
      <trkpt lat="43.8064" lon="1.9986">
        <ele>219.317993</ele>
        <time>2011-08-27T11:06:10Z</time>
      </trkpt>
      <trkpt lat="43.80657" lon="1.99843">
        <ele>218.83728</ele>
        <time>2011-08-27T11:06:12Z</time>
      </trkpt>
      <trkpt lat="43.80716" lon="1.99769">
        <ele>216.914673</ele>
        <time>2011-08-27T11:06:21Z</time>
      </trkpt>
      <trkpt lat="43.80733" lon="1.9973">
        <ele>215.953247</ele>
        <time>2011-08-27T11:06:25Z</time>
      </trkpt>
      <trkpt lat="43.80757" lon="1.9964">
        <ele>214.991943</ele>
        <time>2011-08-27T11:06:34Z</time>
      </trkpt>
      <trkpt lat="43.80801" lon="1.99588">
        <ele>214.51123</ele>
        <time>2011-08-27T11:06:42Z</time>
      </trkpt>
      <trkpt lat="43.80826" lon="1.99583">
        <ele>214.991943</ele>
        <time>2011-08-27T11:06:46Z</time>
      </trkpt>
      <trkpt lat="43.80839" lon="1.99586">
        <ele>216.43396</ele>
        <time>2011-08-27T11:06:48Z</time>
      </trkpt>
      <trkpt lat="43.80862" lon="1.99587">
        <ele>217.875977</ele>
        <time>2011-08-27T11:06:52Z</time>
      </trkpt>
      <trkpt lat="43.80888" lon="1.99576">
        <ele>219.798584</ele>
        <time>2011-08-27T11:06:57Z</time>
      </trkpt>
      <trkpt lat="43.80893" lon="1.99574">
        <ele>220.279175</ele>
        <time>2011-08-27T11:06:58Z</time>
      </trkpt>
      <trkpt lat="43.8094" lon="1.99535">
        <ele>223.163208</ele>
        <time>2011-08-27T11:07:09Z</time>
      </trkpt>
      <trkpt lat="43.80971" lon="1.99506">
        <ele>225.566528</ele>
        <time>2011-08-27T11:07:17Z</time>
      </trkpt>
      <trkpt lat="43.80975" lon="1.99503">
        <ele>225.566528</ele>
        <time>2011-08-27T11:07:18Z</time>
      </trkpt>
      <trkpt lat="43.80994" lon="1.99484">
        <ele>227.008545</ele>
        <time>2011-08-27T11:07:23Z</time>
      </trkpt>
      <trkpt lat="43.81001" lon="1.99477">
        <ele>227.489136</ele>
        <time>2011-08-27T11:07:25Z</time>
      </trkpt>
      <trkpt lat="43.8103" lon="1.99444">
        <ele>229.411743</ele>
        <time>2011-08-27T11:07:33Z</time>
      </trkpt>
      <trkpt lat="43.81046" lon="1.99428">
        <ele>230.373047</ele>
        <time>2011-08-27T11:07:37Z</time>
      </trkpt>
      <trkpt lat="43.81057" lon="1.99415">
        <ele>231.814941</ele>
        <time>2011-08-27T11:07:40Z</time>
      </trkpt>
      <trkpt lat="43.81072" lon="1.99399">
        <ele>233.25708</ele>
        <time>2011-08-27T11:07:44Z</time>
      </trkpt>
      <trkpt lat="43.81108" lon="1.99357">
        <ele>236.621704</ele>
        <time>2011-08-27T11:07:54Z</time>
      </trkpt>
      <trkpt lat="43.81135" lon="1.99327">
        <ele>237.582886</ele>
        <time>2011-08-27T11:08:01Z</time>
      </trkpt>
      <trkpt lat="43.81156" lon="1.99311">
        <ele>239.024902</ele>
        <time>2011-08-27T11:08:05Z</time>
      </trkpt>
      <trkpt lat="43.81207" lon="1.99288">
        <ele>242.389648</ele>
        <time>2011-08-27T11:08:15Z</time>
      </trkpt>
      <trkpt lat="43.81266" lon="1.99256">
        <ele>240.947632</ele>
        <time>2011-08-27T11:08:26Z</time>
      </trkpt>
      <trkpt lat="43.81291" lon="1.99232">
        <ele>239.505493</ele>
        <time>2011-08-27T11:08:30Z</time>
      </trkpt>
      <trkpt lat="43.81359" lon="1.99154">
        <ele>236.621704</ele>
        <time>2011-08-27T11:08:41Z</time>
      </trkpt>
      <trkpt lat="43.81372" lon="1.99111">
        <ele>232.776489</ele>
        <time>2011-08-27T11:08:45Z</time>
      </trkpt>
      <trkpt lat="43.81373" lon="1.99098">
        <ele>231.814941</ele>
        <time>2011-08-27T11:08:46Z</time>
      </trkpt>
      <trkpt lat="43.81379" lon="1.99044">
        <ele>228.450439</ele>
        <time>2011-08-27T11:08:50Z</time>
      </trkpt>
      <trkpt lat="43.8138" lon="1.9903">
        <ele>228.450439</ele>
        <time>2011-08-27T11:08:51Z</time>
      </trkpt>
      <trkpt lat="43.81385" lon="1.98991">
        <ele>226.527832</ele>
        <time>2011-08-27T11:08:54Z</time>
      </trkpt>
      <trkpt lat="43.81417" lon="1.98959">
        <ele>228.450439</ele>
        <time>2011-08-27T11:09:00Z</time>
      </trkpt>
      <trkpt lat="43.81484" lon="1.98982">
        <ele>231.814941</ele>
        <time>2011-08-27T11:09:12Z</time>
      </trkpt>
      <trkpt lat="43.8149" lon="1.98983">
        <ele>232.295776</ele>
        <time>2011-08-27T11:09:13Z</time>
      </trkpt>
      <trkpt lat="43.81512" lon="1.98983">
        <ele>232.776489</ele>
        <time>2011-08-27T11:09:17Z</time>
      </trkpt>
      <trkpt lat="43.81568" lon="1.98962">
        <ele>236.140991</ele>
        <time>2011-08-27T11:09:27Z</time>
      </trkpt>
      <trkpt lat="43.8162" lon="1.9895">
        <ele>237.102295</ele>
        <time>2011-08-27T11:09:36Z</time>
      </trkpt>
      <trkpt lat="43.81673" lon="1.98968">
        <ele>234.699097</ele>
        <time>2011-08-27T11:09:45Z</time>
      </trkpt>
      <trkpt lat="43.8172" lon="1.98978">
        <ele>231.814941</ele>
        <time>2011-08-27T11:09:51Z</time>
      </trkpt>
      <trkpt lat="43.81787" lon="1.9899">
        <ele>227.969727</ele>
        <time>2011-08-27T11:09:58Z</time>
      </trkpt>
      <trkpt lat="43.81903" lon="1.99012">
        <ele>227.969727</ele>
        <time>2011-08-27T11:10:12Z</time>
      </trkpt>
      <trkpt lat="43.81942" lon="1.99021">
        <ele>230.373047</ele>
        <time>2011-08-27T11:10:18Z</time>
      </trkpt>
      <trkpt lat="43.81982" lon="1.9903">
        <ele>232.776489</ele>
        <time>2011-08-27T11:10:25Z</time>
      </trkpt>
      <trkpt lat="43.81993" lon="1.9903">
        <ele>233.25708</ele>
        <time>2011-08-27T11:10:27Z</time>
      </trkpt>
      <trkpt lat="43.82073" lon="1.99016">
        <ele>234.699097</ele>
        <time>2011-08-27T11:10:41Z</time>
      </trkpt>
      <trkpt lat="43.8209" lon="1.99011">
        <ele>236.621704</ele>
        <time>2011-08-27T11:10:44Z</time>
      </trkpt>
      <trkpt lat="43.82102" lon="1.9901">
        <ele>236.140991</ele>
        <time>2011-08-27T11:10:46Z</time>
      </trkpt>
      <trkpt lat="43.82118" lon="1.99006">
        <ele>237.102295</ele>
        <time>2011-08-27T11:10:49Z</time>
      </trkpt>
      <trkpt lat="43.82201" lon="1.99021">
        <ele>234.218384</ele>
        <time>2011-08-27T11:11:01Z</time>
      </trkpt>
      <trkpt lat="43.82289" lon="1.99017">
        <ele>233.25708</ele>
        <time>2011-08-27T11:11:12Z</time>
      </trkpt>
      <trkpt lat="43.82353" lon="1.99005">
        <ele>237.102295</ele>
        <time>2011-08-27T11:11:23Z</time>
      </trkpt>
      <trkpt lat="43.82369" lon="1.99006">
        <ele>239.024902</ele>
        <time>2011-08-27T11:11:26Z</time>
      </trkpt>
      <trkpt lat="43.82409" lon="1.99011">
        <ele>242.870239</ele>
        <time>2011-08-27T11:11:33Z</time>
      </trkpt>
      <trkpt lat="43.82442" lon="1.99014">
        <ele>244.312256</ele>
        <time>2011-08-27T11:11:38Z</time>
      </trkpt>
      <trkpt lat="43.8246" lon="1.99016">
        <ele>245.75415</ele>
        <time>2011-08-27T11:11:41Z</time>
      </trkpt>
      <trkpt lat="43.82503" lon="1.99024">
        <ele>249.118774</ele>
        <time>2011-08-27T11:11:48Z</time>
      </trkpt>
      <trkpt lat="43.82583" lon="1.99031">
        <ele>252.002808</ele>
        <time>2011-08-27T11:12:02Z</time>
      </trkpt>
      <trkpt lat="43.82588" lon="1.9903">
        <ele>252.002808</ele>
        <time>2011-08-27T11:12:03Z</time>
      </trkpt>
      <trkpt lat="43.82611" lon="1.99024">
        <ele>252.002808</ele>
        <time>2011-08-27T11:12:07Z</time>
      </trkpt>
      <trkpt lat="43.82723" lon="1.99024">
        <ele>253.444702</ele>
        <time>2011-08-27T11:12:25Z</time>
      </trkpt>
      <trkpt lat="43.82832" lon="1.99031">
        <ele>250.560791</ele>
        <time>2011-08-27T11:12:41Z</time>
      </trkpt>
      <trkpt lat="43.829" lon="1.99052">
        <ele>247.676758</ele>
        <time>2011-08-27T11:12:49Z</time>
      </trkpt>
      <trkpt lat="43.82981" lon="1.99099">
        <ele>247.196045</ele>
        <time>2011-08-27T11:12:59Z</time>
      </trkpt>
      <trkpt lat="43.83012" lon="1.99103">
        <ele>247.676758</ele>
        <time>2011-08-27T11:13:03Z</time>
      </trkpt>
      <trkpt lat="43.83137" lon="1.99047">
        <ele>245.75415</ele>
        <time>2011-08-27T11:13:20Z</time>
      </trkpt>
      <trkpt lat="43.83181" lon="1.99019">
        <ele>242.389648</ele>
        <time>2011-08-27T11:13:26Z</time>
      </trkpt>
      <trkpt lat="43.83198" lon="1.99013">
        <ele>241.908936</ele>
        <time>2011-08-27T11:13:28Z</time>
      </trkpt>
      <trkpt lat="43.8323" lon="1.99016">
        <ele>241.428223</ele>
        <time>2011-08-27T11:13:32Z</time>
      </trkpt>
      <trkpt lat="43.83298" lon="1.99036">
        <ele>239.505493</ele>
        <time>2011-08-27T11:13:40Z</time>
      </trkpt>
      <trkpt lat="43.83387" lon="1.99011">
        <ele>235.660278</ele>
        <time>2011-08-27T11:13:50Z</time>
      </trkpt>
      <trkpt lat="43.83434" lon="1.98997">
        <ele>234.218384</ele>
        <time>2011-08-27T11:13:55Z</time>
      </trkpt>
      <trkpt lat="43.83485" lon="1.98988">
        <ele>235.179688</ele>
        <time>2011-08-27T11:14:01Z</time>
      </trkpt>
      <trkpt lat="43.83569" lon="1.98913">
        <ele>231.814941</ele>
        <time>2011-08-27T11:14:13Z</time>
      </trkpt>
      <trkpt lat="43.83629" lon="1.98843">
        <ele>232.295776</ele>
        <time>2011-08-27T11:14:22Z</time>
      </trkpt>
      <trkpt lat="43.83671" lon="1.9883">
        <ele>233.25708</ele>
        <time>2011-08-27T11:14:27Z</time>
      </trkpt>
      <trkpt lat="43.83805" lon="1.98821">
        <ele>229.892334</ele>
        <time>2011-08-27T11:14:43Z</time>
      </trkpt>
      <trkpt lat="43.83823" lon="1.98818">
        <ele>228.931152</ele>
        <time>2011-08-27T11:14:45Z</time>
      </trkpt>
      <trkpt lat="43.83936" lon="1.98775">
        <ele>228.450439</ele>
        <time>2011-08-27T11:14:59Z</time>
      </trkpt>
      <trkpt lat="43.83982" lon="1.98748">
        <ele>226.527832</ele>
        <time>2011-08-27T11:15:05Z</time>
      </trkpt>
      <trkpt lat="43.84007" lon="1.9872">
        <ele>226.047119</ele>
        <time>2011-08-27T11:15:09Z</time>
      </trkpt>
      <trkpt lat="43.84022" lon="1.98669">
        <ele>225.085938</ele>
        <time>2011-08-27T11:15:14Z</time>
      </trkpt>
      <trkpt lat="43.84052" lon="1.98623">
        <ele>221.240601</ele>
        <time>2011-08-27T11:15:19Z</time>
      </trkpt>
      <trkpt lat="43.84074" lon="1.98593">
        <ele>218.83728</ele>
        <time>2011-08-27T11:15:22Z</time>
      </trkpt>
      <trkpt lat="43.84103" lon="1.98549">
        <ele>215.472656</ele>
        <time>2011-08-27T11:15:26Z</time>
      </trkpt>
      <trkpt lat="43.84127" lon="1.98482">
        <ele>212.108032</ele>
        <time>2011-08-27T11:15:31Z</time>
      </trkpt>
      <trkpt lat="43.84132" lon="1.98469">
        <ele>211.146729</ele>
        <time>2011-08-27T11:15:32Z</time>
      </trkpt>
      <trkpt lat="43.84177" lon="1.98399">
        <ele>208.262817</ele>
        <time>2011-08-27T11:15:39Z</time>
      </trkpt>
      <trkpt lat="43.8424" lon="1.98321">
        <ele>205.859497</ele>
        <time>2011-08-27T11:15:49Z</time>
      </trkpt>
      <trkpt lat="43.84268" lon="1.98297">
        <ele>204.41748</ele>
        <time>2011-08-27T11:15:53Z</time>
      </trkpt>
      <trkpt lat="43.84331" lon="1.98276">
        <ele>200.572266</ele>
        <time>2011-08-27T11:16:00Z</time>
      </trkpt>
      <trkpt lat="43.8434" lon="1.98272">
        <ele>200.091675</ele>
        <time>2011-08-27T11:16:01Z</time>
      </trkpt>
      <trkpt lat="43.8437" lon="1.98237">
        <ele>197.688232</ele>
        <time>2011-08-27T11:16:05Z</time>
      </trkpt>
      <trkpt lat="43.84376" lon="1.98185">
        <ele>197.20752</ele>
        <time>2011-08-27T11:16:09Z</time>
      </trkpt>
      <trkpt lat="43.84376" lon="1.98161">
        <ele>197.688232</ele>
        <time>2011-08-27T11:16:11Z</time>
      </trkpt>
      <trkpt lat="43.84404" lon="1.98115">
        <ele>199.61084</ele>
        <time>2011-08-27T11:16:17Z</time>
      </trkpt>
      <trkpt lat="43.84482" lon="1.98087">
        <ele>202.494873</ele>
        <time>2011-08-27T11:16:29Z</time>
      </trkpt>
      <trkpt lat="43.84567" lon="1.98088">
        <ele>202.014282</ele>
        <time>2011-08-27T11:16:42Z</time>
      </trkpt>
      <trkpt lat="43.84596" lon="1.98089">
        <ele>202.975464</ele>
        <time>2011-08-27T11:16:46Z</time>
      </trkpt>
      <trkpt lat="43.84617" lon="1.98091">
        <ele>203.456177</ele>
        <time>2011-08-27T11:16:49Z</time>
      </trkpt>
      <trkpt lat="43.84668" lon="1.9809">
        <ele>203.93689</ele>
        <time>2011-08-27T11:16:56Z</time>
      </trkpt>
      <trkpt lat="43.84694" lon="1.98104">
        <ele>203.93689</ele>
        <time>2011-08-27T11:17:00Z</time>
      </trkpt>
      <trkpt lat="43.84718" lon="1.98127">
        <ele>202.494873</ele>
        <time>2011-08-27T11:17:04Z</time>
      </trkpt>
      <trkpt lat="43.84765" lon="1.98174">
        <ele>199.61084</ele>
        <time>2011-08-27T11:17:11Z</time>
      </trkpt>
      <trkpt lat="43.8484" lon="1.98242">
        <ele>196.246338</ele>
        <time>2011-08-27T11:17:21Z</time>
      </trkpt>
      <trkpt lat="43.84848" lon="1.98248">
        <ele>195.765625</ele>
        <time>2011-08-27T11:17:22Z</time>
      </trkpt>
      <trkpt lat="43.84888" lon="1.98243">
        <ele>195.284912</ele>
        <time>2011-08-27T11:17:28Z</time>
      </trkpt>
      <trkpt lat="43.84883" lon="1.98243">
        <ele>195.284912</ele>
        <time>2011-08-27T11:17:32Z</time>
      </trkpt>
      <trkpt lat="43.84882" lon="1.98298">
        <ele>194.32373</ele>
        <time>2011-08-27T11:17:39Z</time>
      </trkpt>
      <trkpt lat="43.84888" lon="1.9835">
        <ele>194.32373</ele>
        <time>2011-08-27T11:17:43Z</time>
      </trkpt>
      <trkpt lat="43.849" lon="1.98386">
        <ele>192.881714</ele>
        <time>2011-08-27T11:17:46Z</time>
      </trkpt>
      <trkpt lat="43.8491" lon="1.98405">
        <ele>192.401123</ele>
        <time>2011-08-27T11:17:48Z</time>
      </trkpt>
      <trkpt lat="43.8494" lon="1.98428">
        <ele>192.401123</ele>
        <time>2011-08-27T11:17:52Z</time>
      </trkpt>
      <trkpt lat="43.84955" lon="1.98436">
        <ele>192.401123</ele>
        <time>2011-08-27T11:17:54Z</time>
      </trkpt>
      <trkpt lat="43.8505" lon="1.9849">
        <ele>191.439575</ele>
        <time>2011-08-27T11:18:07Z</time>
      </trkpt>
      <trkpt lat="43.85072" lon="1.98524">
        <ele>190.958984</ele>
        <time>2011-08-27T11:18:11Z</time>
      </trkpt>
      <trkpt lat="43.85089" lon="1.98576">
        <ele>189.997681</ele>
        <time>2011-08-27T11:18:16Z</time>
      </trkpt>
      <trkpt lat="43.85094" lon="1.98731">
        <ele>189.997681</ele>
        <time>2011-08-27T11:18:29Z</time>
      </trkpt>
      <trkpt lat="43.8509" lon="1.98917">
        <ele>189.516968</ele>
        <time>2011-08-27T11:18:45Z</time>
      </trkpt>
      <trkpt lat="43.85072" lon="1.991">
        <ele>187.59436</ele>
        <time>2011-08-27T11:19:00Z</time>
      </trkpt>
      <trkpt lat="43.85054" lon="1.99287">
        <ele>185.671753</ele>
        <time>2011-08-27T11:19:16Z</time>
      </trkpt>
      <trkpt lat="43.85075" lon="1.99319">
        <ele>187.11377</ele>
        <time>2011-08-27T11:19:21Z</time>
      </trkpt>
      <trkpt lat="43.85083" lon="1.99317">
        <ele>187.59436</ele>
        <time>2011-08-27T11:19:22Z</time>
      </trkpt>
      <trkpt lat="43.85158" lon="1.99284">
        <ele>184.710571</ele>
        <time>2011-08-27T11:19:31Z</time>
      </trkpt>
      <trkpt lat="43.85201" lon="1.99311">
        <ele>183.749023</ele>
        <time>2011-08-27T11:19:37Z</time>
      </trkpt>
      <trkpt lat="43.85332" lon="1.99526">
        <ele>183.749023</ele>
        <time>2011-08-27T11:20:01Z</time>
      </trkpt>
      <trkpt lat="43.85402" lon="1.99644">
        <ele>187.11377</ele>
        <time>2011-08-27T11:20:16Z</time>
      </trkpt>
      <trkpt lat="43.85437" lon="1.99698">
        <ele>188.555786</ele>
        <time>2011-08-27T11:20:24Z</time>
      </trkpt>
      <trkpt lat="43.85506" lon="1.99806">
        <ele>191.439575</ele>
        <time>2011-08-27T11:20:41Z</time>
      </trkpt>
      <trkpt lat="43.85548" lon="1.99869">
        <ele>194.804321</ele>
        <time>2011-08-27T11:20:52Z</time>
      </trkpt>
      <trkpt lat="43.85565" lon="1.99894">
        <ele>196.726929</ele>
        <time>2011-08-27T11:20:57Z</time>
      </trkpt>
      <trkpt lat="43.85594" lon="1.99935">
        <ele>199.61084</ele>
        <time>2011-08-27T11:21:05Z</time>
      </trkpt>
      <trkpt lat="43.85609" lon="1.99954">
        <ele>200.572266</ele>
        <time>2011-08-27T11:21:09Z</time>
      </trkpt>
      <trkpt lat="43.85655" lon="2.00005">
        <ele>204.41748</ele>
        <time>2011-08-27T11:21:21Z</time>
      </trkpt>
      <trkpt lat="43.85702" lon="2.00077">
        <ele>206.820679</ele>
        <time>2011-08-27T11:21:35Z</time>
      </trkpt>
      <trkpt lat="43.85725" lon="2.00142">
        <ele>210.666016</ele>
        <time>2011-08-27T11:21:45Z</time>
      </trkpt>
      <trkpt lat="43.85728" lon="2.00148">
        <ele>209.224121</ele>
        <time>2011-08-27T11:21:46Z</time>
      </trkpt>
      <trkpt lat="43.85741" lon="2.00187">
        <ele>211.627441</ele>
        <time>2011-08-27T11:21:52Z</time>
      </trkpt>
      <trkpt lat="43.85745" lon="2.00201">
        <ele>212.108032</ele>
        <time>2011-08-27T11:21:54Z</time>
      </trkpt>
      <trkpt lat="43.85752" lon="2.0022">
        <ele>213.069336</ele>
        <time>2011-08-27T11:21:57Z</time>
      </trkpt>
      <trkpt lat="43.85766" lon="2.0029">
        <ele>215.953247</ele>
        <time>2011-08-27T11:22:07Z</time>
      </trkpt>
      <trkpt lat="43.85766" lon="2.00298">
        <ele>216.43396</ele>
        <time>2011-08-27T11:22:08Z</time>
      </trkpt>
      <trkpt lat="43.85766" lon="2.00313">
        <ele>217.395386</ele>
        <time>2011-08-27T11:22:10Z</time>
      </trkpt>
      <trkpt lat="43.85765" lon="2.00335">
        <ele>218.83728</ele>
        <time>2011-08-27T11:22:13Z</time>
      </trkpt>
      <trkpt lat="43.85764" lon="2.00357">
        <ele>219.317993</ele>
        <time>2011-08-27T11:22:16Z</time>
      </trkpt>
      <trkpt lat="43.85766" lon="2.0038">
        <ele>220.279175</ele>
        <time>2011-08-27T11:22:19Z</time>
      </trkpt>
      <trkpt lat="43.85773" lon="2.00423">
        <ele>224.124512</ele>
        <time>2011-08-27T11:22:25Z</time>
      </trkpt>
      <trkpt lat="43.85778" lon="2.00443">
        <ele>226.047119</ele>
        <time>2011-08-27T11:22:28Z</time>
      </trkpt>
      <trkpt lat="43.85822" lon="2.00546">
        <ele>223.643799</ele>
        <time>2011-08-27T11:22:42Z</time>
      </trkpt>
      <trkpt lat="43.85838" lon="2.00661">
        <ele>220.279175</ele>
        <time>2011-08-27T11:22:52Z</time>
      </trkpt>
      <trkpt lat="43.85841" lon="2.00688">
        <ele>219.317993</ele>
        <time>2011-08-27T11:22:54Z</time>
      </trkpt>
      <trkpt lat="43.85851" lon="2.00731">
        <ele>217.395386</ele>
        <time>2011-08-27T11:22:57Z</time>
      </trkpt>
      <trkpt lat="43.85873" lon="2.00802">
        <ele>214.03064</ele>
        <time>2011-08-27T11:23:02Z</time>
      </trkpt>
      <trkpt lat="43.85885" lon="2.00852">
        <ele>210.666016</ele>
        <time>2011-08-27T11:23:06Z</time>
      </trkpt>
      <trkpt lat="43.85894" lon="2.00896">
        <ele>209.224121</ele>
        <time>2011-08-27T11:23:13Z</time>
      </trkpt>
      <trkpt lat="43.85915" lon="2.00994">
        <ele>210.185425</ele>
        <time>2011-08-27T11:23:24Z</time>
      </trkpt>
      <trkpt lat="43.85946" lon="2.01102">
        <ele>206.820679</ele>
        <time>2011-08-27T11:23:34Z</time>
      </trkpt>
      <trkpt lat="43.86041" lon="2.01402">
        <ele>204.898071</ele>
        <time>2011-08-27T11:24:00Z</time>
      </trkpt>
      <trkpt lat="43.86086" lon="2.01549">
        <ele>203.93689</ele>
        <time>2011-08-27T11:24:13Z</time>
      </trkpt>
      <trkpt lat="43.8609" lon="2.01606">
        <ele>203.456177</ele>
        <time>2011-08-27T11:24:18Z</time>
      </trkpt>
      <trkpt lat="43.86055" lon="2.01744">
        <ele>202.494873</ele>
        <time>2011-08-27T11:24:30Z</time>
      </trkpt>
      <trkpt lat="43.8599" lon="2.01885">
        <ele>200.572266</ele>
        <time>2011-08-27T11:24:43Z</time>
      </trkpt>
      <trkpt lat="43.85967" lon="2.01974">
        <ele>200.572266</ele>
        <time>2011-08-27T11:24:50Z</time>
      </trkpt>
      <trkpt lat="43.85955" lon="2.02074">
        <ele>202.494873</ele>
        <time>2011-08-27T11:24:59Z</time>
      </trkpt>
      <trkpt lat="43.85955" lon="2.02103">
        <ele>204.41748</ele>
        <time>2011-08-27T11:25:02Z</time>
      </trkpt>
      <trkpt lat="43.85961" lon="2.02149">
        <ele>206.820679</ele>
        <time>2011-08-27T11:25:07Z</time>
      </trkpt>
      <trkpt lat="43.85964" lon="2.02167">
        <ele>208.262817</ele>
        <time>2011-08-27T11:25:09Z</time>
      </trkpt>
      <trkpt lat="43.8597" lon="2.02192">
        <ele>210.185425</ele>
        <time>2011-08-27T11:25:12Z</time>
      </trkpt>
      <trkpt lat="43.85982" lon="2.02252">
        <ele>213.069336</ele>
        <time>2011-08-27T11:25:19Z</time>
      </trkpt>
      <trkpt lat="43.85983" lon="2.02368">
        <ele>211.146729</ele>
        <time>2011-08-27T11:25:33Z</time>
      </trkpt>
      <trkpt lat="43.85983" lon="2.02388">
        <ele>210.666016</ele>
        <time>2011-08-27T11:25:35Z</time>
      </trkpt>
      <trkpt lat="43.85985" lon="2.02408">
        <ele>210.666016</ele>
        <time>2011-08-27T11:25:37Z</time>
      </trkpt>
      <trkpt lat="43.86017" lon="2.02493">
        <ele>206.820679</ele>
        <time>2011-08-27T11:25:45Z</time>
      </trkpt>
      <trkpt lat="43.86039" lon="2.02539">
        <ele>203.456177</ele>
        <time>2011-08-27T11:25:49Z</time>
      </trkpt>
      <trkpt lat="43.86063" lon="2.02624">
        <ele>199.61084</ele>
        <time>2011-08-27T11:25:55Z</time>
      </trkpt>
      <trkpt lat="43.86083" lon="2.0268">
        <ele>196.726929</ele>
        <time>2011-08-27T11:25:59Z</time>
      </trkpt>
      <trkpt lat="43.86117" lon="2.02718">
        <ele>194.804321</ele>
        <time>2011-08-27T11:26:03Z</time>
      </trkpt>
      <trkpt lat="43.86136" lon="2.02729">
        <ele>194.32373</ele>
        <time>2011-08-27T11:26:05Z</time>
      </trkpt>
      <trkpt lat="43.86204" lon="2.02778">
        <ele>191.439575</ele>
        <time>2011-08-27T11:26:13Z</time>
      </trkpt>
      <trkpt lat="43.86258" lon="2.02823">
        <ele>188.075073</ele>
        <time>2011-08-27T11:26:20Z</time>
      </trkpt>
      <trkpt lat="43.86273" lon="2.02835">
        <ele>187.59436</ele>
        <time>2011-08-27T11:26:22Z</time>
      </trkpt>
      <trkpt lat="43.86294" lon="2.02875">
        <ele>184.710571</ele>
        <time>2011-08-27T11:26:26Z</time>
      </trkpt>
      <trkpt lat="43.86296" lon="2.02889">
        <ele>184.229858</ele>
        <time>2011-08-27T11:26:27Z</time>
      </trkpt>
      <trkpt lat="43.86299" lon="2.02917">
        <ele>183.749023</ele>
        <time>2011-08-27T11:26:29Z</time>
      </trkpt>
      <trkpt lat="43.86309" lon="2.03007">
        <ele>179.903809</ele>
        <time>2011-08-27T11:26:35Z</time>
      </trkpt>
      <trkpt lat="43.8631" lon="2.03022">
        <ele>179.903809</ele>
        <time>2011-08-27T11:26:36Z</time>
      </trkpt>
      <trkpt lat="43.86318" lon="2.03145">
        <ele>176.539307</ele>
        <time>2011-08-27T11:26:44Z</time>
      </trkpt>
      <trkpt lat="43.86351" lon="2.03271">
        <ele>175.09729</ele>
        <time>2011-08-27T11:26:53Z</time>
      </trkpt>
      <trkpt lat="43.86376" lon="2.0342">
        <ele>171.252075</ele>
        <time>2011-08-27T11:27:04Z</time>
      </trkpt>
      <trkpt lat="43.86406" lon="2.0363">
        <ele>169.810059</ele>
        <time>2011-08-27T11:27:21Z</time>
      </trkpt>
      <trkpt lat="43.86406" lon="2.03653">
        <ele>171.252075</ele>
        <time>2011-08-27T11:27:24Z</time>
      </trkpt>
      <trkpt lat="43.86413" lon="2.03676">
        <ele>172.69397</ele>
        <time>2011-08-27T11:27:28Z</time>
      </trkpt>
      <trkpt lat="43.8643" lon="2.03718">
        <ele>176.058594</ele>
        <time>2011-08-27T11:27:34Z</time>
      </trkpt>
      <trkpt lat="43.86443" lon="2.03744">
        <ele>178.942627</ele>
        <time>2011-08-27T11:27:38Z</time>
      </trkpt>
      <trkpt lat="43.86457" lon="2.03773">
        <ele>181.345825</ele>
        <time>2011-08-27T11:27:43Z</time>
      </trkpt>
      <trkpt lat="43.86471" lon="2.038">
        <ele>184.710571</ele>
        <time>2011-08-27T11:27:49Z</time>
      </trkpt>
      <trkpt lat="43.8648" lon="2.03818">
        <ele>188.075073</ele>
        <time>2011-08-27T11:27:53Z</time>
      </trkpt>
      <trkpt lat="43.86483" lon="2.0384">
        <ele>187.11377</ele>
        <time>2011-08-27T11:27:57Z</time>
      </trkpt>
      <trkpt lat="43.86482" lon="2.03855">
        <ele>189.516968</ele>
        <time>2011-08-27T11:28:00Z</time>
      </trkpt>
      <trkpt lat="43.86481" lon="2.0386">
        <ele>189.036377</ele>
        <time>2011-08-27T11:28:01Z</time>
      </trkpt>
      <trkpt lat="43.86478" lon="2.03897">
        <ele>192.881714</ele>
        <time>2011-08-27T11:28:08Z</time>
      </trkpt>
      <trkpt lat="43.86476" lon="2.03943">
        <ele>196.246338</ele>
        <time>2011-08-27T11:28:17Z</time>
      </trkpt>
      <trkpt lat="43.86476" lon="2.03962">
        <ele>197.688232</ele>
        <time>2011-08-27T11:28:21Z</time>
      </trkpt>
      <trkpt lat="43.86476" lon="2.03994">
        <ele>201.052856</ele>
        <time>2011-08-27T11:28:28Z</time>
      </trkpt>
      <trkpt lat="43.86477" lon="2.03999">
        <ele>201.533569</ele>
        <time>2011-08-27T11:28:29Z</time>
      </trkpt>
      <trkpt lat="43.86486" lon="2.04049">
        <ele>204.898071</ele>
        <time>2011-08-27T11:28:40Z</time>
      </trkpt>
      <trkpt lat="43.86487" lon="2.04053">
        <ele>204.898071</ele>
        <time>2011-08-27T11:28:41Z</time>
      </trkpt>
      <trkpt lat="43.86489" lon="2.04062">
        <ele>204.898071</ele>
        <time>2011-08-27T11:28:43Z</time>
      </trkpt>
      <trkpt lat="43.86527" lon="2.04057">
        <ele>203.93689</ele>
        <time>2011-08-27T11:28:51Z</time>
      </trkpt>
      <trkpt lat="43.86541" lon="2.04052">
        <ele>203.93689</ele>
        <time>2011-08-27T11:28:53Z</time>
      </trkpt>
      <trkpt lat="43.8657" lon="2.04031">
        <ele>202.014282</ele>
        <time>2011-08-27T11:28:57Z</time>
      </trkpt>
      <trkpt lat="43.86612" lon="2.03993">
        <ele>198.649536</ele>
        <time>2011-08-27T11:29:02Z</time>
      </trkpt>
      <trkpt lat="43.8665" lon="2.03963">
        <ele>193.843018</ele>
        <time>2011-08-27T11:29:06Z</time>
      </trkpt>
      <trkpt lat="43.86659" lon="2.03955">
        <ele>193.843018</ele>
        <time>2011-08-27T11:29:07Z</time>
      </trkpt>
      <trkpt lat="43.86706" lon="2.03912">
        <ele>190.478394</ele>
        <time>2011-08-27T11:29:12Z</time>
      </trkpt>
      <trkpt lat="43.86739" lon="2.03877">
        <ele>188.555786</ele>
        <time>2011-08-27T11:29:16Z</time>
      </trkpt>
      <trkpt lat="43.86802" lon="2.03809">
        <ele>185.191162</ele>
        <time>2011-08-27T11:29:24Z</time>
      </trkpt>
      <trkpt lat="43.86825" lon="2.03782">
        <ele>184.229858</ele>
        <time>2011-08-27T11:29:27Z</time>
      </trkpt>
      <trkpt lat="43.8684" lon="2.03764">
        <ele>182.787842</ele>
        <time>2011-08-27T11:29:29Z</time>
      </trkpt>
      <trkpt lat="43.869" lon="2.03702">
        <ele>179.423218</ele>
        <time>2011-08-27T11:29:37Z</time>
      </trkpt>
      <trkpt lat="43.86908" lon="2.03694">
        <ele>178.942627</ele>
        <time>2011-08-27T11:29:38Z</time>
      </trkpt>
      <trkpt lat="43.86944" lon="2.03659">
        <ele>177.50061</ele>
        <time>2011-08-27T11:29:43Z</time>
      </trkpt>
      <trkpt lat="43.86977" lon="2.03658">
        <ele>175.09729</ele>
        <time>2011-08-27T11:29:47Z</time>
      </trkpt>
      <trkpt lat="43.86985" lon="2.03664">
        <ele>174.616577</ele>
        <time>2011-08-27T11:29:48Z</time>
      </trkpt>
      <trkpt lat="43.87108" lon="2.03761">
        <ele>171.252075</ele>
        <time>2011-08-27T11:30:03Z</time>
      </trkpt>
      <trkpt lat="43.87117" lon="2.03767">
        <ele>171.252075</ele>
        <time>2011-08-27T11:30:04Z</time>
      </trkpt>
      <trkpt lat="43.87254" lon="2.03832">
        <ele>171.252075</ele>
        <time>2011-08-27T11:30:21Z</time>
      </trkpt>
      <trkpt lat="43.87327" lon="2.03846">
        <ele>173.174683</ele>
        <time>2011-08-27T11:30:33Z</time>
      </trkpt>
      <trkpt lat="43.87361" lon="2.03851">
        <ele>173.174683</ele>
        <time>2011-08-27T11:30:39Z</time>
      </trkpt>
      <trkpt lat="43.87372" lon="2.03854">
        <ele>174.135864</ele>
        <time>2011-08-27T11:30:41Z</time>
      </trkpt>
      <trkpt lat="43.87436" lon="2.03916">
        <ele>174.616577</ele>
        <time>2011-08-27T11:30:54Z</time>
      </trkpt>
      <trkpt lat="43.87498" lon="2.04">
        <ele>174.135864</ele>
        <time>2011-08-27T11:31:06Z</time>
      </trkpt>
      <trkpt lat="43.87563" lon="2.03997">
        <ele>174.135864</ele>
        <time>2011-08-27T11:31:15Z</time>
      </trkpt>
      <trkpt lat="43.87592" lon="2.03971">
        <ele>175.577881</ele>
        <time>2011-08-27T11:31:20Z</time>
      </trkpt>
      <trkpt lat="43.87628" lon="2.039">
        <ele>179.903809</ele>
        <time>2011-08-27T11:31:30Z</time>
      </trkpt>
      <trkpt lat="43.8763" lon="2.03893">
        <ele>180.384521</ele>
        <time>2011-08-27T11:31:31Z</time>
      </trkpt>
      <trkpt lat="43.87645" lon="2.03838">
        <ele>181.826416</ele>
        <time>2011-08-27T11:31:39Z</time>
      </trkpt>
      <trkpt lat="43.87664" lon="2.03749">
        <ele>184.710571</ele>
        <time>2011-08-27T11:31:52Z</time>
      </trkpt>
      <trkpt lat="43.87677" lon="2.03687">
        <ele>189.036377</ele>
        <time>2011-08-27T11:32:01Z</time>
      </trkpt>
      <trkpt lat="43.87714" lon="2.03579">
        <ele>190.478394</ele>
        <time>2011-08-27T11:32:17Z</time>
      </trkpt>
      <trkpt lat="43.87738" lon="2.0355">
        <ele>192.401123</ele>
        <time>2011-08-27T11:32:23Z</time>
      </trkpt>
      <trkpt lat="43.87763" lon="2.03537">
        <ele>193.843018</ele>
        <time>2011-08-27T11:32:28Z</time>
      </trkpt>
      <trkpt lat="43.87822" lon="2.03542">
        <ele>198.168945</ele>
        <time>2011-08-27T11:32:39Z</time>
      </trkpt>
      <trkpt lat="43.87826" lon="2.03543">
        <ele>198.168945</ele>
        <time>2011-08-27T11:32:40Z</time>
      </trkpt>
      <trkpt lat="43.87847" lon="2.03551">
        <ele>199.61084</ele>
        <time>2011-08-27T11:32:44Z</time>
      </trkpt>
      <trkpt lat="43.87902" lon="2.03573">
        <ele>202.014282</ele>
        <time>2011-08-27T11:32:55Z</time>
      </trkpt>
      <trkpt lat="43.87995" lon="2.0356">
        <ele>204.898071</ele>
        <time>2011-08-27T11:33:12Z</time>
      </trkpt>
      <trkpt lat="43.88093" lon="2.03569">
        <ele>205.859497</ele>
        <time>2011-08-27T11:33:28Z</time>
      </trkpt>
      <trkpt lat="43.88212" lon="2.03627">
        <ele>205.378784</ele>
        <time>2011-08-27T11:33:46Z</time>
      </trkpt>
      <trkpt lat="43.88305" lon="2.03705">
        <ele>208.743408</ele>
        <time>2011-08-27T11:34:01Z</time>
      </trkpt>
      <trkpt lat="43.88409" lon="2.03785">
        <ele>207.782104</ele>
        <time>2011-08-27T11:34:18Z</time>
      </trkpt>
      <trkpt lat="43.88467" lon="2.03794">
        <ele>208.262817</ele>
        <time>2011-08-27T11:34:26Z</time>
      </trkpt>
      <trkpt lat="43.88507" lon="2.03826">
        <ele>207.301392</ele>
        <time>2011-08-27T11:34:32Z</time>
      </trkpt>
      <trkpt lat="43.88516" lon="2.03843">
        <ele>207.301392</ele>
        <time>2011-08-27T11:34:34Z</time>
      </trkpt>
      <trkpt lat="43.88597" lon="2.0396">
        <ele>206.820679</ele>
        <time>2011-08-27T11:34:49Z</time>
      </trkpt>
      <trkpt lat="43.88604" lon="2.03964">
        <ele>207.301392</ele>
        <time>2011-08-27T11:34:50Z</time>
      </trkpt>
      <trkpt lat="43.88705" lon="2.03987">
        <ele>203.456177</ele>
        <time>2011-08-27T11:35:03Z</time>
      </trkpt>
      <trkpt lat="43.88722" lon="2.0399">
        <ele>202.975464</ele>
        <time>2011-08-27T11:35:05Z</time>
      </trkpt>
      <trkpt lat="43.88808" lon="2.03984">
        <ele>199.61084</ele>
        <time>2011-08-27T11:35:14Z</time>
      </trkpt>
      <trkpt lat="43.88818" lon="2.03982">
        <ele>199.130127</ele>
        <time>2011-08-27T11:35:15Z</time>
      </trkpt>
      <trkpt lat="43.88859" lon="2.03973">
        <ele>196.726929</ele>
        <time>2011-08-27T11:35:19Z</time>
      </trkpt>
      <trkpt lat="43.88907" lon="2.03953">
        <ele>192.881714</ele>
        <time>2011-08-27T11:35:24Z</time>
      </trkpt>
      <trkpt lat="43.88917" lon="2.03949">
        <ele>192.881714</ele>
        <time>2011-08-27T11:35:25Z</time>
      </trkpt>
      <trkpt lat="43.88974" lon="2.03916">
        <ele>189.516968</ele>
        <time>2011-08-27T11:35:31Z</time>
      </trkpt>
      <trkpt lat="43.88994" lon="2.03903">
        <ele>189.036377</ele>
        <time>2011-08-27T11:35:33Z</time>
      </trkpt>
      <trkpt lat="43.89044" lon="2.03877">
        <ele>185.671753</ele>
        <time>2011-08-27T11:35:38Z</time>
      </trkpt>
      <trkpt lat="43.89077" lon="2.03867">
        <ele>184.229858</ele>
        <time>2011-08-27T11:35:41Z</time>
      </trkpt>
      <trkpt lat="43.89119" lon="2.03857">
        <ele>181.826416</ele>
        <time>2011-08-27T11:35:45Z</time>
      </trkpt>
      <trkpt lat="43.89172" lon="2.03832">
        <ele>179.903809</ele>
        <time>2011-08-27T11:35:50Z</time>
      </trkpt>
      <trkpt lat="43.89191" lon="2.03817">
        <ele>178.942627</ele>
        <time>2011-08-27T11:35:52Z</time>
      </trkpt>
      <trkpt lat="43.89231" lon="2.03754">
        <ele>176.058594</ele>
        <time>2011-08-27T11:35:58Z</time>
      </trkpt>
      <trkpt lat="43.89247" lon="2.03721">
        <ele>173.655273</ele>
        <time>2011-08-27T11:36:01Z</time>
      </trkpt>
      <trkpt lat="43.89259" lon="2.03701">
        <ele>172.213257</ele>
        <time>2011-08-27T11:36:03Z</time>
      </trkpt>
      <trkpt lat="43.89291" lon="2.03671">
        <ele>171.252075</ele>
        <time>2011-08-27T11:36:07Z</time>
      </trkpt>
      <trkpt lat="43.89339" lon="2.03656">
        <ele>170.771362</ele>
        <time>2011-08-27T11:36:12Z</time>
      </trkpt>
      <trkpt lat="43.89491" lon="2.03667">
        <ele>167.887329</ele>
        <time>2011-08-27T11:36:27Z</time>
      </trkpt>
      <trkpt lat="43.89696" lon="2.0368">
        <ele>164.522705</ele>
        <time>2011-08-27T11:36:50Z</time>
      </trkpt>
      <trkpt lat="43.89843" lon="2.03674">
        <ele>164.042114</ele>
        <time>2011-08-27T11:37:08Z</time>
      </trkpt>
      <trkpt lat="43.9002" lon="2.03637">
        <ele>161.638916</ele>
        <time>2011-08-27T11:37:31Z</time>
      </trkpt>
      <trkpt lat="43.90144" lon="2.03563">
        <ele>163.080811</ele>
        <time>2011-08-27T11:37:47Z</time>
      </trkpt>
      <trkpt lat="43.90217" lon="2.03522">
        <ele>164.042114</ele>
        <time>2011-08-27T11:37:58Z</time>
      </trkpt>
      <trkpt lat="43.90243" lon="2.03504">
        <ele>166.926025</ele>
        <time>2011-08-27T11:38:02Z</time>
      </trkpt>
      <trkpt lat="43.9027" lon="2.03489">
        <ele>163.561523</ele>
        <time>2011-08-27T11:38:06Z</time>
      </trkpt>
      <trkpt lat="43.90349" lon="2.03473">
        <ele>160.196899</ele>
        <time>2011-08-27T11:38:16Z</time>
      </trkpt>
      <trkpt lat="43.90367" lon="2.03476">
        <ele>159.235474</ele>
        <time>2011-08-27T11:38:18Z</time>
      </trkpt>
      <trkpt lat="43.90464" lon="2.03495">
        <ele>156.832153</ele>
        <time>2011-08-27T11:38:28Z</time>
      </trkpt>
      <trkpt lat="43.90563" lon="2.0346">
        <ele>155.870972</ele>
        <time>2011-08-27T11:38:40Z</time>
      </trkpt>
      <trkpt lat="43.90766" lon="2.03352">
        <ele>155.390259</ele>
        <time>2011-08-27T11:39:07Z</time>
      </trkpt>
      <trkpt lat="43.90911" lon="2.03268">
        <ele>153.948364</ele>
        <time>2011-08-27T11:39:27Z</time>
      </trkpt>
      <trkpt lat="43.90931" lon="2.0326">
        <ele>152.506348</ele>
        <time>2011-08-27T11:39:31Z</time>
      </trkpt>
      <trkpt lat="43.91004" lon="2.03212">
        <ele>152.986938</ele>
        <time>2011-08-27T11:39:44Z</time>
      </trkpt>
      <trkpt lat="43.91011" lon="2.03209">
        <ele>153.948364</ele>
        <time>2011-08-27T11:39:45Z</time>
      </trkpt>
      <trkpt lat="43.91089" lon="2.03158">
        <ele>152.025757</ele>
        <time>2011-08-27T11:39:56Z</time>
      </trkpt>
      <trkpt lat="43.91194" lon="2.03088">
        <ele>151.064209</ele>
        <time>2011-08-27T11:40:10Z</time>
      </trkpt>
      <trkpt lat="43.91227" lon="2.03054">
        <ele>151.064209</ele>
        <time>2011-08-27T11:40:15Z</time>
      </trkpt>
      <trkpt lat="43.91348" lon="2.02941">
        <ele>150.103027</ele>
        <time>2011-08-27T11:40:33Z</time>
      </trkpt>
      <trkpt lat="43.91377" lon="2.02932">
        <ele>149.141602</ele>
        <time>2011-08-27T11:40:37Z</time>
      </trkpt>
      <trkpt lat="43.91559" lon="2.02957">
        <ele>149.622314</ele>
        <time>2011-08-27T11:40:59Z</time>
      </trkpt>
      <trkpt lat="43.91679" lon="2.02965">
        <ele>149.622314</ele>
        <time>2011-08-27T11:41:14Z</time>
      </trkpt>
      <trkpt lat="43.91702" lon="2.02968">
        <ele>150.103027</ele>
        <time>2011-08-27T11:41:17Z</time>
      </trkpt>
      <trkpt lat="43.91751" lon="2.02972">
        <ele>149.141602</ele>
        <time>2011-08-27T11:41:24Z</time>
      </trkpt>
      <trkpt lat="43.91769" lon="2.02978">
        <ele>148.661011</ele>
        <time>2011-08-27T11:41:28Z</time>
      </trkpt>
      <trkpt lat="43.91787" lon="2.02974">
        <ele>149.622314</ele>
        <time>2011-08-27T11:41:32Z</time>
      </trkpt>
      <trkpt lat="43.91803" lon="2.02958">
        <ele>149.141602</ele>
        <time>2011-08-27T11:41:35Z</time>
      </trkpt>
      <trkpt lat="43.91814" lon="2.0295">
        <ele>150.103027</ele>
        <time>2011-08-27T11:41:37Z</time>
      </trkpt>
      <trkpt lat="43.91841" lon="2.02933">
        <ele>149.141602</ele>
        <time>2011-08-27T11:41:41Z</time>
      </trkpt>
      <trkpt lat="43.91954" lon="2.02866">
        <ele>148.18042</ele>
        <time>2011-08-27T11:41:56Z</time>
      </trkpt>
      <trkpt lat="43.92054" lon="2.02808">
        <ele>149.141602</ele>
        <time>2011-08-27T11:42:10Z</time>
      </trkpt>
      <trkpt lat="43.92084" lon="2.02744">
        <ele>149.141602</ele>
        <time>2011-08-27T11:42:18Z</time>
      </trkpt>
      <trkpt lat="43.92079" lon="2.0263">
        <ele>150.583618</ele>
        <time>2011-08-27T11:42:30Z</time>
      </trkpt>
      <trkpt lat="43.92101" lon="2.02614">
        <ele>151.544922</ele>
        <time>2011-08-27T11:42:36Z</time>
      </trkpt>
      <trkpt lat="43.92101" lon="2.02637">
        <ele>152.506348</ele>
        <time>2011-08-27T11:42:39Z</time>
      </trkpt>
      <trkpt lat="43.92097" lon="2.02654">
        <ele>153.467651</ele>
        <time>2011-08-27T11:42:41Z</time>
      </trkpt>
      <trkpt lat="43.92105" lon="2.02696">
        <ele>155.870972</ele>
        <time>2011-08-27T11:42:46Z</time>
      </trkpt>
      <trkpt lat="43.92147" lon="2.02772">
        <ele>161.158203</ele>
        <time>2011-08-27T11:42:57Z</time>
      </trkpt>
      <trkpt lat="43.92179" lon="2.02823">
        <ele>164.522705</ele>
        <time>2011-08-27T11:43:05Z</time>
      </trkpt>
      <trkpt lat="43.92219" lon="2.0293">
        <ele>167.406738</ele>
        <time>2011-08-27T11:43:20Z</time>
      </trkpt>
      <trkpt lat="43.92234" lon="2.02993">
        <ele>168.848755</ele>
        <time>2011-08-27T11:43:27Z</time>
      </trkpt>
      <trkpt lat="43.92239" lon="2.03018">
        <ele>168.848755</ele>
        <time>2011-08-27T11:43:30Z</time>
      </trkpt>
      <trkpt lat="43.92241" lon="2.03036">
        <ele>167.887329</ele>
        <time>2011-08-27T11:43:32Z</time>
      </trkpt>
      <trkpt lat="43.92271" lon="2.03214">
        <ele>166.445313</ele>
        <time>2011-08-27T11:43:50Z</time>
      </trkpt>
      <trkpt lat="43.92276" lon="2.03244">
        <ele>165.964722</ele>
        <time>2011-08-27T11:43:53Z</time>
      </trkpt>
      <trkpt lat="43.92277" lon="2.03295">
        <ele>165.484131</ele>
        <time>2011-08-27T11:43:58Z</time>
      </trkpt>
      <trkpt lat="43.92284" lon="2.03339">
        <ele>165.003418</ele>
        <time>2011-08-27T11:44:02Z</time>
      </trkpt>
      <trkpt lat="43.92334" lon="2.03431">
        <ele>161.158203</ele>
        <time>2011-08-27T11:44:11Z</time>
      </trkpt>
      <trkpt lat="43.92355" lon="2.03465">
        <ele>160.196899</ele>
        <time>2011-08-27T11:44:14Z</time>
      </trkpt>
      <trkpt lat="43.92385" lon="2.03585">
        <ele>161.158203</ele>
        <time>2011-08-27T11:44:24Z</time>
      </trkpt>
      <trkpt lat="43.92405" lon="2.03666">
        <ele>164.522705</ele>
        <time>2011-08-27T11:44:32Z</time>
      </trkpt>
      <trkpt lat="43.92407" lon="2.03676">
        <ele>165.003418</ele>
        <time>2011-08-27T11:44:33Z</time>
      </trkpt>
      <trkpt lat="43.92415" lon="2.03704">
        <ele>166.445313</ele>
        <time>2011-08-27T11:44:36Z</time>
      </trkpt>
      <trkpt lat="43.92446" lon="2.03794">
        <ele>169.329468</ele>
        <time>2011-08-27T11:44:47Z</time>
      </trkpt>
      <trkpt lat="43.92455" lon="2.03817">
        <ele>168.848755</ele>
        <time>2011-08-27T11:44:50Z</time>
      </trkpt>
      <trkpt lat="43.92504" lon="2.03945">
        <ele>166.926025</ele>
        <time>2011-08-27T11:45:06Z</time>
      </trkpt>
      <trkpt lat="43.92548" lon="2.04028">
        <ele>163.561523</ele>
        <time>2011-08-27T11:45:15Z</time>
      </trkpt>
      <trkpt lat="43.9257" lon="2.04064">
        <ele>161.158203</ele>
        <time>2011-08-27T11:45:19Z</time>
      </trkpt>
      <trkpt lat="43.92598" lon="2.04101">
        <ele>159.235474</ele>
        <time>2011-08-27T11:45:23Z</time>
      </trkpt>
      <trkpt lat="43.9262" lon="2.04148">
        <ele>157.793579</ele>
        <time>2011-08-27T11:45:27Z</time>
      </trkpt>
      <trkpt lat="43.92627" lon="2.04174">
        <ele>156.832153</ele>
        <time>2011-08-27T11:45:29Z</time>
      </trkpt>
      <trkpt lat="43.92654" lon="2.04295">
        <ele>153.467651</ele>
        <time>2011-08-27T11:45:38Z</time>
      </trkpt>
      <trkpt lat="43.92672" lon="2.04435">
        <ele>155.870972</ele>
        <time>2011-08-27T11:45:51Z</time>
      </trkpt>
      <trkpt lat="43.92673" lon="2.04461">
        <ele>156.351563</ele>
        <time>2011-08-27T11:45:54Z</time>
      </trkpt>
      <trkpt lat="43.92677" lon="2.04485">
        <ele>157.312866</ele>
        <time>2011-08-27T11:45:57Z</time>
      </trkpt>
      <trkpt lat="43.92678" lon="2.04501">
        <ele>157.312866</ele>
        <time>2011-08-27T11:45:59Z</time>
      </trkpt>
      <trkpt lat="43.92687" lon="2.04571">
        <ele>160.196899</ele>
        <time>2011-08-27T11:46:07Z</time>
      </trkpt>
      <trkpt lat="43.92699" lon="2.04644">
        <ele>162.119507</ele>
        <time>2011-08-27T11:46:16Z</time>
      </trkpt>
      <trkpt lat="43.927" lon="2.04652">
        <ele>162.119507</ele>
        <time>2011-08-27T11:46:17Z</time>
      </trkpt>
      <trkpt lat="43.92701" lon="2.04686">
        <ele>163.561523</ele>
        <time>2011-08-27T11:46:21Z</time>
      </trkpt>
      <trkpt lat="43.92687" lon="2.04834">
        <ele>161.158203</ele>
        <time>2011-08-27T11:46:36Z</time>
      </trkpt>
      <trkpt lat="43.92686" lon="2.0487">
        <ele>160.196899</ele>
        <time>2011-08-27T11:46:39Z</time>
      </trkpt>
      <trkpt lat="43.92689" lon="2.04893">
        <ele>159.716187</ele>
        <time>2011-08-27T11:46:41Z</time>
      </trkpt>
      <trkpt lat="43.92702" lon="2.04966">
        <ele>157.793579</ele>
        <time>2011-08-27T11:46:47Z</time>
      </trkpt>
      <trkpt lat="43.92747" lon="2.05085">
        <ele>155.870972</ele>
        <time>2011-08-27T11:46:58Z</time>
      </trkpt>
      <trkpt lat="43.92829" lon="2.05211">
        <ele>157.793579</ele>
        <time>2011-08-27T11:47:14Z</time>
      </trkpt>
      <trkpt lat="43.92872" lon="2.05298">
        <ele>160.196899</ele>
        <time>2011-08-27T11:47:25Z</time>
      </trkpt>
      <trkpt lat="43.92893" lon="2.05319">
        <ele>160.67749</ele>
        <time>2011-08-27T11:47:29Z</time>
      </trkpt>
      <trkpt lat="43.92916" lon="2.05329">
        <ele>162.119507</ele>
        <time>2011-08-27T11:47:33Z</time>
      </trkpt>
      <trkpt lat="43.92934" lon="2.05331">
        <ele>163.561523</ele>
        <time>2011-08-27T11:47:36Z</time>
      </trkpt>
      <trkpt lat="43.92966" lon="2.05323">
        <ele>165.484131</ele>
        <time>2011-08-27T11:47:42Z</time>
      </trkpt>
      <trkpt lat="43.92986" lon="2.05312">
        <ele>165.003418</ele>
        <time>2011-08-27T11:47:46Z</time>
      </trkpt>
      <trkpt lat="43.93016" lon="2.05298">
        <ele>166.926025</ele>
        <time>2011-08-27T11:47:52Z</time>
      </trkpt>
      <trkpt lat="43.93026" lon="2.05294">
        <ele>167.887329</ele>
        <time>2011-08-27T11:47:54Z</time>
      </trkpt>
      <trkpt lat="43.93073" lon="2.05289">
        <ele>169.810059</ele>
        <time>2011-08-27T11:48:03Z</time>
      </trkpt>
      <trkpt lat="43.93107" lon="2.05298">
        <ele>171.252075</ele>
        <time>2011-08-27T11:48:09Z</time>
      </trkpt>
      <trkpt lat="43.93167" lon="2.05346">
        <ele>174.616577</ele>
        <time>2011-08-27T11:48:21Z</time>
      </trkpt>
      <trkpt lat="43.93197" lon="2.0539">
        <ele>175.577881</ele>
        <time>2011-08-27T11:48:29Z</time>
      </trkpt>
      <trkpt lat="43.93204" lon="2.05425">
        <ele>176.058594</ele>
        <time>2011-08-27T11:48:34Z</time>
      </trkpt>
      <trkpt lat="43.93214" lon="2.05508">
        <ele>177.981201</ele>
        <time>2011-08-27T11:48:45Z</time>
      </trkpt>
      <trkpt lat="43.93235" lon="2.05538">
        <ele>179.423218</ele>
        <time>2011-08-27T11:48:51Z</time>
      </trkpt>
      <trkpt lat="43.93248" lon="2.05549">
        <ele>180.384521</ele>
        <time>2011-08-27T11:48:54Z</time>
      </trkpt>
      <trkpt lat="43.93268" lon="2.0556">
        <ele>180.865234</ele>
        <time>2011-08-27T11:48:58Z</time>
      </trkpt>
      <trkpt lat="43.93346" lon="2.05562">
        <ele>185.191162</ele>
        <time>2011-08-27T11:49:11Z</time>
      </trkpt>
      <trkpt lat="43.93399" lon="2.05563">
        <ele>188.075073</ele>
        <time>2011-08-27T11:49:20Z</time>
      </trkpt>
      <trkpt lat="43.93419" lon="2.05578">
        <ele>189.516968</ele>
        <time>2011-08-27T11:49:24Z</time>
      </trkpt>
      <trkpt lat="43.93427" lon="2.05588">
        <ele>190.958984</ele>
        <time>2011-08-27T11:49:26Z</time>
      </trkpt>
      <trkpt lat="43.93448" lon="2.05628">
        <ele>191.439575</ele>
        <time>2011-08-27T11:49:33Z</time>
      </trkpt>
      <trkpt lat="43.93508" lon="2.05703">
        <ele>194.32373</ele>
        <time>2011-08-27T11:49:49Z</time>
      </trkpt>
      <trkpt lat="43.93524" lon="2.05721">
        <ele>195.765625</ele>
        <time>2011-08-27T11:49:53Z</time>
      </trkpt>
      <trkpt lat="43.93544" lon="2.0574">
        <ele>195.765625</ele>
        <time>2011-08-27T11:49:57Z</time>
      </trkpt>
      <trkpt lat="43.93592" lon="2.0576">
        <ele>198.168945</ele>
        <time>2011-08-27T11:50:05Z</time>
      </trkpt>
      <trkpt lat="43.9361" lon="2.05765">
        <ele>199.61084</ele>
        <time>2011-08-27T11:50:08Z</time>
      </trkpt>
      <trkpt lat="43.93628" lon="2.05766">
        <ele>200.572266</ele>
        <time>2011-08-27T11:50:11Z</time>
      </trkpt>
      <trkpt lat="43.93672" lon="2.05769">
        <ele>203.93689</ele>
        <time>2011-08-27T11:50:19Z</time>
      </trkpt>
      <trkpt lat="43.93698" lon="2.05773">
        <ele>203.456177</ele>
        <time>2011-08-27T11:50:24Z</time>
      </trkpt>
      <trkpt lat="43.93712" lon="2.0578">
        <ele>205.378784</ele>
        <time>2011-08-27T11:50:27Z</time>
      </trkpt>
      <trkpt lat="43.93716" lon="2.05783">
        <ele>203.93689</ele>
        <time>2011-08-27T11:50:28Z</time>
      </trkpt>
      <trkpt lat="43.93758" lon="2.05848">
        <ele>208.262817</ele>
        <time>2011-08-27T11:50:40Z</time>
      </trkpt>
      <trkpt lat="43.93791" lon="2.05929">
        <ele>212.108032</ele>
        <time>2011-08-27T11:50:51Z</time>
      </trkpt>
      <trkpt lat="43.93794" lon="2.05936">
        <ele>211.627441</ele>
        <time>2011-08-27T11:50:52Z</time>
      </trkpt>
      <trkpt lat="43.93802" lon="2.0602">
        <ele>217.875977</ele>
        <time>2011-08-27T11:51:04Z</time>
      </trkpt>
      <trkpt lat="43.93805" lon="2.0606">
        <ele>218.356567</ele>
        <time>2011-08-27T11:51:11Z</time>
      </trkpt>
      <trkpt lat="43.93812" lon="2.06063">
        <ele>219.798584</ele>
        <time>2011-08-27T11:51:14Z</time>
      </trkpt>
      <trkpt lat="43.93814" lon="2.06059">
        <ele>219.798584</ele>
        <time>2011-08-27T11:51:15Z</time>
      </trkpt>
      <trkpt lat="43.93816" lon="2.0605">
        <ele>218.356567</ele>
        <time>2011-08-27T11:51:17Z</time>
      </trkpt>
      <trkpt lat="43.93814" lon="2.06054">
        <ele>218.356567</ele>
        <time>2011-08-27T11:51:22Z</time>
      </trkpt>
      <trkpt lat="43.93807" lon="2.06082">
        <ele>218.356567</ele>
        <time>2011-08-27T11:51:27Z</time>
      </trkpt>
      <trkpt lat="43.93805" lon="2.06105">
        <ele>219.798584</ele>
        <time>2011-08-27T11:51:30Z</time>
      </trkpt>
      <trkpt lat="43.93803" lon="2.06153">
        <ele>220.759888</ele>
        <time>2011-08-27T11:51:36Z</time>
      </trkpt>
      <trkpt lat="43.93837" lon="2.06263">
        <ele>221.240601</ele>
        <time>2011-08-27T11:51:49Z</time>
      </trkpt>
      <trkpt lat="43.93867" lon="2.06288">
        <ele>220.279175</ele>
        <time>2011-08-27T11:51:54Z</time>
      </trkpt>
      <trkpt lat="43.9392" lon="2.06316">
        <ele>217.875977</ele>
        <time>2011-08-27T11:52:01Z</time>
      </trkpt>
      <trkpt lat="43.93959" lon="2.06367">
        <ele>218.356567</ele>
        <time>2011-08-27T11:52:08Z</time>
      </trkpt>
      <trkpt lat="43.94014" lon="2.06488">
        <ele>218.356567</ele>
        <time>2011-08-27T11:52:21Z</time>
      </trkpt>
      <trkpt lat="43.94025" lon="2.06503">
        <ele>219.317993</ele>
        <time>2011-08-27T11:52:23Z</time>
      </trkpt>
      <trkpt lat="43.94069" lon="2.0651">
        <ele>218.83728</ele>
        <time>2011-08-27T11:52:29Z</time>
      </trkpt>
      <trkpt lat="43.94158" lon="2.06491">
        <ele>216.914673</ele>
        <time>2011-08-27T11:52:43Z</time>
      </trkpt>
      <trkpt lat="43.94166" lon="2.06475">
        <ele>217.875977</ele>
        <time>2011-08-27T11:52:47Z</time>
      </trkpt>
      <trkpt lat="43.94164" lon="2.06452">
        <ele>218.356567</ele>
        <time>2011-08-27T11:52:50Z</time>
      </trkpt>
      <trkpt lat="43.94173" lon="2.0632">
        <ele>215.472656</ele>
        <time>2011-08-27T11:53:02Z</time>
      </trkpt>
      <trkpt lat="43.94174" lon="2.06308">
        <ele>215.953247</ele>
        <time>2011-08-27T11:53:03Z</time>
      </trkpt>
      <trkpt lat="43.9418" lon="2.06246">
        <ele>213.069336</ele>
        <time>2011-08-27T11:53:08Z</time>
      </trkpt>
      <trkpt lat="43.94207" lon="2.06117">
        <ele>210.185425</ele>
        <time>2011-08-27T11:53:18Z</time>
      </trkpt>
      <trkpt lat="43.9421" lon="2.06104">
        <ele>209.704834</ele>
        <time>2011-08-27T11:53:19Z</time>
      </trkpt>
      <trkpt lat="43.9423" lon="2.06027">
        <ele>207.301392</ele>
        <time>2011-08-27T11:53:25Z</time>
      </trkpt>
      <trkpt lat="43.94255" lon="2.05831">
        <ele>203.93689</ele>
        <time>2011-08-27T11:53:40Z</time>
      </trkpt>
      <trkpt lat="43.94256" lon="2.05818">
        <ele>203.456177</ele>
        <time>2011-08-27T11:53:41Z</time>
      </trkpt>
      <trkpt lat="43.94268" lon="2.05681">
        <ele>201.052856</ele>
        <time>2011-08-27T11:53:52Z</time>
      </trkpt>
      <trkpt lat="43.94295" lon="2.05503">
        <ele>198.168945</ele>
        <time>2011-08-27T11:54:06Z</time>
      </trkpt>
      <trkpt lat="43.94317" lon="2.05365">
        <ele>196.246338</ele>
        <time>2011-08-27T11:54:17Z</time>
      </trkpt>
      <trkpt lat="43.94317" lon="2.05255">
        <ele>198.168945</ele>
        <time>2011-08-27T11:54:27Z</time>
      </trkpt>
      <trkpt lat="43.94326" lon="2.05214">
        <ele>197.688232</ele>
        <time>2011-08-27T11:54:31Z</time>
      </trkpt>
      <trkpt lat="43.94359" lon="2.05138">
        <ele>193.843018</ele>
        <time>2011-08-27T11:54:39Z</time>
      </trkpt>
      <trkpt lat="43.94434" lon="2.05019">
        <ele>193.843018</ele>
        <time>2011-08-27T11:54:53Z</time>
      </trkpt>
      <trkpt lat="43.94441" lon="2.05004">
        <ele>194.32373</ele>
        <time>2011-08-27T11:54:55Z</time>
      </trkpt>
      <trkpt lat="43.94472" lon="2.04942">
        <ele>196.246338</ele>
        <time>2011-08-27T11:55:04Z</time>
      </trkpt>
      <trkpt lat="43.94482" lon="2.04905">
        <ele>197.688232</ele>
        <time>2011-08-27T11:55:09Z</time>
      </trkpt>
      <trkpt lat="43.94486" lon="2.04867">
        <ele>199.130127</ele>
        <time>2011-08-27T11:55:14Z</time>
      </trkpt>
      <trkpt lat="43.94483" lon="2.04828">
        <ele>201.533569</ele>
        <time>2011-08-27T11:55:19Z</time>
      </trkpt>
      <trkpt lat="43.94473" lon="2.04724">
        <ele>201.052856</ele>
        <time>2011-08-27T11:55:31Z</time>
      </trkpt>
      <trkpt lat="43.94422" lon="2.04646">
        <ele>204.41748</ele>
        <time>2011-08-27T11:55:44Z</time>
      </trkpt>
      <trkpt lat="43.94397" lon="2.04617">
        <ele>207.301392</ele>
        <time>2011-08-27T11:55:50Z</time>
      </trkpt>
      <trkpt lat="43.94381" lon="2.04569">
        <ele>208.743408</ele>
        <time>2011-08-27T11:55:57Z</time>
      </trkpt>
      <trkpt lat="43.94377" lon="2.04439">
        <ele>211.146729</ele>
        <time>2011-08-27T11:56:12Z</time>
      </trkpt>
      <trkpt lat="43.94382" lon="2.04406">
        <ele>212.108032</ele>
        <time>2011-08-27T11:56:16Z</time>
      </trkpt>
      <trkpt lat="43.9436" lon="2.0438">
        <ele>209.704834</ele>
        <time>2011-08-27T11:56:22Z</time>
      </trkpt>
      <trkpt lat="43.94353" lon="2.04382">
        <ele>209.704834</ele>
        <time>2011-08-27T11:56:23Z</time>
      </trkpt>
      <trkpt lat="43.94337" lon="2.04385">
        <ele>209.224121</ele>
        <time>2011-08-27T11:56:25Z</time>
      </trkpt>
      <trkpt lat="43.94301" lon="2.04383">
        <ele>207.782104</ele>
        <time>2011-08-27T11:56:29Z</time>
      </trkpt>
      <trkpt lat="43.94253" lon="2.04364">
        <ele>205.378784</ele>
        <time>2011-08-27T11:56:34Z</time>
      </trkpt>
      <trkpt lat="43.94243" lon="2.04359">
        <ele>204.41748</ele>
        <time>2011-08-27T11:56:35Z</time>
      </trkpt>
      <trkpt lat="43.94222" lon="2.04305">
        <ele>203.456177</ele>
        <time>2011-08-27T11:56:40Z</time>
      </trkpt>
      <trkpt lat="43.94223" lon="2.04267">
        <ele>203.456177</ele>
        <time>2011-08-27T11:56:43Z</time>
      </trkpt>
      <trkpt lat="43.94231" lon="2.04223">
        <ele>204.41748</ele>
        <time>2011-08-27T11:56:47Z</time>
      </trkpt>
      <trkpt lat="43.94253" lon="2.04131">
        <ele>207.301392</ele>
        <time>2011-08-27T11:56:56Z</time>
      </trkpt>
      <trkpt lat="43.94255" lon="2.0411">
        <ele>206.820679</ele>
        <time>2011-08-27T11:56:58Z</time>
      </trkpt>
      <trkpt lat="43.94226" lon="2.03991">
        <ele>206.340088</ele>
        <time>2011-08-27T11:57:10Z</time>
      </trkpt>
      <trkpt lat="43.94186" lon="2.0381">
        <ele>203.93689</ele>
        <time>2011-08-27T11:57:27Z</time>
      </trkpt>
      <trkpt lat="43.94172" lon="2.03625">
        <ele>204.898071</ele>
        <time>2011-08-27T11:57:45Z</time>
      </trkpt>
      <trkpt lat="43.94152" lon="2.03441">
        <ele>202.975464</ele>
        <time>2011-08-27T11:58:02Z</time>
      </trkpt>
      <trkpt lat="43.94169" lon="2.03257">
        <ele>200.091675</ele>
        <time>2011-08-27T11:58:19Z</time>
      </trkpt>
      <trkpt lat="43.94172" lon="2.03155">
        <ele>199.130127</ele>
        <time>2011-08-27T11:58:28Z</time>
      </trkpt>
      <trkpt lat="43.94164" lon="2.03111">
        <ele>198.649536</ele>
        <time>2011-08-27T11:58:32Z</time>
      </trkpt>
      <trkpt lat="43.94089" lon="2.02923">
        <ele>197.688232</ele>
        <time>2011-08-27T11:58:50Z</time>
      </trkpt>
      <trkpt lat="43.93992" lon="2.02747">
        <ele>196.726929</ele>
        <time>2011-08-27T11:59:07Z</time>
      </trkpt>
      <trkpt lat="43.93873" lon="2.02624">
        <ele>193.843018</ele>
        <time>2011-08-27T11:59:23Z</time>
      </trkpt>
      <trkpt lat="43.93789" lon="2.02496">
        <ele>192.881714</ele>
        <time>2011-08-27T11:59:36Z</time>
      </trkpt>
      <trkpt lat="43.93783" lon="2.02428">
        <ele>193.362305</ele>
        <time>2011-08-27T11:59:42Z</time>
      </trkpt>
      <trkpt lat="43.93788" lon="2.02405">
        <ele>193.362305</ele>
        <time>2011-08-27T11:59:44Z</time>
      </trkpt>
      <trkpt lat="43.93772" lon="2.02345">
        <ele>193.362305</ele>
        <time>2011-08-27T11:59:50Z</time>
      </trkpt>
      <trkpt lat="43.93671" lon="2.02264">
        <ele>195.765625</ele>
        <time>2011-08-27T12:00:06Z</time>
      </trkpt>
      <trkpt lat="43.93552" lon="2.02162">
        <ele>195.765625</ele>
        <time>2011-08-27T12:00:25Z</time>
      </trkpt>
      <trkpt lat="43.93415" lon="2.02025">
        <ele>198.649536</ele>
        <time>2011-08-27T12:00:48Z</time>
      </trkpt>
      <trkpt lat="43.93315" lon="2.01931">
        <ele>195.284912</ele>
        <time>2011-08-27T12:01:04Z</time>
      </trkpt>
      <trkpt lat="43.93212" lon="2.0184">
        <ele>191.920288</ele>
        <time>2011-08-27T12:01:17Z</time>
      </trkpt>
      <trkpt lat="43.93169" lon="2.01808">
        <ele>190.958984</ele>
        <time>2011-08-27T12:01:22Z</time>
      </trkpt>
      <trkpt lat="43.93132" lon="2.01747">
        <ele>189.997681</ele>
        <time>2011-08-27T12:01:28Z</time>
      </trkpt>
      <trkpt lat="43.93123" lon="2.01722">
        <ele>188.555786</ele>
        <time>2011-08-27T12:01:30Z</time>
      </trkpt>
      <trkpt lat="43.93086" lon="2.01674">
        <ele>184.229858</ele>
        <time>2011-08-27T12:01:35Z</time>
      </trkpt>
      <trkpt lat="43.93055" lon="2.01666">
        <ele>183.268433</ele>
        <time>2011-08-27T12:01:38Z</time>
      </trkpt>
      <trkpt lat="43.93034" lon="2.01663">
        <ele>182.307129</ele>
        <time>2011-08-27T12:01:40Z</time>
      </trkpt>
      <trkpt lat="43.93" lon="2.01619">
        <ele>181.345825</ele>
        <time>2011-08-27T12:01:45Z</time>
      </trkpt>
      <trkpt lat="43.92963" lon="2.01471">
        <ele>179.423218</ele>
        <time>2011-08-27T12:01:57Z</time>
      </trkpt>
      <trkpt lat="43.9296" lon="2.01391">
        <ele>182.787842</ele>
        <time>2011-08-27T12:02:04Z</time>
      </trkpt>
      <trkpt lat="43.92958" lon="2.01325">
        <ele>183.749023</ele>
        <time>2011-08-27T12:02:11Z</time>
      </trkpt>
      <trkpt lat="43.92982" lon="2.01291">
        <ele>186.633179</ele>
        <time>2011-08-27T12:02:18Z</time>
      </trkpt>
      <trkpt lat="43.92988" lon="2.01291">
        <ele>187.11377</ele>
        <time>2011-08-27T12:02:19Z</time>
      </trkpt>
      <trkpt lat="43.93" lon="2.01289">
        <ele>186.152466</ele>
        <time>2011-08-27T12:02:21Z</time>
      </trkpt>
      <trkpt lat="43.93024" lon="2.01259">
        <ele>188.075073</ele>
        <time>2011-08-27T12:02:27Z</time>
      </trkpt>
      <trkpt lat="43.93061" lon="2.01117">
        <ele>187.59436</ele>
        <time>2011-08-27T12:02:42Z</time>
      </trkpt>
      <trkpt lat="43.93065" lon="2.01065">
        <ele>187.11377</ele>
        <time>2011-08-27T12:02:47Z</time>
      </trkpt>
      <trkpt lat="43.93045" lon="2.00942">
        <ele>183.749023</ele>
        <time>2011-08-27T12:02:58Z</time>
      </trkpt>
      <trkpt lat="43.9303" lon="2.00882">
        <ele>181.826416</ele>
        <time>2011-08-27T12:03:03Z</time>
      </trkpt>
      <trkpt lat="43.93029" lon="2.00817">
        <ele>180.865234</ele>
        <time>2011-08-27T12:03:08Z</time>
      </trkpt>
      <trkpt lat="43.93069" lon="2.00631">
        <ele>178.461914</ele>
        <time>2011-08-27T12:03:24Z</time>
      </trkpt>
      <trkpt lat="43.93072" lon="2.0062">
        <ele>178.461914</ele>
        <time>2011-08-27T12:03:25Z</time>
      </trkpt>
      <trkpt lat="43.93102" lon="2.00561">
        <ele>178.942627</ele>
        <time>2011-08-27T12:03:31Z</time>
      </trkpt>
      <trkpt lat="43.93212" lon="2.00438">
        <ele>179.903809</ele>
        <time>2011-08-27T12:03:49Z</time>
      </trkpt>
      <trkpt lat="43.93254" lon="2.00323">
        <ele>179.903809</ele>
        <time>2011-08-27T12:04:02Z</time>
      </trkpt>
      <trkpt lat="43.93275" lon="2.00264">
        <ele>177.50061</ele>
        <time>2011-08-27T12:04:09Z</time>
      </trkpt>
      <trkpt lat="43.93325" lon="2.00184">
        <ele>173.655273</ele>
        <time>2011-08-27T12:04:19Z</time>
      </trkpt>
      <trkpt lat="43.93341" lon="2.00155">
        <ele>172.213257</ele>
        <time>2011-08-27T12:04:22Z</time>
      </trkpt>
      <trkpt lat="43.93373" lon="2.00091">
        <ele>168.368042</ele>
        <time>2011-08-27T12:04:28Z</time>
      </trkpt>
      <trkpt lat="43.93399" lon="2.00018">
        <ele>165.003418</ele>
        <time>2011-08-27T12:04:34Z</time>
      </trkpt>
      <trkpt lat="43.93412" lon="1.99965">
        <ele>161.638916</ele>
        <time>2011-08-27T12:04:38Z</time>
      </trkpt>
      <trkpt lat="43.9344" lon="1.99879">
        <ele>159.716187</ele>
        <time>2011-08-27T12:04:45Z</time>
      </trkpt>
      <trkpt lat="43.93487" lon="1.99756">
        <ele>158.27417</ele>
        <time>2011-08-27T12:04:56Z</time>
      </trkpt>
      <trkpt lat="43.935" lon="1.99723">
        <ele>156.351563</ele>
        <time>2011-08-27T12:04:59Z</time>
      </trkpt>
      <trkpt lat="43.93572" lon="1.99555">
        <ele>156.832153</ele>
        <time>2011-08-27T12:05:16Z</time>
      </trkpt>
      <trkpt lat="43.93602" lon="1.99515">
        <ele>159.716187</ele>
        <time>2011-08-27T12:05:22Z</time>
      </trkpt>
      <trkpt lat="43.93689" lon="1.99436">
        <ele>162.119507</ele>
        <time>2011-08-27T12:05:40Z</time>
      </trkpt>
      <trkpt lat="43.93737" lon="1.99367">
        <ele>164.522705</ele>
        <time>2011-08-27T12:05:52Z</time>
      </trkpt>
      <trkpt lat="43.93781" lon="1.99341">
        <ele>164.042114</ele>
        <time>2011-08-27T12:06:00Z</time>
      </trkpt>
      <trkpt lat="43.9388" lon="1.99315">
        <ele>166.926025</ele>
        <time>2011-08-27T12:06:17Z</time>
      </trkpt>
      <trkpt lat="43.94002" lon="1.99244">
        <ele>168.368042</ele>
        <time>2011-08-27T12:06:39Z</time>
      </trkpt>
      <trkpt lat="43.94102" lon="1.9922">
        <ele>170.290649</ele>
        <time>2011-08-27T12:06:55Z</time>
      </trkpt>
      <trkpt lat="43.94178" lon="1.9921">
        <ele>174.135864</ele>
        <time>2011-08-27T12:07:08Z</time>
      </trkpt>
      <trkpt lat="43.94222" lon="1.99192">
        <ele>175.577881</ele>
        <time>2011-08-27T12:07:17Z</time>
      </trkpt>
      <trkpt lat="43.94247" lon="1.99172">
        <ele>178.942627</ele>
        <time>2011-08-27T12:07:23Z</time>
      </trkpt>
      <trkpt lat="43.94263" lon="1.99149">
        <ele>179.903809</ele>
        <time>2011-08-27T12:07:28Z</time>
      </trkpt>
      <trkpt lat="43.94324" lon="1.99085">
        <ele>182.787842</ele>
        <time>2011-08-27T12:07:43Z</time>
      </trkpt>
      <trkpt lat="43.94375" lon="1.99061">
        <ele>185.191162</ele>
        <time>2011-08-27T12:07:53Z</time>
      </trkpt>
      <trkpt lat="43.94408" lon="1.99012">
        <ele>185.671753</ele>
        <time>2011-08-27T12:08:02Z</time>
      </trkpt>
      <trkpt lat="43.94432" lon="1.98901">
        <ele>186.152466</ele>
        <time>2011-08-27T12:08:15Z</time>
      </trkpt>
      <trkpt lat="43.9444" lon="1.98887">
        <ele>185.191162</ele>
        <time>2011-08-27T12:08:17Z</time>
      </trkpt>
      <trkpt lat="43.94519" lon="1.98764">
        <ele>182.307129</ele>
        <time>2011-08-27T12:08:34Z</time>
      </trkpt>
      <trkpt lat="43.94559" lon="1.98721">
        <ele>178.942627</ele>
        <time>2011-08-27T12:08:40Z</time>
      </trkpt>
      <trkpt lat="43.94597" lon="1.98681">
        <ele>177.02002</ele>
        <time>2011-08-27T12:08:45Z</time>
      </trkpt>
      <trkpt lat="43.94629" lon="1.98647">
        <ele>173.655273</ele>
        <time>2011-08-27T12:08:49Z</time>
      </trkpt>
      <trkpt lat="43.94679" lon="1.98593">
        <ele>169.329468</ele>
        <time>2011-08-27T12:08:55Z</time>
      </trkpt>
      <trkpt lat="43.94711" lon="1.98554">
        <ele>166.445313</ele>
        <time>2011-08-27T12:08:59Z</time>
      </trkpt>
      <trkpt lat="43.94794" lon="1.98428">
        <ele>164.522705</ele>
        <time>2011-08-27T12:09:12Z</time>
      </trkpt>
      <trkpt lat="43.94867" lon="1.98318">
        <ele>168.368042</ele>
        <time>2011-08-27T12:09:28Z</time>
      </trkpt>
      <trkpt lat="43.94933" lon="1.98218">
        <ele>170.290649</ele>
        <time>2011-08-27T12:09:47Z</time>
      </trkpt>
      <trkpt lat="43.9494" lon="1.98208">
        <ele>171.252075</ele>
        <time>2011-08-27T12:09:49Z</time>
      </trkpt>
      <trkpt lat="43.94993" lon="1.9812">
        <ele>174.616577</ele>
        <time>2011-08-27T12:10:05Z</time>
      </trkpt>
      <trkpt lat="43.95023" lon="1.98059">
        <ele>177.981201</ele>
        <time>2011-08-27T12:10:17Z</time>
      </trkpt>
      <trkpt lat="43.95028" lon="1.98049">
        <ele>178.942627</ele>
        <time>2011-08-27T12:10:19Z</time>
      </trkpt>
      <trkpt lat="43.9506" lon="1.97969">
        <ele>182.787842</ele>
        <time>2011-08-27T12:10:34Z</time>
      </trkpt>
      <trkpt lat="43.9507" lon="1.97947">
        <ele>183.268433</ele>
        <time>2011-08-27T12:10:38Z</time>
      </trkpt>
      <trkpt lat="43.95142" lon="1.97854">
        <ele>185.671753</ele>
        <time>2011-08-27T12:10:58Z</time>
      </trkpt>
      <trkpt lat="43.952" lon="1.97785">
        <ele>189.997681</ele>
        <time>2011-08-27T12:11:13Z</time>
      </trkpt>
      <trkpt lat="43.95204" lon="1.97781">
        <ele>189.997681</ele>
        <time>2011-08-27T12:11:14Z</time>
      </trkpt>
      <trkpt lat="43.9523" lon="1.97744">
        <ele>193.843018</ele>
        <time>2011-08-27T12:11:22Z</time>
      </trkpt>
      <trkpt lat="43.95232" lon="1.97739">
        <ele>193.843018</ele>
        <time>2011-08-27T12:11:23Z</time>
      </trkpt>
      <trkpt lat="43.95243" lon="1.97711">
        <ele>194.804321</ele>
        <time>2011-08-27T12:11:28Z</time>
      </trkpt>
      <trkpt lat="43.95254" lon="1.97647">
        <ele>199.130127</ele>
        <time>2011-08-27T12:11:39Z</time>
      </trkpt>
      <trkpt lat="43.95256" lon="1.9764">
        <ele>198.649536</ele>
        <time>2011-08-27T12:11:40Z</time>
      </trkpt>
      <trkpt lat="43.95258" lon="1.97621">
        <ele>199.61084</ele>
        <time>2011-08-27T12:11:43Z</time>
      </trkpt>
      <trkpt lat="43.9526" lon="1.97603">
        <ele>200.572266</ele>
        <time>2011-08-27T12:11:46Z</time>
      </trkpt>
      <trkpt lat="43.95267" lon="1.97554">
        <ele>203.93689</ele>
        <time>2011-08-27T12:11:55Z</time>
      </trkpt>
      <trkpt lat="43.9528" lon="1.97497">
        <ele>206.820679</ele>
        <time>2011-08-27T12:12:06Z</time>
      </trkpt>
      <trkpt lat="43.95298" lon="1.97451">
        <ele>209.704834</ele>
        <time>2011-08-27T12:12:16Z</time>
      </trkpt>
      <trkpt lat="43.95321" lon="1.97386">
        <ele>212.108032</ele>
        <time>2011-08-27T12:12:28Z</time>
      </trkpt>
      <trkpt lat="43.9533" lon="1.97347">
        <ele>213.069336</ele>
        <time>2011-08-27T12:12:34Z</time>
      </trkpt>
      <trkpt lat="43.95357" lon="1.97314">
        <ele>213.550049</ele>
        <time>2011-08-27T12:12:41Z</time>
      </trkpt>
      <trkpt lat="43.95463" lon="1.97225">
        <ele>214.991943</ele>
        <time>2011-08-27T12:13:02Z</time>
      </trkpt>
      <trkpt lat="43.95518" lon="1.97125">
        <ele>215.953247</ele>
        <time>2011-08-27T12:13:16Z</time>
      </trkpt>
      <trkpt lat="43.95612" lon="1.9699">
        <ele>214.51123</ele>
        <time>2011-08-27T12:13:35Z</time>
      </trkpt>
      <trkpt lat="43.95623" lon="1.96978">
        <ele>214.991943</ele>
        <time>2011-08-27T12:13:37Z</time>
      </trkpt>
      <trkpt lat="43.95719" lon="1.96934">
        <ele>215.953247</ele>
        <time>2011-08-27T12:13:51Z</time>
      </trkpt>
      <trkpt lat="43.95802" lon="1.96908">
        <ele>218.83728</ele>
        <time>2011-08-27T12:14:03Z</time>
      </trkpt>
      <trkpt lat="43.95919" lon="1.96853">
        <ele>219.317993</ele>
        <time>2011-08-27T12:14:21Z</time>
      </trkpt>
      <trkpt lat="43.96028" lon="1.96802">
        <ele>222.682495</ele>
        <time>2011-08-27T12:14:38Z</time>
      </trkpt>
      <trkpt lat="43.96094" lon="1.96781">
        <ele>223.163208</ele>
        <time>2011-08-27T12:14:50Z</time>
      </trkpt>
      <trkpt lat="43.96146" lon="1.9675">
        <ele>225.085938</ele>
        <time>2011-08-27T12:15:00Z</time>
      </trkpt>
      <trkpt lat="43.96204" lon="1.96727">
        <ele>227.969727</ele>
        <time>2011-08-27T12:15:11Z</time>
      </trkpt>
      <trkpt lat="43.96219" lon="1.9672">
        <ele>227.969727</ele>
        <time>2011-08-27T12:15:14Z</time>
      </trkpt>
      <trkpt lat="43.96229" lon="1.96714">
        <ele>227.969727</ele>
        <time>2011-08-27T12:15:16Z</time>
      </trkpt>
      <trkpt lat="43.96248" lon="1.96697">
        <ele>228.931152</ele>
        <time>2011-08-27T12:15:20Z</time>
      </trkpt>
      <trkpt lat="43.96252" lon="1.96692">
        <ele>228.931152</ele>
        <time>2011-08-27T12:15:21Z</time>
      </trkpt>
      <trkpt lat="43.96307" lon="1.96584">
        <ele>227.008545</ele>
        <time>2011-08-27T12:15:37Z</time>
      </trkpt>
      <trkpt lat="43.96335" lon="1.96508">
        <ele>226.527832</ele>
        <time>2011-08-27T12:15:47Z</time>
      </trkpt>
      <trkpt lat="43.96345" lon="1.96465">
        <ele>224.124512</ele>
        <time>2011-08-27T12:15:52Z</time>
      </trkpt>
      <trkpt lat="43.96366" lon="1.96391">
        <ele>221.240601</ele>
        <time>2011-08-27T12:16:00Z</time>
      </trkpt>
      <trkpt lat="43.96382" lon="1.9627">
        <ele>219.317993</ele>
        <time>2011-08-27T12:16:12Z</time>
      </trkpt>
      <trkpt lat="43.96395" lon="1.96202">
        <ele>221.240601</ele>
        <time>2011-08-27T12:16:20Z</time>
      </trkpt>
      <trkpt lat="43.96422" lon="1.96126">
        <ele>224.605225</ele>
        <time>2011-08-27T12:16:32Z</time>
      </trkpt>
      <trkpt lat="43.96462" lon="1.96005">
        <ele>224.605225</ele>
        <time>2011-08-27T12:16:50Z</time>
      </trkpt>
      <trkpt lat="43.96502" lon="1.95844">
        <ele>224.124512</ele>
        <time>2011-08-27T12:17:09Z</time>
      </trkpt>
      <trkpt lat="43.96539" lon="1.95688">
        <ele>222.201782</ele>
        <time>2011-08-27T12:17:28Z</time>
      </trkpt>
      <trkpt lat="43.96555" lon="1.95607">
        <ele>218.83728</ele>
        <time>2011-08-27T12:17:36Z</time>
      </trkpt>
      <trkpt lat="43.96565" lon="1.95545">
        <ele>216.914673</ele>
        <time>2011-08-27T12:17:41Z</time>
      </trkpt>
      <trkpt lat="43.96573" lon="1.95507">
        <ele>215.472656</ele>
        <time>2011-08-27T12:17:44Z</time>
      </trkpt>
      <trkpt lat="43.96596" lon="1.95416">
        <ele>218.356567</ele>
        <time>2011-08-27T12:17:54Z</time>
      </trkpt>
      <trkpt lat="43.96598" lon="1.95409">
        <ele>218.83728</ele>
        <time>2011-08-27T12:17:55Z</time>
      </trkpt>
      <trkpt lat="43.96619" lon="1.95346">
        <ele>221.721191</ele>
        <time>2011-08-27T12:18:04Z</time>
      </trkpt>
      <trkpt lat="43.96643" lon="1.95293">
        <ele>224.605225</ele>
        <time>2011-08-27T12:18:12Z</time>
      </trkpt>
      <trkpt lat="43.96701" lon="1.95188">
        <ele>225.566528</ele>
        <time>2011-08-27T12:18:30Z</time>
      </trkpt>
      <trkpt lat="43.96743" lon="1.95082">
        <ele>228.931152</ele>
        <time>2011-08-27T12:18:47Z</time>
      </trkpt>
      <trkpt lat="43.96751" lon="1.95051">
        <ele>230.85376</ele>
        <time>2011-08-27T12:18:52Z</time>
      </trkpt>
      <trkpt lat="43.96772" lon="1.94989">
        <ele>232.295776</ele>
        <time>2011-08-27T12:19:02Z</time>
      </trkpt>
      <trkpt lat="43.96777" lon="1.94978">
        <ele>234.218384</ele>
        <time>2011-08-27T12:19:04Z</time>
      </trkpt>
      <trkpt lat="43.96787" lon="1.94956">
        <ele>235.660278</ele>
        <time>2011-08-27T12:19:08Z</time>
      </trkpt>
      <trkpt lat="43.96821" lon="1.94838">
        <ele>234.699097</ele>
        <time>2011-08-27T12:19:24Z</time>
      </trkpt>
      <trkpt lat="43.96839" lon="1.94767">
        <ele>231.334351</ele>
        <time>2011-08-27T12:19:31Z</time>
      </trkpt>
      <trkpt lat="43.96846" lon="1.94745">
        <ele>229.892334</ele>
        <time>2011-08-27T12:19:33Z</time>
      </trkpt>
      <trkpt lat="43.96888" lon="1.94657">
        <ele>227.008545</ele>
        <time>2011-08-27T12:19:41Z</time>
      </trkpt>
      <trkpt lat="43.96906" lon="1.94603">
        <ele>228.931152</ele>
        <time>2011-08-27T12:19:46Z</time>
      </trkpt>
      <trkpt lat="43.96947" lon="1.94507">
        <ele>225.085938</ele>
        <time>2011-08-27T12:19:56Z</time>
      </trkpt>
      <trkpt lat="43.96953" lon="1.94497">
        <ele>224.605225</ele>
        <time>2011-08-27T12:19:57Z</time>
      </trkpt>
      <trkpt lat="43.97007" lon="1.94417">
        <ele>227.489136</ele>
        <time>2011-08-27T12:20:08Z</time>
      </trkpt>
      <trkpt lat="43.97011" lon="1.94411">
        <ele>227.489136</ele>
        <time>2011-08-27T12:20:09Z</time>
      </trkpt>
      <trkpt lat="43.97033" lon="1.94381">
        <ele>230.85376</ele>
        <time>2011-08-27T12:20:15Z</time>
      </trkpt>
      <trkpt lat="43.97063" lon="1.9435">
        <ele>234.218384</ele>
        <time>2011-08-27T12:20:23Z</time>
      </trkpt>
      <trkpt lat="43.97093" lon="1.9432">
        <ele>236.140991</ele>
        <time>2011-08-27T12:20:31Z</time>
      </trkpt>
      <trkpt lat="43.97122" lon="1.94291">
        <ele>235.660278</ele>
        <time>2011-08-27T12:20:38Z</time>
      </trkpt>
      <trkpt lat="43.97144" lon="1.94257">
        <ele>236.621704</ele>
        <time>2011-08-27T12:20:44Z</time>
      </trkpt>
      <trkpt lat="43.97155" lon="1.94229">
        <ele>237.102295</ele>
        <time>2011-08-27T12:20:48Z</time>
      </trkpt>
      <trkpt lat="43.97164" lon="1.94183">
        <ele>238.063599</ele>
        <time>2011-08-27T12:20:54Z</time>
      </trkpt>
      <trkpt lat="43.97171" lon="1.94032">
        <ele>238.063599</ele>
        <time>2011-08-27T12:21:11Z</time>
      </trkpt>
      <trkpt lat="43.97181" lon="1.93832">
        <ele>235.179688</ele>
        <time>2011-08-27T12:21:31Z</time>
      </trkpt>
      <trkpt lat="43.97208" lon="1.93778">
        <ele>234.699097</ele>
        <time>2011-08-27T12:21:37Z</time>
      </trkpt>
      <trkpt lat="43.97291" lon="1.9366">
        <ele>234.218384</ele>
        <time>2011-08-27T12:21:52Z</time>
      </trkpt>
      <trkpt lat="43.97357" lon="1.93574">
        <ele>233.25708</ele>
        <time>2011-08-27T12:22:04Z</time>
      </trkpt>
      <trkpt lat="43.97439" lon="1.93485">
        <ele>229.892334</ele>
        <time>2011-08-27T12:22:18Z</time>
      </trkpt>
      <trkpt lat="43.97574" lon="1.93371">
        <ele>227.008545</ele>
        <time>2011-08-27T12:22:39Z</time>
      </trkpt>
      <trkpt lat="43.97679" lon="1.93258">
        <ele>225.566528</ele>
        <time>2011-08-27T12:22:56Z</time>
      </trkpt>
      <trkpt lat="43.97772" lon="1.93096">
        <ele>224.124512</ele>
        <time>2011-08-27T12:23:15Z</time>
      </trkpt>
      <trkpt lat="43.97783" lon="1.9308">
        <ele>224.124512</ele>
        <time>2011-08-27T12:23:17Z</time>
      </trkpt>
      <trkpt lat="43.97826" lon="1.93073">
        <ele>221.721191</ele>
        <time>2011-08-27T12:23:23Z</time>
      </trkpt>
      <trkpt lat="43.97867" lon="1.93094">
        <ele>219.798584</ele>
        <time>2011-08-27T12:23:28Z</time>
      </trkpt>
      <trkpt lat="43.97893" lon="1.93111">
        <ele>216.43396</ele>
        <time>2011-08-27T12:23:31Z</time>
      </trkpt>
      <trkpt lat="43.97902" lon="1.93116">
        <ele>215.472656</ele>
        <time>2011-08-27T12:23:32Z</time>
      </trkpt>
      <trkpt lat="43.97953" lon="1.93109">
        <ele>210.185425</ele>
        <time>2011-08-27T12:23:37Z</time>
      </trkpt>
      <trkpt lat="43.98" lon="1.93118">
        <ele>204.898071</ele>
        <time>2011-08-27T12:23:41Z</time>
      </trkpt>
      <trkpt lat="43.98024" lon="1.9311">
        <ele>201.052856</ele>
        <time>2011-08-27T12:23:44Z</time>
      </trkpt>
      <trkpt lat="43.98035" lon="1.93063">
        <ele>200.091675</ele>
        <time>2011-08-27T12:23:48Z</time>
      </trkpt>
      <trkpt lat="43.98036" lon="1.92984">
        <ele>198.168945</ele>
        <time>2011-08-27T12:23:54Z</time>
      </trkpt>
      <trkpt lat="43.98062" lon="1.92916">
        <ele>196.726929</ele>
        <time>2011-08-27T12:24:00Z</time>
      </trkpt>
      <trkpt lat="43.98116" lon="1.92851">
        <ele>195.765625</ele>
        <time>2011-08-27T12:24:08Z</time>
      </trkpt>
      <trkpt lat="43.98128" lon="1.928">
        <ele>193.843018</ele>
        <time>2011-08-27T12:24:13Z</time>
      </trkpt>
      <trkpt lat="43.98119" lon="1.92781">
        <ele>194.32373</ele>
        <time>2011-08-27T12:24:15Z</time>
      </trkpt>
      <trkpt lat="43.98092" lon="1.92735">
        <ele>193.362305</ele>
        <time>2011-08-27T12:24:20Z</time>
      </trkpt>
      <trkpt lat="43.98079" lon="1.92682">
        <ele>194.804321</ele>
        <time>2011-08-27T12:24:25Z</time>
      </trkpt>
      <trkpt lat="43.98074" lon="1.9261">
        <ele>195.765625</ele>
        <time>2011-08-27T12:24:32Z</time>
      </trkpt>
      <trkpt lat="43.9808" lon="1.92566">
        <ele>196.246338</ele>
        <time>2011-08-27T12:24:37Z</time>
      </trkpt>
      <trkpt lat="43.98113" lon="1.92488">
        <ele>197.20752</ele>
        <time>2011-08-27T12:24:47Z</time>
      </trkpt>
      <trkpt lat="43.9818" lon="1.92386">
        <ele>198.649536</ele>
        <time>2011-08-27T12:25:01Z</time>
      </trkpt>
      <trkpt lat="43.98274" lon="1.92273">
        <ele>196.246338</ele>
        <time>2011-08-27T12:25:19Z</time>
      </trkpt>
      <trkpt lat="43.98318" lon="1.92195">
        <ele>195.284912</ele>
        <time>2011-08-27T12:25:29Z</time>
      </trkpt>
      <trkpt lat="43.98352" lon="1.92117">
        <ele>195.284912</ele>
        <time>2011-08-27T12:25:38Z</time>
      </trkpt>
      <trkpt lat="43.98364" lon="1.91994">
        <ele>193.843018</ele>
        <time>2011-08-27T12:25:50Z</time>
      </trkpt>
      <trkpt lat="43.98356" lon="1.91797">
        <ele>194.32373</ele>
        <time>2011-08-27T12:26:09Z</time>
      </trkpt>
      <trkpt lat="43.98326" lon="1.91654">
        <ele>193.362305</ele>
        <time>2011-08-27T12:26:24Z</time>
      </trkpt>
      <trkpt lat="43.98292" lon="1.91521">
        <ele>193.362305</ele>
        <time>2011-08-27T12:26:38Z</time>
      </trkpt>
      <trkpt lat="43.98301" lon="1.91465">
        <ele>193.362305</ele>
        <time>2011-08-27T12:26:44Z</time>
      </trkpt>
      <trkpt lat="43.98337" lon="1.91409">
        <ele>193.362305</ele>
        <time>2011-08-27T12:26:52Z</time>
      </trkpt>
      <trkpt lat="43.98344" lon="1.91378">
        <ele>193.362305</ele>
        <time>2011-08-27T12:26:56Z</time>
      </trkpt>
      <trkpt lat="43.98338" lon="1.91343">
        <ele>193.362305</ele>
        <time>2011-08-27T12:27:00Z</time>
      </trkpt>
      <trkpt lat="43.98325" lon="1.91288">
        <ele>193.362305</ele>
        <time>2011-08-27T12:27:06Z</time>
      </trkpt>
      <trkpt lat="43.98321" lon="1.91255">
        <ele>193.362305</ele>
        <time>2011-08-27T12:27:09Z</time>
      </trkpt>
      <trkpt lat="43.98319" lon="1.91227">
        <ele>193.362305</ele>
        <time>2011-08-27T12:27:12Z</time>
      </trkpt>
      <trkpt lat="43.98314" lon="1.91156">
        <ele>196.246338</ele>
        <time>2011-08-27T12:27:21Z</time>
      </trkpt>
      <trkpt lat="43.98311" lon="1.9112">
        <ele>199.61084</ele>
        <time>2011-08-27T12:27:27Z</time>
      </trkpt>
      <trkpt lat="43.98307" lon="1.91084">
        <ele>201.052856</ele>
        <time>2011-08-27T12:27:33Z</time>
      </trkpt>
      <trkpt lat="43.98296" lon="1.91031">
        <ele>203.93689</ele>
        <time>2011-08-27T12:27:41Z</time>
      </trkpt>
      <trkpt lat="43.98294" lon="1.91025">
        <ele>203.456177</ele>
        <time>2011-08-27T12:27:42Z</time>
      </trkpt>
      <trkpt lat="43.98289" lon="1.91014">
        <ele>204.898071</ele>
        <time>2011-08-27T12:27:44Z</time>
      </trkpt>
      <trkpt lat="43.98283" lon="1.90997">
        <ele>206.820679</ele>
        <time>2011-08-27T12:27:47Z</time>
      </trkpt>
      <trkpt lat="43.98264" lon="1.90959">
        <ele>209.704834</ele>
        <time>2011-08-27T12:27:53Z</time>
      </trkpt>
      <trkpt lat="43.9826" lon="1.90952">
        <ele>209.704834</ele>
        <time>2011-08-27T12:27:54Z</time>
      </trkpt>
      <trkpt lat="43.98252" lon="1.9094">
        <ele>210.185425</ele>
        <time>2011-08-27T12:27:56Z</time>
      </trkpt>
      <trkpt lat="43.98202" lon="1.90867">
        <ele>212.108032</ele>
        <time>2011-08-27T12:28:10Z</time>
      </trkpt>
      <trkpt lat="43.9817" lon="1.90835">
        <ele>214.03064</ele>
        <time>2011-08-27T12:28:18Z</time>
      </trkpt>
      <trkpt lat="43.98095" lon="1.90772">
        <ele>216.914673</ele>
        <time>2011-08-27T12:28:35Z</time>
      </trkpt>
      <trkpt lat="43.98036" lon="1.90718">
        <ele>219.798584</ele>
        <time>2011-08-27T12:28:48Z</time>
      </trkpt>
      <trkpt lat="43.98016" lon="1.90701">
        <ele>223.163208</ele>
        <time>2011-08-27T12:28:52Z</time>
      </trkpt>
      <trkpt lat="43.97981" lon="1.90666">
        <ele>223.643799</ele>
        <time>2011-08-27T12:29:00Z</time>
      </trkpt>
      <trkpt lat="43.97927" lon="1.90627">
        <ele>227.008545</ele>
        <time>2011-08-27T12:29:11Z</time>
      </trkpt>
      <trkpt lat="43.97828" lon="1.90566">
        <ele>227.489136</ele>
        <time>2011-08-27T12:29:28Z</time>
      </trkpt>
      <trkpt lat="43.97737" lon="1.90491">
        <ele>225.085938</ele>
        <time>2011-08-27T12:29:42Z</time>
      </trkpt>
      <trkpt lat="43.97651" lon="1.90417">
        <ele>221.721191</ele>
        <time>2011-08-27T12:29:53Z</time>
      </trkpt>
      <trkpt lat="43.97604" lon="1.90377">
        <ele>219.317993</ele>
        <time>2011-08-27T12:29:59Z</time>
      </trkpt>
      <trkpt lat="43.97449" lon="1.90244">
        <ele>218.83728</ele>
        <time>2011-08-27T12:30:20Z</time>
      </trkpt>
      <trkpt lat="43.97366" lon="1.90172">
        <ele>221.240601</ele>
        <time>2011-08-27T12:30:34Z</time>
      </trkpt>
      <trkpt lat="43.9729" lon="1.90118">
        <ele>224.605225</ele>
        <time>2011-08-27T12:30:47Z</time>
      </trkpt>
      <trkpt lat="43.97271" lon="1.90099">
        <ele>226.527832</ele>
        <time>2011-08-27T12:30:51Z</time>
      </trkpt>
      <trkpt lat="43.97245" lon="1.90067">
        <ele>228.450439</ele>
        <time>2011-08-27T12:30:57Z</time>
      </trkpt>
      <trkpt lat="43.97239" lon="1.90063">
        <ele>227.969727</ele>
        <time>2011-08-27T12:30:58Z</time>
      </trkpt>
      <trkpt lat="43.97219" lon="1.90046">
        <ele>229.411743</ele>
        <time>2011-08-27T12:31:02Z</time>
      </trkpt>
      <trkpt lat="43.97203" lon="1.90033">
        <ele>231.334351</ele>
        <time>2011-08-27T12:31:05Z</time>
      </trkpt>
      <trkpt lat="43.97166" lon="1.90001">
        <ele>234.218384</ele>
        <time>2011-08-27T12:31:12Z</time>
      </trkpt>
      <trkpt lat="43.97094" lon="1.8992">
        <ele>237.582886</ele>
        <time>2011-08-27T12:31:29Z</time>
      </trkpt>
      <trkpt lat="43.97081" lon="1.89856">
        <ele>240.947632</ele>
        <time>2011-08-27T12:31:38Z</time>
      </trkpt>
      <trkpt lat="43.97081" lon="1.89849">
        <ele>240.947632</ele>
        <time>2011-08-27T12:31:39Z</time>
      </trkpt>
      <trkpt lat="43.97076" lon="1.89811">
        <ele>243.831543</ele>
        <time>2011-08-27T12:31:45Z</time>
      </trkpt>
      <trkpt lat="43.97075" lon="1.89805">
        <ele>243.35083</ele>
        <time>2011-08-27T12:31:46Z</time>
      </trkpt>
      <trkpt lat="43.97067" lon="1.89772">
        <ele>244.792847</ele>
        <time>2011-08-27T12:31:52Z</time>
      </trkpt>
      <trkpt lat="43.97032" lon="1.89708">
        <ele>240.947632</ele>
        <time>2011-08-27T12:32:02Z</time>
      </trkpt>
      <trkpt lat="43.97021" lon="1.89693">
        <ele>239.505493</ele>
        <time>2011-08-27T12:32:04Z</time>
      </trkpt>
      <trkpt lat="43.96965" lon="1.89616">
        <ele>236.140991</ele>
        <time>2011-08-27T12:32:13Z</time>
      </trkpt>
      <trkpt lat="43.9694" lon="1.8958">
        <ele>234.699097</ele>
        <time>2011-08-27T12:32:17Z</time>
      </trkpt>
      <trkpt lat="43.96876" lon="1.89489">
        <ele>231.814941</ele>
        <time>2011-08-27T12:32:27Z</time>
      </trkpt>
      <trkpt lat="43.9684" lon="1.89439">
        <ele>233.737671</ele>
        <time>2011-08-27T12:32:34Z</time>
      </trkpt>
      <trkpt lat="43.96814" lon="1.89404">
        <ele>235.660278</ele>
        <time>2011-08-27T12:32:40Z</time>
      </trkpt>
      <trkpt lat="43.96728" lon="1.89283">
        <ele>235.179688</ele>
        <time>2011-08-27T12:32:58Z</time>
      </trkpt>
      <trkpt lat="43.96701" lon="1.89248">
        <ele>232.776489</ele>
        <time>2011-08-27T12:33:02Z</time>
      </trkpt>
      <trkpt lat="43.96646" lon="1.89169">
        <ele>234.218384</ele>
        <time>2011-08-27T12:33:13Z</time>
      </trkpt>
      <trkpt lat="43.96632" lon="1.89148">
        <ele>236.140991</ele>
        <time>2011-08-27T12:33:17Z</time>
      </trkpt>
      <trkpt lat="43.96626" lon="1.89138">
        <ele>236.621704</ele>
        <time>2011-08-27T12:33:19Z</time>
      </trkpt>
      <trkpt lat="43.96596" lon="1.89042">
        <ele>240.467041</ele>
        <time>2011-08-27T12:33:34Z</time>
      </trkpt>
      <trkpt lat="43.96594" lon="1.89031">
        <ele>241.428223</ele>
        <time>2011-08-27T12:33:36Z</time>
      </trkpt>
      <trkpt lat="43.96583" lon="1.88978">
        <ele>244.792847</ele>
        <time>2011-08-27T12:33:47Z</time>
      </trkpt>
      <trkpt lat="43.96581" lon="1.88968">
        <ele>246.234863</ele>
        <time>2011-08-27T12:33:49Z</time>
      </trkpt>
      <trkpt lat="43.96576" lon="1.88946">
        <ele>246.715454</ele>
        <time>2011-08-27T12:33:54Z</time>
      </trkpt>
      <trkpt lat="43.96563" lon="1.88904">
        <ele>250.560791</ele>
        <time>2011-08-27T12:34:04Z</time>
      </trkpt>
      <trkpt lat="43.96562" lon="1.889">
        <ele>250.560791</ele>
        <time>2011-08-27T12:34:05Z</time>
      </trkpt>
      <trkpt lat="43.96551" lon="1.88854">
        <ele>253.925415</ele>
        <time>2011-08-27T12:34:15Z</time>
      </trkpt>
      <trkpt lat="43.96542" lon="1.88829">
        <ele>255.848022</ele>
        <time>2011-08-27T12:34:20Z</time>
      </trkpt>
      <trkpt lat="43.96531" lon="1.88802">
        <ele>258.251343</ele>
        <time>2011-08-27T12:34:25Z</time>
      </trkpt>
      <trkpt lat="43.96518" lon="1.88781">
        <ele>259.212646</ele>
        <time>2011-08-27T12:34:29Z</time>
      </trkpt>
      <trkpt lat="43.96492" lon="1.88754">
        <ele>261.135254</ele>
        <time>2011-08-27T12:34:36Z</time>
      </trkpt>
      <trkpt lat="43.96387" lon="1.88686">
        <ele>261.135254</ele>
        <time>2011-08-27T12:34:56Z</time>
      </trkpt>
      <trkpt lat="43.9625" lon="1.88598">
        <ele>260.654541</ele>
        <time>2011-08-27T12:35:17Z</time>
      </trkpt>
      <trkpt lat="43.96134" lon="1.88523">
        <ele>260.654541</ele>
        <time>2011-08-27T12:35:34Z</time>
      </trkpt>
      <trkpt lat="43.96127" lon="1.88518">
        <ele>260.17395</ele>
        <time>2011-08-27T12:35:35Z</time>
      </trkpt>
      <trkpt lat="43.96078" lon="1.88475">
        <ele>256.809326</ele>
        <time>2011-08-27T12:35:41Z</time>
      </trkpt>
      <trkpt lat="43.96061" lon="1.88456">
        <ele>255.848022</ele>
        <time>2011-08-27T12:35:43Z</time>
      </trkpt>
      <trkpt lat="43.96019" lon="1.88368">
        <ele>254.886597</ele>
        <time>2011-08-27T12:35:50Z</time>
      </trkpt>
      <trkpt lat="43.96002" lon="1.88296">
        <ele>252.963989</ele>
        <time>2011-08-27T12:35:55Z</time>
      </trkpt>
      <trkpt lat="43.95992" lon="1.88178">
        <ele>253.444702</ele>
        <time>2011-08-27T12:36:06Z</time>
      </trkpt>
      <trkpt lat="43.9599" lon="1.88144">
        <ele>255.36731</ele>
        <time>2011-08-27T12:36:11Z</time>
      </trkpt>
      <trkpt lat="43.9599" lon="1.88112">
        <ele>257.290039</ele>
        <time>2011-08-27T12:36:16Z</time>
      </trkpt>
      <trkpt lat="43.9599" lon="1.88096">
        <ele>257.770752</ele>
        <time>2011-08-27T12:36:19Z</time>
      </trkpt>
      <trkpt lat="43.9599" lon="1.8808">
        <ele>259.693359</ele>
        <time>2011-08-27T12:36:22Z</time>
      </trkpt>
      <trkpt lat="43.95991" lon="1.88066">
        <ele>259.212646</ele>
        <time>2011-08-27T12:36:24Z</time>
      </trkpt>
      <trkpt lat="43.95996" lon="1.88001">
        <ele>264.019287</ele>
        <time>2011-08-27T12:36:36Z</time>
      </trkpt>
      <trkpt lat="43.95996" lon="1.87991">
        <ele>266.422485</ele>
        <time>2011-08-27T12:36:38Z</time>
      </trkpt>
      <trkpt lat="43.95999" lon="1.87954">
        <ele>268.825806</ele>
        <time>2011-08-27T12:36:45Z</time>
      </trkpt>
      <trkpt lat="43.96" lon="1.87949">
        <ele>267.864502</ele>
        <time>2011-08-27T12:36:46Z</time>
      </trkpt>
      <trkpt lat="43.96003" lon="1.87913">
        <ele>271.709717</ele>
        <time>2011-08-27T12:36:53Z</time>
      </trkpt>
      <trkpt lat="43.96004" lon="1.87902">
        <ele>272.19043</ele>
        <time>2011-08-27T12:36:55Z</time>
      </trkpt>
      <trkpt lat="43.96008" lon="1.8785">
        <ele>275.074463</ele>
        <time>2011-08-27T12:37:05Z</time>
      </trkpt>
      <trkpt lat="43.96007" lon="1.87839">
        <ele>276.035645</ele>
        <time>2011-08-27T12:37:07Z</time>
      </trkpt>
      <trkpt lat="43.96008" lon="1.87814">
        <ele>277.477661</ele>
        <time>2011-08-27T12:37:12Z</time>
      </trkpt>
      <trkpt lat="43.96008" lon="1.87806">
        <ele>276.516357</ele>
        <time>2011-08-27T12:37:14Z</time>
      </trkpt>
      <trkpt lat="43.96007" lon="1.87789">
        <ele>278.438965</ele>
        <time>2011-08-27T12:37:17Z</time>
      </trkpt>
      <trkpt lat="43.96005" lon="1.87765">
        <ele>280.361694</ele>
        <time>2011-08-27T12:37:21Z</time>
      </trkpt>
      <trkpt lat="43.95993" lon="1.87634">
        <ele>281.322998</ele>
        <time>2011-08-27T12:37:41Z</time>
      </trkpt>
      <trkpt lat="43.95981" lon="1.8751">
        <ele>281.322998</ele>
        <time>2011-08-27T12:37:56Z</time>
      </trkpt>
      <trkpt lat="43.95961" lon="1.87379">
        <ele>281.322998</ele>
        <time>2011-08-27T12:38:10Z</time>
      </trkpt>
      <trkpt lat="43.95949" lon="1.87326">
        <ele>278.438965</ele>
        <time>2011-08-27T12:38:15Z</time>
      </trkpt>
      <trkpt lat="43.95945" lon="1.87305">
        <ele>276.035645</ele>
        <time>2011-08-27T12:38:17Z</time>
      </trkpt>
      <trkpt lat="43.95929" lon="1.87235">
        <ele>275.074463</ele>
        <time>2011-08-27T12:38:24Z</time>
      </trkpt>
      <trkpt lat="43.95926" lon="1.87226">
        <ele>274.59375</ele>
        <time>2011-08-27T12:38:25Z</time>
      </trkpt>
      <trkpt lat="43.95898" lon="1.87179">
        <ele>273.632446</ele>
        <time>2011-08-27T12:38:31Z</time>
      </trkpt>
      <trkpt lat="43.95886" lon="1.87167">
        <ele>274.113037</ele>
        <time>2011-08-27T12:38:33Z</time>
      </trkpt>
      <trkpt lat="43.95867" lon="1.87157">
        <ele>277.958252</ele>
        <time>2011-08-27T12:38:36Z</time>
      </trkpt>
      <trkpt lat="43.95855" lon="1.87152">
        <ele>278.919678</ele>
        <time>2011-08-27T12:38:38Z</time>
      </trkpt>
      <trkpt lat="43.95812" lon="1.87134">
        <ele>278.919678</ele>
        <time>2011-08-27T12:38:46Z</time>
      </trkpt>
      <trkpt lat="43.9578" lon="1.87123">
        <ele>276.99707</ele>
        <time>2011-08-27T12:38:57Z</time>
      </trkpt>
      <trkpt lat="43.9578" lon="1.87123">
        <ele>276.99707</ele>
        <time>2011-08-27T12:39:07Z</time>
      </trkpt>
      <trkpt lat="43.95772" lon="1.87112">
        <ele>276.99707</ele>
        <time>2011-08-27T12:39:20Z</time>
      </trkpt>
      <trkpt lat="43.95773" lon="1.87112">
        <ele>276.516357</ele>
        <time>2011-08-27T12:40:03Z</time>
      </trkpt>
      <trkpt lat="43.95768" lon="1.87113">
        <ele>277.477661</ele>
        <time>2011-08-27T12:40:30Z</time>
      </trkpt>
      <trkpt lat="43.9576" lon="1.87105">
        <ele>278.438965</ele>
        <time>2011-08-27T12:40:33Z</time>
      </trkpt>
      <trkpt lat="43.9575" lon="1.87048">
        <ele>278.438965</ele>
        <time>2011-08-27T12:40:41Z</time>
      </trkpt>
      <trkpt lat="43.95751" lon="1.86993">
        <ele>277.958252</ele>
        <time>2011-08-27T12:40:47Z</time>
      </trkpt>
      <trkpt lat="43.95747" lon="1.86767">
        <ele>276.035645</ele>
        <time>2011-08-27T12:41:11Z</time>
      </trkpt>
      <trkpt lat="43.95743" lon="1.86539">
        <ele>276.035645</ele>
        <time>2011-08-27T12:41:34Z</time>
      </trkpt>
      <trkpt lat="43.9574" lon="1.86333">
        <ele>274.113037</ele>
        <time>2011-08-27T12:41:56Z</time>
      </trkpt>
      <trkpt lat="43.95735" lon="1.86101">
        <ele>274.59375</ele>
        <time>2011-08-27T12:42:21Z</time>
      </trkpt>
      <trkpt lat="43.95734" lon="1.86003">
        <ele>278.919678</ele>
        <time>2011-08-27T12:42:32Z</time>
      </trkpt>
      <trkpt lat="43.95734" lon="1.85994">
        <ele>278.438965</ele>
        <time>2011-08-27T12:42:33Z</time>
      </trkpt>
      <trkpt lat="43.95735" lon="1.85963">
        <ele>280.361694</ele>
        <time>2011-08-27T12:42:37Z</time>
      </trkpt>
      <trkpt lat="43.95733" lon="1.85892">
        <ele>282.765015</ele>
        <time>2011-08-27T12:42:46Z</time>
      </trkpt>
      <trkpt lat="43.95733" lon="1.85834">
        <ele>285.168213</ele>
        <time>2011-08-27T12:42:53Z</time>
      </trkpt>
      <trkpt lat="43.95732" lon="1.85778">
        <ele>288.532959</ele>
        <time>2011-08-27T12:43:00Z</time>
      </trkpt>
      <trkpt lat="43.95731" lon="1.85771">
        <ele>287.571411</ele>
        <time>2011-08-27T12:43:01Z</time>
      </trkpt>
      <trkpt lat="43.9573" lon="1.85718">
        <ele>290.455566</ele>
        <time>2011-08-27T12:43:07Z</time>
      </trkpt>
      <trkpt lat="43.95735" lon="1.8555">
        <ele>293.339355</ele>
        <time>2011-08-27T12:43:26Z</time>
      </trkpt>
      <trkpt lat="43.9575" lon="1.85361">
        <ele>292.378174</ele>
        <time>2011-08-27T12:43:46Z</time>
      </trkpt>
      <trkpt lat="43.9577" lon="1.85113">
        <ele>291.897461</ele>
        <time>2011-08-27T12:44:09Z</time>
      </trkpt>
      <trkpt lat="43.95788" lon="1.84914">
        <ele>291.897461</ele>
        <time>2011-08-27T12:44:27Z</time>
      </trkpt>
      <trkpt lat="43.95808" lon="1.84675">
        <ele>291.416748</ele>
        <time>2011-08-27T12:44:48Z</time>
      </trkpt>
      <trkpt lat="43.95818" lon="1.84541">
        <ele>290.936157</ele>
        <time>2011-08-27T12:44:59Z</time>
      </trkpt>
      <trkpt lat="43.95837" lon="1.84308">
        <ele>292.858765</ele>
        <time>2011-08-27T12:45:20Z</time>
      </trkpt>
      <trkpt lat="43.95838" lon="1.8427">
        <ele>291.416748</ele>
        <time>2011-08-27T12:45:24Z</time>
      </trkpt>
      <trkpt lat="43.95822" lon="1.84118">
        <ele>287.571411</ele>
        <time>2011-08-27T12:45:38Z</time>
      </trkpt>
      <trkpt lat="43.95791" lon="1.83989">
        <ele>284.687622</ele>
        <time>2011-08-27T12:45:49Z</time>
      </trkpt>
      <trkpt lat="43.95758" lon="1.8383">
        <ele>284.687622</ele>
        <time>2011-08-27T12:46:03Z</time>
      </trkpt>
      <trkpt lat="43.95755" lon="1.83786">
        <ele>284.687622</ele>
        <time>2011-08-27T12:46:07Z</time>
      </trkpt>
      <trkpt lat="43.95743" lon="1.83627">
        <ele>282.765015</ele>
        <time>2011-08-27T12:46:22Z</time>
      </trkpt>
      <trkpt lat="43.95729" lon="1.83496">
        <ele>280.842407</ele>
        <time>2011-08-27T12:46:34Z</time>
      </trkpt>
      <trkpt lat="43.95733" lon="1.83447">
        <ele>279.880859</ele>
        <time>2011-08-27T12:46:38Z</time>
      </trkpt>
      <trkpt lat="43.95741" lon="1.83412">
        <ele>278.919678</ele>
        <time>2011-08-27T12:46:41Z</time>
      </trkpt>
      <trkpt lat="43.95809" lon="1.83318">
        <ele>276.99707</ele>
        <time>2011-08-27T12:46:52Z</time>
      </trkpt>
      <trkpt lat="43.95881" lon="1.83255">
        <ele>275.074463</ele>
        <time>2011-08-27T12:47:02Z</time>
      </trkpt>
      <trkpt lat="43.95887" lon="1.83248">
        <ele>274.59375</ele>
        <time>2011-08-27T12:47:03Z</time>
      </trkpt>
      <trkpt lat="43.95932" lon="1.83196">
        <ele>274.59375</ele>
        <time>2011-08-27T12:47:10Z</time>
      </trkpt>
      <trkpt lat="43.95946" lon="1.83153">
        <ele>273.151855</ele>
        <time>2011-08-27T12:47:14Z</time>
      </trkpt>
      <trkpt lat="43.9594" lon="1.83034">
        <ele>270.748413</ele>
        <time>2011-08-27T12:47:24Z</time>
      </trkpt>
      <trkpt lat="43.95943" lon="1.82888">
        <ele>268.345093</ele>
        <time>2011-08-27T12:47:36Z</time>
      </trkpt>
      <trkpt lat="43.9594" lon="1.82851">
        <ele>267.864502</ele>
        <time>2011-08-27T12:47:39Z</time>
      </trkpt>
      <trkpt lat="43.95961" lon="1.82729">
        <ele>265.461304</ele>
        <time>2011-08-27T12:47:49Z</time>
      </trkpt>
      <trkpt lat="43.9598" lon="1.82662">
        <ele>264.499878</ele>
        <time>2011-08-27T12:47:55Z</time>
      </trkpt>
      <trkpt lat="43.96033" lon="1.82574">
        <ele>262.096558</ele>
        <time>2011-08-27T12:48:04Z</time>
      </trkpt>
      <trkpt lat="43.96127" lon="1.82499">
        <ele>261.135254</ele>
        <time>2011-08-27T12:48:16Z</time>
      </trkpt>
      <trkpt lat="43.96217" lon="1.82444">
        <ele>260.17395</ele>
        <time>2011-08-27T12:48:27Z</time>
      </trkpt>
      <trkpt lat="43.96225" lon="1.82427">
        <ele>257.290039</ele>
        <time>2011-08-27T12:48:32Z</time>
      </trkpt>
      <trkpt lat="43.96211" lon="1.82434">
        <ele>258.731934</ele>
        <time>2011-08-27T12:48:35Z</time>
      </trkpt>
      <trkpt lat="43.96172" lon="1.82458">
        <ele>260.17395</ele>
        <time>2011-08-27T12:48:41Z</time>
      </trkpt>
      <trkpt lat="43.96137" lon="1.8248">
        <ele>261.615967</ele>
        <time>2011-08-27T12:48:47Z</time>
      </trkpt>
      <trkpt lat="43.96114" lon="1.82491">
        <ele>263.057861</ele>
        <time>2011-08-27T12:48:51Z</time>
      </trkpt>
      <trkpt lat="43.96099" lon="1.82499">
        <ele>264.980591</ele>
        <time>2011-08-27T12:48:54Z</time>
      </trkpt>
      <trkpt lat="43.96053" lon="1.82527">
        <ele>268.345093</ele>
        <time>2011-08-27T12:49:04Z</time>
      </trkpt>
      <trkpt lat="43.96032" lon="1.82536">
        <ele>270.748413</ele>
        <time>2011-08-27T12:49:08Z</time>
      </trkpt>
      <trkpt lat="43.96019" lon="1.82543">
        <ele>271.229126</ele>
        <time>2011-08-27T12:49:11Z</time>
      </trkpt>
      <trkpt lat="43.95993" lon="1.82561">
        <ele>273.632446</ele>
        <time>2011-08-27T12:49:16Z</time>
      </trkpt>
      <trkpt lat="43.95966" lon="1.82601">
        <ele>275.555054</ele>
        <time>2011-08-27T12:49:24Z</time>
      </trkpt>
      <trkpt lat="43.95938" lon="1.82665">
        <ele>279.400269</ele>
        <time>2011-08-27T12:49:35Z</time>
      </trkpt>
      <trkpt lat="43.95916" lon="1.82717">
        <ele>282.284302</ele>
        <time>2011-08-27T12:49:44Z</time>
      </trkpt>
      <trkpt lat="43.9586" lon="1.82774">
        <ele>283.726196</ele>
        <time>2011-08-27T12:49:58Z</time>
      </trkpt>
      <trkpt lat="43.95821" lon="1.82805">
        <ele>283.726196</ele>
        <time>2011-08-27T12:50:06Z</time>
      </trkpt>
      <trkpt lat="43.95782" lon="1.8281">
        <ele>285.648804</ele>
        <time>2011-08-27T12:50:12Z</time>
      </trkpt>
      <trkpt lat="43.95764" lon="1.82808">
        <ele>285.648804</ele>
        <time>2011-08-27T12:50:15Z</time>
      </trkpt>
      <trkpt lat="43.95736" lon="1.82802">
        <ele>286.610229</ele>
        <time>2011-08-27T12:50:20Z</time>
      </trkpt>
      <trkpt lat="43.95701" lon="1.82815">
        <ele>287.571411</ele>
        <time>2011-08-27T12:50:26Z</time>
      </trkpt>
      <trkpt lat="43.95681" lon="1.82831">
        <ele>286.129517</ele>
        <time>2011-08-27T12:50:29Z</time>
      </trkpt>
      <trkpt lat="43.95646" lon="1.82865">
        <ele>285.648804</ele>
        <time>2011-08-27T12:50:34Z</time>
      </trkpt>
      <trkpt lat="43.95606" lon="1.82879">
        <ele>286.129517</ele>
        <time>2011-08-27T12:50:39Z</time>
      </trkpt>
      <trkpt lat="43.95583" lon="1.82878">
        <ele>286.610229</ele>
        <time>2011-08-27T12:50:42Z</time>
      </trkpt>
      <trkpt lat="43.95546" lon="1.82886">
        <ele>287.571411</ele>
        <time>2011-08-27T12:50:47Z</time>
      </trkpt>
      <trkpt lat="43.95505" lon="1.82859">
        <ele>289.01355</ele>
        <time>2011-08-27T12:50:53Z</time>
      </trkpt>
      <trkpt lat="43.95418" lon="1.82675">
        <ele>290.455566</ele>
        <time>2011-08-27T12:51:14Z</time>
      </trkpt>
      <trkpt lat="43.95342" lon="1.82533">
        <ele>288.052246</ele>
        <time>2011-08-27T12:51:31Z</time>
      </trkpt>
      <trkpt lat="43.95289" lon="1.82423">
        <ele>284.687622</ele>
        <time>2011-08-27T12:51:42Z</time>
      </trkpt>
      <trkpt lat="43.95213" lon="1.82263">
        <ele>281.803589</ele>
        <time>2011-08-27T12:51:56Z</time>
      </trkpt>
      <trkpt lat="43.95133" lon="1.82169">
        <ele>282.765015</ele>
        <time>2011-08-27T12:52:07Z</time>
      </trkpt>
      <trkpt lat="43.95043" lon="1.82029">
        <ele>283.245605</ele>
        <time>2011-08-27T12:52:22Z</time>
      </trkpt>
      <trkpt lat="43.95001" lon="1.81932">
        <ele>283.726196</ele>
        <time>2011-08-27T12:52:31Z</time>
      </trkpt>
      <trkpt lat="43.95002" lon="1.81807">
        <ele>283.245605</ele>
        <time>2011-08-27T12:52:42Z</time>
      </trkpt>
      <trkpt lat="43.95019" lon="1.81587">
        <ele>280.361694</ele>
        <time>2011-08-27T12:53:03Z</time>
      </trkpt>
      <trkpt lat="43.95024" lon="1.81541">
        <ele>278.919678</ele>
        <time>2011-08-27T12:53:07Z</time>
      </trkpt>
      <trkpt lat="43.95033" lon="1.81406">
        <ele>275.555054</ele>
        <time>2011-08-27T12:53:19Z</time>
      </trkpt>
      <trkpt lat="43.9504" lon="1.81303">
        <ele>274.113037</ele>
        <time>2011-08-27T12:53:28Z</time>
      </trkpt>
      <trkpt lat="43.95031" lon="1.81245">
        <ele>273.632446</ele>
        <time>2011-08-27T12:53:33Z</time>
      </trkpt>
      <trkpt lat="43.95018" lon="1.81209">
        <ele>274.113037</ele>
        <time>2011-08-27T12:53:37Z</time>
      </trkpt>
      <trkpt lat="43.95012" lon="1.8119">
        <ele>274.59375</ele>
        <time>2011-08-27T12:53:39Z</time>
      </trkpt>
      <trkpt lat="43.95008" lon="1.8115">
        <ele>276.99707</ele>
        <time>2011-08-27T12:53:43Z</time>
      </trkpt>
      <trkpt lat="43.9502" lon="1.81064">
        <ele>281.322998</ele>
        <time>2011-08-27T12:53:52Z</time>
      </trkpt>
      <trkpt lat="43.9502" lon="1.81055">
        <ele>281.322998</ele>
        <time>2011-08-27T12:53:53Z</time>
      </trkpt>
      <trkpt lat="43.95022" lon="1.81037">
        <ele>281.803589</ele>
        <time>2011-08-27T12:53:55Z</time>
      </trkpt>
      <trkpt lat="43.95029" lon="1.80982">
        <ele>283.726196</ele>
        <time>2011-08-27T12:54:01Z</time>
      </trkpt>
      <trkpt lat="43.95045" lon="1.80804">
        <ele>282.284302</ele>
        <time>2011-08-27T12:54:20Z</time>
      </trkpt>
      <trkpt lat="43.95059" lon="1.8068">
        <ele>284.206909</ele>
        <time>2011-08-27T12:54:33Z</time>
      </trkpt>
      <trkpt lat="43.95092" lon="1.8053">
        <ele>284.687622</ele>
        <time>2011-08-27T12:54:49Z</time>
      </trkpt>
      <trkpt lat="43.95126" lon="1.80339">
        <ele>281.803589</ele>
        <time>2011-08-27T12:55:09Z</time>
      </trkpt>
      <trkpt lat="43.95126" lon="1.80277">
        <ele>282.284302</ele>
        <time>2011-08-27T12:55:15Z</time>
      </trkpt>
      <trkpt lat="43.95114" lon="1.80215">
        <ele>280.842407</ele>
        <time>2011-08-27T12:55:21Z</time>
      </trkpt>
      <trkpt lat="43.95092" lon="1.80169">
        <ele>280.361694</ele>
        <time>2011-08-27T12:55:26Z</time>
      </trkpt>
      <trkpt lat="43.95007" lon="1.80027">
        <ele>277.477661</ele>
        <time>2011-08-27T12:55:42Z</time>
      </trkpt>
      <trkpt lat="43.95002" lon="1.80017">
        <ele>277.477661</ele>
        <time>2011-08-27T12:55:43Z</time>
      </trkpt>
      <trkpt lat="43.94962" lon="1.79934">
        <ele>274.59375</ele>
        <time>2011-08-27T12:55:51Z</time>
      </trkpt>
      <trkpt lat="43.94956" lon="1.79924">
        <ele>274.59375</ele>
        <time>2011-08-27T12:55:52Z</time>
      </trkpt>
      <trkpt lat="43.9491" lon="1.79799">
        <ele>271.709717</ele>
        <time>2011-08-27T12:56:03Z</time>
      </trkpt>
      <trkpt lat="43.94901" lon="1.79783">
        <ele>272.19043</ele>
        <time>2011-08-27T12:56:05Z</time>
      </trkpt>
      <trkpt lat="43.94865" lon="1.79739">
        <ele>276.035645</ele>
        <time>2011-08-27T12:56:11Z</time>
      </trkpt>
      <trkpt lat="43.94859" lon="1.79732">
        <ele>276.035645</ele>
        <time>2011-08-27T12:56:12Z</time>
      </trkpt>
      <trkpt lat="43.94844" lon="1.79713">
        <ele>277.477661</ele>
        <time>2011-08-27T12:56:15Z</time>
      </trkpt>
      <trkpt lat="43.94808" lon="1.79661">
        <ele>280.361694</ele>
        <time>2011-08-27T12:56:23Z</time>
      </trkpt>
      <trkpt lat="43.94771" lon="1.79593">
        <ele>277.477661</ele>
        <time>2011-08-27T12:56:33Z</time>
      </trkpt>
      <trkpt lat="43.94708" lon="1.79472">
        <ele>274.113037</ele>
        <time>2011-08-27T12:56:49Z</time>
      </trkpt>
      <trkpt lat="43.94657" lon="1.79358">
        <ele>270.748413</ele>
        <time>2011-08-27T12:57:02Z</time>
      </trkpt>
      <trkpt lat="43.9465" lon="1.7934">
        <ele>270.2677</ele>
        <time>2011-08-27T12:57:04Z</time>
      </trkpt>
      <trkpt lat="43.94594" lon="1.79258">
        <ele>271.229126</ele>
        <time>2011-08-27T12:57:15Z</time>
      </trkpt>
      <trkpt lat="43.94493" lon="1.79159">
        <ele>272.19043</ele>
        <time>2011-08-27T12:57:32Z</time>
      </trkpt>
      <trkpt lat="43.94388" lon="1.79018">
        <ele>272.19043</ele>
        <time>2011-08-27T12:57:51Z</time>
      </trkpt>
      <trkpt lat="43.94367" lon="1.78988">
        <ele>272.671143</ele>
        <time>2011-08-27T12:57:55Z</time>
      </trkpt>
      <trkpt lat="43.94351" lon="1.78919">
        <ele>271.229126</ele>
        <time>2011-08-27T12:58:02Z</time>
      </trkpt>
      <trkpt lat="43.94352" lon="1.7886">
        <ele>270.2677</ele>
        <time>2011-08-27T12:58:07Z</time>
      </trkpt>
      <trkpt lat="43.94322" lon="1.78824">
        <ele>267.864502</ele>
        <time>2011-08-27T12:58:12Z</time>
      </trkpt>
      <trkpt lat="43.94295" lon="1.78841">
        <ele>265.461304</ele>
        <time>2011-08-27T12:58:15Z</time>
      </trkpt>
      <trkpt lat="43.9426" lon="1.78868">
        <ele>264.019287</ele>
        <time>2011-08-27T12:58:19Z</time>
      </trkpt>
      <trkpt lat="43.94229" lon="1.78873">
        <ele>261.615967</ele>
        <time>2011-08-27T12:58:22Z</time>
      </trkpt>
      <trkpt lat="43.94202" lon="1.7885">
        <ele>259.693359</ele>
        <time>2011-08-27T12:58:25Z</time>
      </trkpt>
      <trkpt lat="43.94175" lon="1.78819">
        <ele>258.251343</ele>
        <time>2011-08-27T12:58:28Z</time>
      </trkpt>
      <trkpt lat="43.94156" lon="1.78798">
        <ele>256.809326</ele>
        <time>2011-08-27T12:58:30Z</time>
      </trkpt>
      <trkpt lat="43.94116" lon="1.7875">
        <ele>255.36731</ele>
        <time>2011-08-27T12:58:35Z</time>
      </trkpt>
      <trkpt lat="43.94099" lon="1.7872">
        <ele>256.328735</ele>
        <time>2011-08-27T12:58:38Z</time>
      </trkpt>
      <trkpt lat="43.9409" lon="1.78699">
        <ele>257.290039</ele>
        <time>2011-08-27T12:58:40Z</time>
      </trkpt>
      <trkpt lat="43.94084" lon="1.78678">
        <ele>258.251343</ele>
        <time>2011-08-27T12:58:42Z</time>
      </trkpt>
      <trkpt lat="43.9408" lon="1.78613">
        <ele>261.615967</ele>
        <time>2011-08-27T12:58:48Z</time>
      </trkpt>
      <trkpt lat="43.94078" lon="1.78568">
        <ele>263.057861</ele>
        <time>2011-08-27T12:58:52Z</time>
      </trkpt>
      <trkpt lat="43.94046" lon="1.78418">
        <ele>264.019287</ele>
        <time>2011-08-27T12:59:07Z</time>
      </trkpt>
      <trkpt lat="43.94043" lon="1.78401">
        <ele>263.538574</ele>
        <time>2011-08-27T12:59:09Z</time>
      </trkpt>
      <trkpt lat="43.9405" lon="1.78367">
        <ele>265.461304</ele>
        <time>2011-08-27T12:59:14Z</time>
      </trkpt>
      <trkpt lat="43.94055" lon="1.78362">
        <ele>265.461304</ele>
        <time>2011-08-27T12:59:15Z</time>
      </trkpt>
      <trkpt lat="43.94175" lon="1.78251">
        <ele>266.422485</ele>
        <time>2011-08-27T12:59:36Z</time>
      </trkpt>
      <trkpt lat="43.94217" lon="1.78188">
        <ele>264.019287</ele>
        <time>2011-08-27T12:59:46Z</time>
      </trkpt>
      <trkpt lat="43.94252" lon="1.78052">
        <ele>261.135254</ele>
        <time>2011-08-27T13:00:01Z</time>
      </trkpt>
      <trkpt lat="43.94257" lon="1.78022">
        <ele>261.135254</ele>
        <time>2011-08-27T13:00:04Z</time>
      </trkpt>
      <trkpt lat="43.94259" lon="1.77988">
        <ele>259.212646</ele>
        <time>2011-08-27T13:00:07Z</time>
      </trkpt>
      <trkpt lat="43.94248" lon="1.77912">
        <ele>258.251343</ele>
        <time>2011-08-27T13:00:14Z</time>
      </trkpt>
      <trkpt lat="43.9422" lon="1.77863">
        <ele>258.731934</ele>
        <time>2011-08-27T13:00:20Z</time>
      </trkpt>
      <trkpt lat="43.94115" lon="1.77786">
        <ele>260.17395</ele>
        <time>2011-08-27T13:00:36Z</time>
      </trkpt>
      <trkpt lat="43.9404" lon="1.77755">
        <ele>264.499878</ele>
        <time>2011-08-27T13:00:47Z</time>
      </trkpt>
      <trkpt lat="43.94034" lon="1.77753">
        <ele>264.019287</ele>
        <time>2011-08-27T13:00:48Z</time>
      </trkpt>
      <trkpt lat="43.93991" lon="1.77743">
        <ele>266.422485</ele>
        <time>2011-08-27T13:00:54Z</time>
      </trkpt>
      <trkpt lat="43.93979" lon="1.77738">
        <ele>266.903198</ele>
        <time>2011-08-27T13:00:56Z</time>
      </trkpt>
      <trkpt lat="43.93914" lon="1.77686">
        <ele>264.980591</ele>
        <time>2011-08-27T13:01:08Z</time>
      </trkpt>
      <trkpt lat="43.9379" lon="1.77601">
        <ele>262.096558</ele>
        <time>2011-08-27T13:01:24Z</time>
      </trkpt>
      <trkpt lat="43.93706" lon="1.77542">
        <ele>260.17395</ele>
        <time>2011-08-27T13:01:34Z</time>
      </trkpt>
      <trkpt lat="43.93684" lon="1.77523">
        <ele>261.615967</ele>
        <time>2011-08-27T13:01:37Z</time>
      </trkpt>
      <trkpt lat="43.93656" lon="1.77495">
        <ele>260.654541</ele>
        <time>2011-08-27T13:01:41Z</time>
      </trkpt>
      <trkpt lat="43.93619" lon="1.77445">
        <ele>261.615967</ele>
        <time>2011-08-27T13:01:47Z</time>
      </trkpt>
      <trkpt lat="43.93591" lon="1.77386">
        <ele>260.17395</ele>
        <time>2011-08-27T13:01:53Z</time>
      </trkpt>
      <trkpt lat="43.93577" lon="1.77297">
        <ele>260.17395</ele>
        <time>2011-08-27T13:02:01Z</time>
      </trkpt>
      <trkpt lat="43.93574" lon="1.77275">
        <ele>259.693359</ele>
        <time>2011-08-27T13:02:03Z</time>
      </trkpt>
      <trkpt lat="43.93568" lon="1.77242">
        <ele>260.17395</ele>
        <time>2011-08-27T13:02:06Z</time>
      </trkpt>
      <trkpt lat="43.9355" lon="1.77201">
        <ele>259.693359</ele>
        <time>2011-08-27T13:02:10Z</time>
      </trkpt>
      <trkpt lat="43.93506" lon="1.77128">
        <ele>261.615967</ele>
        <time>2011-08-27T13:02:18Z</time>
      </trkpt>
      <trkpt lat="43.93441" lon="1.77023">
        <ele>260.654541</ele>
        <time>2011-08-27T13:02:31Z</time>
      </trkpt>
      <trkpt lat="43.93387" lon="1.76946">
        <ele>258.731934</ele>
        <time>2011-08-27T13:02:41Z</time>
      </trkpt>
      <trkpt lat="43.93365" lon="1.76898">
        <ele>258.251343</ele>
        <time>2011-08-27T13:02:46Z</time>
      </trkpt>
      <trkpt lat="43.9336" lon="1.7685">
        <ele>258.251343</ele>
        <time>2011-08-27T13:02:50Z</time>
      </trkpt>
      <trkpt lat="43.93368" lon="1.76792">
        <ele>257.770752</ele>
        <time>2011-08-27T13:02:54Z</time>
      </trkpt>
      <trkpt lat="43.93386" lon="1.76746">
        <ele>257.770752</ele>
        <time>2011-08-27T13:02:58Z</time>
      </trkpt>
      <trkpt lat="43.93447" lon="1.76583">
        <ele>257.770752</ele>
        <time>2011-08-27T13:03:13Z</time>
      </trkpt>
      <trkpt lat="43.93511" lon="1.76426">
        <ele>256.809326</ele>
        <time>2011-08-27T13:03:28Z</time>
      </trkpt>
      <trkpt lat="43.93569" lon="1.76311">
        <ele>257.290039</ele>
        <time>2011-08-27T13:03:41Z</time>
      </trkpt>
      <trkpt lat="43.93614" lon="1.76261">
        <ele>255.848022</ele>
        <time>2011-08-27T13:03:48Z</time>
      </trkpt>
      <trkpt lat="43.93674" lon="1.76173">
        <ele>256.328735</ele>
        <time>2011-08-27T13:03:59Z</time>
      </trkpt>
      <trkpt lat="43.93696" lon="1.76124">
        <ele>256.809326</ele>
        <time>2011-08-27T13:04:05Z</time>
      </trkpt>
      <trkpt lat="43.93722" lon="1.76071">
        <ele>255.848022</ele>
        <time>2011-08-27T13:04:11Z</time>
      </trkpt>
      <trkpt lat="43.9377" lon="1.76007">
        <ele>254.406006</ele>
        <time>2011-08-27T13:04:20Z</time>
      </trkpt>
      <trkpt lat="43.93804" lon="1.75962">
        <ele>254.886597</ele>
        <time>2011-08-27T13:04:26Z</time>
      </trkpt>
      <trkpt lat="43.93814" lon="1.75906">
        <ele>255.36731</ele>
        <time>2011-08-27T13:04:32Z</time>
      </trkpt>
      <trkpt lat="43.93812" lon="1.75879">
        <ele>255.36731</ele>
        <time>2011-08-27T13:04:35Z</time>
      </trkpt>
      <trkpt lat="43.938" lon="1.75803">
        <ele>256.809326</ele>
        <time>2011-08-27T13:04:44Z</time>
      </trkpt>
      <trkpt lat="43.93787" lon="1.75719">
        <ele>261.135254</ele>
        <time>2011-08-27T13:04:53Z</time>
      </trkpt>
      <trkpt lat="43.93778" lon="1.75648">
        <ele>260.654541</ele>
        <time>2011-08-27T13:05:00Z</time>
      </trkpt>
      <trkpt lat="43.9378" lon="1.75605">
        <ele>260.654541</ele>
        <time>2011-08-27T13:05:05Z</time>
      </trkpt>
      <trkpt lat="43.93785" lon="1.75545">
        <ele>258.731934</ele>
        <time>2011-08-27T13:05:11Z</time>
      </trkpt>
      <trkpt lat="43.93804" lon="1.75399">
        <ele>257.290039</ele>
        <time>2011-08-27T13:05:26Z</time>
      </trkpt>
      <trkpt lat="43.93812" lon="1.75278">
        <ele>258.731934</ele>
        <time>2011-08-27T13:05:39Z</time>
      </trkpt>
      <trkpt lat="43.9382" lon="1.75221">
        <ele>259.693359</ele>
        <time>2011-08-27T13:05:45Z</time>
      </trkpt>
      <trkpt lat="43.93851" lon="1.75111">
        <ele>257.770752</ele>
        <time>2011-08-27T13:05:57Z</time>
      </trkpt>
      <trkpt lat="43.9391" lon="1.7502">
        <ele>257.290039</ele>
        <time>2011-08-27T13:06:09Z</time>
      </trkpt>
      <trkpt lat="43.9392" lon="1.75004">
        <ele>257.290039</ele>
        <time>2011-08-27T13:06:11Z</time>
      </trkpt>
      <trkpt lat="43.93932" lon="1.74969">
        <ele>256.809326</ele>
        <time>2011-08-27T13:06:15Z</time>
      </trkpt>
      <trkpt lat="43.93934" lon="1.74939">
        <ele>257.290039</ele>
        <time>2011-08-27T13:06:18Z</time>
      </trkpt>
      <trkpt lat="43.93934" lon="1.74884">
        <ele>256.809326</ele>
        <time>2011-08-27T13:06:23Z</time>
      </trkpt>
      <trkpt lat="43.93936" lon="1.74838">
        <ele>256.328735</ele>
        <time>2011-08-27T13:06:27Z</time>
      </trkpt>
      <trkpt lat="43.93939" lon="1.74753">
        <ele>256.328735</ele>
        <time>2011-08-27T13:06:35Z</time>
      </trkpt>
      <trkpt lat="43.93949" lon="1.74656">
        <ele>258.251343</ele>
        <time>2011-08-27T13:06:44Z</time>
      </trkpt>
      <trkpt lat="43.93952" lon="1.7452">
        <ele>259.693359</ele>
        <time>2011-08-27T13:06:56Z</time>
      </trkpt>
      <trkpt lat="43.93954" lon="1.74469">
        <ele>259.212646</ele>
        <time>2011-08-27T13:07:01Z</time>
      </trkpt>
      <trkpt lat="43.93955" lon="1.74449">
        <ele>259.212646</ele>
        <time>2011-08-27T13:07:03Z</time>
      </trkpt>
      <trkpt lat="43.93963" lon="1.74416">
        <ele>258.731934</ele>
        <time>2011-08-27T13:07:06Z</time>
      </trkpt>
      <trkpt lat="43.93969" lon="1.74397">
        <ele>258.251343</ele>
        <time>2011-08-27T13:07:08Z</time>
      </trkpt>
      <trkpt lat="43.94" lon="1.74321">
        <ele>257.770752</ele>
        <time>2011-08-27T13:07:16Z</time>
      </trkpt>
      <trkpt lat="43.94031" lon="1.74157">
        <ele>255.36731</ele>
        <time>2011-08-27T13:07:30Z</time>
      </trkpt>
      <trkpt lat="43.94033" lon="1.74145">
        <ele>254.886597</ele>
        <time>2011-08-27T13:07:31Z</time>
      </trkpt>
      <trkpt lat="43.94035" lon="1.74097">
        <ele>254.406006</ele>
        <time>2011-08-27T13:07:35Z</time>
      </trkpt>
      <trkpt lat="43.9403" lon="1.74036">
        <ele>254.886597</ele>
        <time>2011-08-27T13:07:40Z</time>
      </trkpt>
      <trkpt lat="43.94042" lon="1.73895">
        <ele>255.848022</ele>
        <time>2011-08-27T13:07:51Z</time>
      </trkpt>
      <trkpt lat="43.94066" lon="1.73762">
        <ele>254.406006</ele>
        <time>2011-08-27T13:08:02Z</time>
      </trkpt>
      <trkpt lat="43.94069" lon="1.73715">
        <ele>254.886597</ele>
        <time>2011-08-27T13:08:06Z</time>
      </trkpt>
      <trkpt lat="43.94062" lon="1.7367">
        <ele>254.406006</ele>
        <time>2011-08-27T13:08:10Z</time>
      </trkpt>
      <trkpt lat="43.94053" lon="1.73627">
        <ele>256.328735</ele>
        <time>2011-08-27T13:08:14Z</time>
      </trkpt>
      <trkpt lat="43.94043" lon="1.73582">
        <ele>255.36731</ele>
        <time>2011-08-27T13:08:19Z</time>
      </trkpt>
      <trkpt lat="43.94032" lon="1.7355">
        <ele>253.925415</ele>
        <time>2011-08-27T13:08:23Z</time>
      </trkpt>
      <trkpt lat="43.94019" lon="1.73471">
        <ele>252.963989</ele>
        <time>2011-08-27T13:08:30Z</time>
      </trkpt>
      <trkpt lat="43.94019" lon="1.73304">
        <ele>253.925415</ele>
        <time>2011-08-27T13:08:45Z</time>
      </trkpt>
      <trkpt lat="43.9402" lon="1.73256">
        <ele>252.963989</ele>
        <time>2011-08-27T13:08:50Z</time>
      </trkpt>
      <trkpt lat="43.9402" lon="1.73237">
        <ele>252.963989</ele>
        <time>2011-08-27T13:08:52Z</time>
      </trkpt>
      <trkpt lat="43.94031" lon="1.73198">
        <ele>253.444702</ele>
        <time>2011-08-27T13:08:56Z</time>
      </trkpt>
      <trkpt lat="43.94091" lon="1.73101">
        <ele>253.444702</ele>
        <time>2011-08-27T13:09:08Z</time>
      </trkpt>
      <trkpt lat="43.94132" lon="1.72953">
        <ele>254.406006</ele>
        <time>2011-08-27T13:09:22Z</time>
      </trkpt>
      <trkpt lat="43.94177" lon="1.72813">
        <ele>254.406006</ele>
        <time>2011-08-27T13:09:36Z</time>
      </trkpt>
      <trkpt lat="43.94219" lon="1.72641">
        <ele>253.444702</ele>
        <time>2011-08-27T13:09:54Z</time>
      </trkpt>
      <trkpt lat="43.94224" lon="1.72461">
        <ele>254.406006</ele>
        <time>2011-08-27T13:10:11Z</time>
      </trkpt>
      <trkpt lat="43.94225" lon="1.7245">
        <ele>254.886597</ele>
        <time>2011-08-27T13:10:12Z</time>
      </trkpt>
      <trkpt lat="43.94244" lon="1.72281">
        <ele>254.886597</ele>
        <time>2011-08-27T13:10:28Z</time>
      </trkpt>
      <trkpt lat="43.94218" lon="1.72147">
        <ele>256.328735</ele>
        <time>2011-08-27T13:10:41Z</time>
      </trkpt>
      <trkpt lat="43.94213" lon="1.72127">
        <ele>256.328735</ele>
        <time>2011-08-27T13:10:43Z</time>
      </trkpt>
      <trkpt lat="43.94205" lon="1.72089">
        <ele>257.770752</ele>
        <time>2011-08-27T13:10:47Z</time>
      </trkpt>
      <trkpt lat="43.94179" lon="1.71985">
        <ele>256.328735</ele>
        <time>2011-08-27T13:10:58Z</time>
      </trkpt>
      <trkpt lat="43.94158" lon="1.71977">
        <ele>257.290039</ele>
        <time>2011-08-27T13:11:03Z</time>
      </trkpt>
      <trkpt lat="43.94071" lon="1.72046">
        <ele>256.328735</ele>
        <time>2011-08-27T13:11:17Z</time>
      </trkpt>
      <trkpt lat="43.93952" lon="1.72149">
        <ele>255.848022</ele>
        <time>2011-08-27T13:11:34Z</time>
      </trkpt>
      <trkpt lat="43.93835" lon="1.72284">
        <ele>256.328735</ele>
        <time>2011-08-27T13:11:52Z</time>
      </trkpt>
      <trkpt lat="43.93777" lon="1.72353">
        <ele>255.36731</ele>
        <time>2011-08-27T13:12:01Z</time>
      </trkpt>
      <trkpt lat="43.93694" lon="1.72388">
        <ele>254.886597</ele>
        <time>2011-08-27T13:12:11Z</time>
      </trkpt>
      <trkpt lat="43.93626" lon="1.72462">
        <ele>252.002808</ele>
        <time>2011-08-27T13:12:20Z</time>
      </trkpt>
      <trkpt lat="43.93598" lon="1.72484">
        <ele>250.560791</ele>
        <time>2011-08-27T13:12:23Z</time>
      </trkpt>
      <trkpt lat="43.93576" lon="1.72491">
        <ele>250.560791</ele>
        <time>2011-08-27T13:12:25Z</time>
      </trkpt>
      <trkpt lat="43.93419" lon="1.7253">
        <ele>249.599487</ele>
        <time>2011-08-27T13:12:41Z</time>
      </trkpt>
      <trkpt lat="43.93341" lon="1.7256">
        <ele>247.676758</ele>
        <time>2011-08-27T13:12:50Z</time>
      </trkpt>
      <trkpt lat="43.93306" lon="1.72594">
        <ele>247.676758</ele>
        <time>2011-08-27T13:12:55Z</time>
      </trkpt>
      <trkpt lat="43.93245" lon="1.72666">
        <ele>250.560791</ele>
        <time>2011-08-27T13:13:05Z</time>
      </trkpt>
      <trkpt lat="43.93221" lon="1.72686">
        <ele>252.002808</ele>
        <time>2011-08-27T13:13:09Z</time>
      </trkpt>
      <trkpt lat="43.932" lon="1.72705">
        <ele>251.041382</ele>
        <time>2011-08-27T13:13:13Z</time>
      </trkpt>
      <trkpt lat="43.93148" lon="1.72744">
        <ele>251.041382</ele>
        <time>2011-08-27T13:13:21Z</time>
      </trkpt>
      <trkpt lat="43.93113" lon="1.72752">
        <ele>250.560791</ele>
        <time>2011-08-27T13:13:26Z</time>
      </trkpt>
      <trkpt lat="43.93029" lon="1.72753">
        <ele>251.522095</ele>
        <time>2011-08-27T13:13:36Z</time>
      </trkpt>
      <trkpt lat="43.9293" lon="1.72756">
        <ele>250.560791</ele>
        <time>2011-08-27T13:13:48Z</time>
      </trkpt>
      <trkpt lat="43.92839" lon="1.72734">
        <ele>251.041382</ele>
        <time>2011-08-27T13:14:00Z</time>
      </trkpt>
      <trkpt lat="43.92807" lon="1.72739">
        <ele>250.560791</ele>
        <time>2011-08-27T13:14:04Z</time>
      </trkpt>
      <trkpt lat="43.92719" lon="1.72793">
        <ele>248.157593</ele>
        <time>2011-08-27T13:14:15Z</time>
      </trkpt>
      <trkpt lat="43.9263" lon="1.72874">
        <ele>246.715454</ele>
        <time>2011-08-27T13:14:27Z</time>
      </trkpt>
      <trkpt lat="43.9259" lon="1.72949">
        <ele>247.196045</ele>
        <time>2011-08-27T13:14:34Z</time>
      </trkpt>
      <trkpt lat="43.92548" lon="1.73099">
        <ele>249.599487</ele>
        <time>2011-08-27T13:14:47Z</time>
      </trkpt>
      <trkpt lat="43.92518" lon="1.73152">
        <ele>249.599487</ele>
        <time>2011-08-27T13:14:53Z</time>
      </trkpt>
      <trkpt lat="43.92434" lon="1.73214">
        <ele>248.157593</ele>
        <time>2011-08-27T13:15:04Z</time>
      </trkpt>
      <trkpt lat="43.92351" lon="1.73239">
        <ele>244.792847</ele>
        <time>2011-08-27T13:15:13Z</time>
      </trkpt>
      <trkpt lat="43.92272" lon="1.73256">
        <ele>241.908936</ele>
        <time>2011-08-27T13:15:21Z</time>
      </trkpt>
      <trkpt lat="43.92201" lon="1.7326">
        <ele>239.505493</ele>
        <time>2011-08-27T13:15:28Z</time>
      </trkpt>
      <trkpt lat="43.92158" lon="1.73315">
        <ele>237.582886</ele>
        <time>2011-08-27T13:15:34Z</time>
      </trkpt>
      <trkpt lat="43.92155" lon="1.73329">
        <ele>236.621704</ele>
        <time>2011-08-27T13:15:35Z</time>
      </trkpt>
      <trkpt lat="43.92148" lon="1.73372">
        <ele>235.179688</ele>
        <time>2011-08-27T13:15:38Z</time>
      </trkpt>
      <trkpt lat="43.92122" lon="1.73418">
        <ele>233.25708</ele>
        <time>2011-08-27T13:15:42Z</time>
      </trkpt>
      <trkpt lat="43.92104" lon="1.73436">
        <ele>233.25708</ele>
        <time>2011-08-27T13:15:44Z</time>
      </trkpt>
      <trkpt lat="43.92075" lon="1.73484">
        <ele>231.334351</ele>
        <time>2011-08-27T13:15:48Z</time>
      </trkpt>
      <trkpt lat="43.92063" lon="1.73512">
        <ele>230.373047</ele>
        <time>2011-08-27T13:15:50Z</time>
      </trkpt>
      <trkpt lat="43.92027" lon="1.73577">
        <ele>227.969727</ele>
        <time>2011-08-27T13:15:55Z</time>
      </trkpt>
      <trkpt lat="43.91983" lon="1.73632">
        <ele>225.085938</ele>
        <time>2011-08-27T13:16:00Z</time>
      </trkpt>
      <trkpt lat="43.91909" lon="1.73722">
        <ele>221.721191</ele>
        <time>2011-08-27T13:16:08Z</time>
      </trkpt>
      <trkpt lat="43.91848" lon="1.73797">
        <ele>218.356567</ele>
        <time>2011-08-27T13:16:15Z</time>
      </trkpt>
      <trkpt lat="43.91803" lon="1.73852">
        <ele>216.43396</ele>
        <time>2011-08-27T13:16:20Z</time>
      </trkpt>
      <trkpt lat="43.91758" lon="1.73934">
        <ele>214.991943</ele>
        <time>2011-08-27T13:16:26Z</time>
      </trkpt>
      <trkpt lat="43.91744" lon="1.73981">
        <ele>213.069336</ele>
        <time>2011-08-27T13:16:29Z</time>
      </trkpt>
      <trkpt lat="43.91738" lon="1.74031">
        <ele>211.146729</ele>
        <time>2011-08-27T13:16:32Z</time>
      </trkpt>
      <trkpt lat="43.91729" lon="1.74117">
        <ele>208.743408</ele>
        <time>2011-08-27T13:16:37Z</time>
      </trkpt>
      <trkpt lat="43.91715" lon="1.74183">
        <ele>205.859497</ele>
        <time>2011-08-27T13:16:41Z</time>
      </trkpt>
      <trkpt lat="43.91698" lon="1.7423">
        <ele>204.41748</ele>
        <time>2011-08-27T13:16:44Z</time>
      </trkpt>
      <trkpt lat="43.91651" lon="1.74351">
        <ele>201.052856</ele>
        <time>2011-08-27T13:16:52Z</time>
      </trkpt>
      <trkpt lat="43.91618" lon="1.74442">
        <ele>197.688232</ele>
        <time>2011-08-27T13:16:58Z</time>
      </trkpt>
      <trkpt lat="43.91611" lon="1.74456">
        <ele>197.688232</ele>
        <time>2011-08-27T13:16:59Z</time>
      </trkpt>
      <trkpt lat="43.91549" lon="1.74562">
        <ele>193.362305</ele>
        <time>2011-08-27T13:17:07Z</time>
      </trkpt>
      <trkpt lat="43.91541" lon="1.74575">
        <ele>193.362305</ele>
        <time>2011-08-27T13:17:08Z</time>
      </trkpt>
      <trkpt lat="43.91503" lon="1.74638">
        <ele>190.958984</ele>
        <time>2011-08-27T13:17:13Z</time>
      </trkpt>
      <trkpt lat="43.91449" lon="1.74729">
        <ele>188.075073</ele>
        <time>2011-08-27T13:17:20Z</time>
      </trkpt>
      <trkpt lat="43.91403" lon="1.74808">
        <ele>184.710571</ele>
        <time>2011-08-27T13:17:26Z</time>
      </trkpt>
      <trkpt lat="43.91363" lon="1.74871">
        <ele>180.865234</ele>
        <time>2011-08-27T13:17:31Z</time>
      </trkpt>
      <trkpt lat="43.91301" lon="1.74918">
        <ele>178.942627</ele>
        <time>2011-08-27T13:17:37Z</time>
      </trkpt>
      <trkpt lat="43.9121" lon="1.74944">
        <ele>175.577881</ele>
        <time>2011-08-27T13:17:45Z</time>
      </trkpt>
      <trkpt lat="43.91199" lon="1.74945">
        <ele>175.577881</ele>
        <time>2011-08-27T13:17:46Z</time>
      </trkpt>
      <trkpt lat="43.91122" lon="1.74947">
        <ele>172.213257</ele>
        <time>2011-08-27T13:17:53Z</time>
      </trkpt>
      <trkpt lat="43.91023" lon="1.74912">
        <ele>171.252075</ele>
        <time>2011-08-27T13:18:03Z</time>
      </trkpt>
      <trkpt lat="43.90945" lon="1.74836">
        <ele>169.329468</ele>
        <time>2011-08-27T13:18:14Z</time>
      </trkpt>
      <trkpt lat="43.909" lon="1.74793">
        <ele>170.290649</ele>
        <time>2011-08-27T13:18:21Z</time>
      </trkpt>
      <trkpt lat="43.9087" lon="1.74738">
        <ele>173.174683</ele>
        <time>2011-08-27T13:18:29Z</time>
      </trkpt>
      <trkpt lat="43.90848" lon="1.74703">
        <ele>175.09729</ele>
        <time>2011-08-27T13:18:35Z</time>
      </trkpt>
      <trkpt lat="43.90833" lon="1.74692">
        <ele>176.539307</ele>
        <time>2011-08-27T13:18:38Z</time>
      </trkpt>
      <trkpt lat="43.90803" lon="1.74675">
        <ele>180.384521</ele>
        <time>2011-08-27T13:18:45Z</time>
      </trkpt>
      <trkpt lat="43.90794" lon="1.74671">
        <ele>180.865234</ele>
        <time>2011-08-27T13:18:47Z</time>
      </trkpt>
      <trkpt lat="43.90775" lon="1.74663">
        <ele>182.787842</ele>
        <time>2011-08-27T13:18:51Z</time>
      </trkpt>
      <trkpt lat="43.90757" lon="1.74658">
        <ele>185.191162</ele>
        <time>2011-08-27T13:18:55Z</time>
      </trkpt>
      <trkpt lat="43.90722" lon="1.74652">
        <ele>188.075073</ele>
        <time>2011-08-27T13:19:03Z</time>
      </trkpt>
      <trkpt lat="43.90687" lon="1.74664">
        <ele>190.478394</ele>
        <time>2011-08-27T13:19:11Z</time>
      </trkpt>
      <trkpt lat="43.90637" lon="1.74719">
        <ele>193.843018</ele>
        <time>2011-08-27T13:19:26Z</time>
      </trkpt>
      <trkpt lat="43.90609" lon="1.74782">
        <ele>197.20752</ele>
        <time>2011-08-27T13:19:38Z</time>
      </trkpt>
      <trkpt lat="43.90602" lon="1.74799">
        <ele>197.688232</ele>
        <time>2011-08-27T13:19:41Z</time>
      </trkpt>
      <trkpt lat="43.90579" lon="1.74868">
        <ele>201.052856</ele>
        <time>2011-08-27T13:19:51Z</time>
      </trkpt>
      <trkpt lat="43.90552" lon="1.74926">
        <ele>203.93689</ele>
        <time>2011-08-27T13:20:00Z</time>
      </trkpt>
      <trkpt lat="43.90501" lon="1.74967">
        <ele>207.782104</ele>
        <time>2011-08-27T13:20:11Z</time>
      </trkpt>
      <trkpt lat="43.90455" lon="1.75019">
        <ele>211.146729</ele>
        <time>2011-08-27T13:20:22Z</time>
      </trkpt>
      <trkpt lat="43.90425" lon="1.75075">
        <ele>214.03064</ele>
        <time>2011-08-27T13:20:32Z</time>
      </trkpt>
      <trkpt lat="43.90412" lon="1.75108">
        <ele>214.51123</ele>
        <time>2011-08-27T13:20:38Z</time>
      </trkpt>
      <trkpt lat="43.904" lon="1.75152">
        <ele>217.875977</ele>
        <time>2011-08-27T13:20:45Z</time>
      </trkpt>
      <trkpt lat="43.90394" lon="1.75171">
        <ele>217.875977</ele>
        <time>2011-08-27T13:20:48Z</time>
      </trkpt>
      <trkpt lat="43.90374" lon="1.75238">
        <ele>220.759888</ele>
        <time>2011-08-27T13:20:57Z</time>
      </trkpt>
      <trkpt lat="43.90339" lon="1.75301">
        <ele>224.124512</ele>
        <time>2011-08-27T13:21:07Z</time>
      </trkpt>
      <trkpt lat="43.90293" lon="1.75378">
        <ele>227.489136</ele>
        <time>2011-08-27T13:21:20Z</time>
      </trkpt>
      <trkpt lat="43.90261" lon="1.75431">
        <ele>230.85376</ele>
        <time>2011-08-27T13:21:29Z</time>
      </trkpt>
      <trkpt lat="43.90235" lon="1.75468">
        <ele>232.295776</ele>
        <time>2011-08-27T13:21:36Z</time>
      </trkpt>
      <trkpt lat="43.90164" lon="1.75525">
        <ele>233.25708</ele>
        <time>2011-08-27T13:21:51Z</time>
      </trkpt>
      <trkpt lat="43.90089" lon="1.75578">
        <ele>233.25708</ele>
        <time>2011-08-27T13:22:04Z</time>
      </trkpt>
      <trkpt lat="43.90002" lon="1.7569">
        <ele>234.699097</ele>
        <time>2011-08-27T13:22:20Z</time>
      </trkpt>
      <trkpt lat="43.89915" lon="1.75789">
        <ele>237.102295</ele>
        <time>2011-08-27T13:22:35Z</time>
      </trkpt>
      <trkpt lat="43.89902" lon="1.758">
        <ele>236.621704</ele>
        <time>2011-08-27T13:22:37Z</time>
      </trkpt>
      <trkpt lat="43.89798" lon="1.75905">
        <ele>237.102295</ele>
        <time>2011-08-27T13:22:52Z</time>
      </trkpt>
      <trkpt lat="43.89673" lon="1.7606">
        <ele>234.699097</ele>
        <time>2011-08-27T13:23:10Z</time>
      </trkpt>
      <trkpt lat="43.89646" lon="1.76116">
        <ele>234.699097</ele>
        <time>2011-08-27T13:23:15Z</time>
      </trkpt>
      <trkpt lat="43.89609" lon="1.76158">
        <ele>230.373047</ele>
        <time>2011-08-27T13:23:20Z</time>
      </trkpt>
      <trkpt lat="43.89599" lon="1.76161">
        <ele>230.373047</ele>
        <time>2011-08-27T13:23:21Z</time>
      </trkpt>
      <trkpt lat="43.89525" lon="1.76182">
        <ele>226.527832</ele>
        <time>2011-08-27T13:23:28Z</time>
      </trkpt>
      <trkpt lat="43.89455" lon="1.76187">
        <ele>223.163208</ele>
        <time>2011-08-27T13:23:34Z</time>
      </trkpt>
      <trkpt lat="43.89395" lon="1.76206">
        <ele>219.798584</ele>
        <time>2011-08-27T13:23:39Z</time>
      </trkpt>
      <trkpt lat="43.89347" lon="1.76236">
        <ele>216.43396</ele>
        <time>2011-08-27T13:23:43Z</time>
      </trkpt>
      <trkpt lat="43.89275" lon="1.7629">
        <ele>213.550049</ele>
        <time>2011-08-27T13:23:49Z</time>
      </trkpt>
      <trkpt lat="43.8925" lon="1.76305">
        <ele>212.588623</ele>
        <time>2011-08-27T13:23:51Z</time>
      </trkpt>
      <trkpt lat="43.89201" lon="1.76333">
        <ele>208.743408</ele>
        <time>2011-08-27T13:23:55Z</time>
      </trkpt>
      <trkpt lat="43.89158" lon="1.76379">
        <ele>206.820679</ele>
        <time>2011-08-27T13:23:59Z</time>
      </trkpt>
      <trkpt lat="43.89141" lon="1.76407">
        <ele>205.378784</ele>
        <time>2011-08-27T13:24:01Z</time>
      </trkpt>
      <trkpt lat="43.89118" lon="1.76454">
        <ele>202.014282</ele>
        <time>2011-08-27T13:24:04Z</time>
      </trkpt>
      <trkpt lat="43.89095" lon="1.76501">
        <ele>199.130127</ele>
        <time>2011-08-27T13:24:07Z</time>
      </trkpt>
      <trkpt lat="43.89076" lon="1.7655">
        <ele>197.20752</ele>
        <time>2011-08-27T13:24:10Z</time>
      </trkpt>
      <trkpt lat="43.89052" lon="1.76618">
        <ele>193.843018</ele>
        <time>2011-08-27T13:24:14Z</time>
      </trkpt>
      <trkpt lat="43.89022" lon="1.76703">
        <ele>189.516968</ele>
        <time>2011-08-27T13:24:19Z</time>
      </trkpt>
      <trkpt lat="43.89016" lon="1.7672">
        <ele>189.516968</ele>
        <time>2011-08-27T13:24:20Z</time>
      </trkpt>
      <trkpt lat="43.88997" lon="1.76772">
        <ele>186.152466</ele>
        <time>2011-08-27T13:24:23Z</time>
      </trkpt>
      <trkpt lat="43.88975" lon="1.76842">
        <ele>181.826416</ele>
        <time>2011-08-27T13:24:27Z</time>
      </trkpt>
      <trkpt lat="43.88964" lon="1.76917">
        <ele>178.461914</ele>
        <time>2011-08-27T13:24:31Z</time>
      </trkpt>
      <trkpt lat="43.88954" lon="1.76974">
        <ele>176.539307</ele>
        <time>2011-08-27T13:24:34Z</time>
      </trkpt>
      <trkpt lat="43.88924" lon="1.77061">
        <ele>172.69397</ele>
        <time>2011-08-27T13:24:39Z</time>
      </trkpt>
      <trkpt lat="43.88904" lon="1.7711">
        <ele>168.848755</ele>
        <time>2011-08-27T13:24:42Z</time>
      </trkpt>
      <trkpt lat="43.88891" lon="1.77143">
        <ele>167.887329</ele>
        <time>2011-08-27T13:24:44Z</time>
      </trkpt>
      <trkpt lat="43.88871" lon="1.77193">
        <ele>164.522705</ele>
        <time>2011-08-27T13:24:47Z</time>
      </trkpt>
      <trkpt lat="43.88851" lon="1.77243">
        <ele>162.119507</ele>
        <time>2011-08-27T13:24:50Z</time>
      </trkpt>
      <trkpt lat="43.88822" lon="1.77287">
        <ele>159.716187</ele>
        <time>2011-08-27T13:24:53Z</time>
      </trkpt>
      <trkpt lat="43.8881" lon="1.77299">
        <ele>159.235474</ele>
        <time>2011-08-27T13:24:54Z</time>
      </trkpt>
      <trkpt lat="43.88785" lon="1.7732">
        <ele>158.27417</ele>
        <time>2011-08-27T13:24:56Z</time>
      </trkpt>
      <trkpt lat="43.88678" lon="1.77406">
        <ele>155.390259</ele>
        <time>2011-08-27T13:25:05Z</time>
      </trkpt>
      <trkpt lat="43.88607" lon="1.775">
        <ele>155.390259</ele>
        <time>2011-08-27T13:25:14Z</time>
      </trkpt>
      <trkpt lat="43.8854" lon="1.77678">
        <ele>154.428955</ele>
        <time>2011-08-27T13:25:29Z</time>
      </trkpt>
      <trkpt lat="43.88476" lon="1.7789">
        <ele>157.312866</ele>
        <time>2011-08-27T13:25:48Z</time>
      </trkpt>
      <trkpt lat="43.88429" lon="1.77968">
        <ele>160.67749</ele>
        <time>2011-08-27T13:25:57Z</time>
      </trkpt>
      <trkpt lat="43.88423" lon="1.77975">
        <ele>161.158203</ele>
        <time>2011-08-27T13:25:58Z</time>
      </trkpt>
      <trkpt lat="43.88356" lon="1.78043">
        <ele>164.042114</ele>
        <time>2011-08-27T13:26:09Z</time>
      </trkpt>
      <trkpt lat="43.88291" lon="1.78127">
        <ele>164.042114</ele>
        <time>2011-08-27T13:26:22Z</time>
      </trkpt>
      <trkpt lat="43.88252" lon="1.78182">
        <ele>162.119507</ele>
        <time>2011-08-27T13:26:29Z</time>
      </trkpt>
      <trkpt lat="43.88203" lon="1.78253">
        <ele>159.716187</ele>
        <time>2011-08-27T13:26:37Z</time>
      </trkpt>
      <trkpt lat="43.88176" lon="1.7829">
        <ele>157.793579</ele>
        <time>2011-08-27T13:26:41Z</time>
      </trkpt>
      <trkpt lat="43.88115" lon="1.7834">
        <ele>153.948364</ele>
        <time>2011-08-27T13:26:48Z</time>
      </trkpt>
      <trkpt lat="43.88036" lon="1.78388">
        <ele>150.583618</ele>
        <time>2011-08-27T13:26:56Z</time>
      </trkpt>
      <trkpt lat="43.87944" lon="1.78483">
        <ele>147.699707</ele>
        <time>2011-08-27T13:27:06Z</time>
      </trkpt>
      <trkpt lat="43.87894" lon="1.78541">
        <ele>144.335205</ele>
        <time>2011-08-27T13:27:12Z</time>
      </trkpt>
      <trkpt lat="43.87886" lon="1.78551">
        <ele>144.335205</ele>
        <time>2011-08-27T13:27:13Z</time>
      </trkpt>
      <trkpt lat="43.87825" lon="1.78612">
        <ele>141.45105</ele>
        <time>2011-08-27T13:27:20Z</time>
      </trkpt>
      <trkpt lat="43.87799" lon="1.78635">
        <ele>139.528442</ele>
        <time>2011-08-27T13:27:23Z</time>
      </trkpt>
      <trkpt lat="43.87737" lon="1.78687">
        <ele>136.644653</ele>
        <time>2011-08-27T13:27:31Z</time>
      </trkpt>
      <trkpt lat="43.87679" lon="1.78737">
        <ele>136.644653</ele>
        <time>2011-08-27T13:27:41Z</time>
      </trkpt>
      <trkpt lat="43.87586" lon="1.78817">
        <ele>134.721924</ele>
        <time>2011-08-27T13:27:53Z</time>
      </trkpt>
      <trkpt lat="43.87418" lon="1.78962">
        <ele>131.837891</ele>
        <time>2011-08-27T13:28:13Z</time>
      </trkpt>
      <trkpt lat="43.87275" lon="1.79118">
        <ele>131.3573</ele>
        <time>2011-08-27T13:28:30Z</time>
      </trkpt>
      <trkpt lat="43.87084" lon="1.79314">
        <ele>129.434692</ele>
        <time>2011-08-27T13:28:52Z</time>
      </trkpt>
      <trkpt lat="43.86926" lon="1.79448">
        <ele>127.511963</ele>
        <time>2011-08-27T13:29:11Z</time>
      </trkpt>
      <trkpt lat="43.86811" lon="1.79588">
        <ele>127.511963</ele>
        <time>2011-08-27T13:29:28Z</time>
      </trkpt>
      <trkpt lat="43.86683" lon="1.79809">
        <ele>126.550659</ele>
        <time>2011-08-27T13:29:51Z</time>
      </trkpt>
      <trkpt lat="43.86584" lon="1.79978">
        <ele>126.069946</ele>
        <time>2011-08-27T13:30:08Z</time>
      </trkpt>
      <trkpt lat="43.86446" lon="1.80188">
        <ele>124.628052</ele>
        <time>2011-08-27T13:30:31Z</time>
      </trkpt>
      <trkpt lat="43.86321" lon="1.80307">
        <ele>123.666748</ele>
        <time>2011-08-27T13:30:49Z</time>
      </trkpt>
      <trkpt lat="43.86106" lon="1.80464">
        <ele>121.744141</ele>
        <time>2011-08-27T13:31:18Z</time>
      </trkpt>
      <trkpt lat="43.86028" lon="1.80571">
        <ele>121.744141</ele>
        <time>2011-08-27T13:31:31Z</time>
      </trkpt>
      <trkpt lat="43.85957" lon="1.80701">
        <ele>121.744141</ele>
        <time>2011-08-27T13:31:45Z</time>
      </trkpt>
      <trkpt lat="43.85913" lon="1.80726">
        <ele>120.782837</ele>
        <time>2011-08-27T13:31:51Z</time>
      </trkpt>
      <trkpt lat="43.85879" lon="1.80729">
        <ele>121.26355</ele>
        <time>2011-08-27T13:31:55Z</time>
      </trkpt>
      <trkpt lat="43.85801" lon="1.8075">
        <ele>120.302124</ele>
        <time>2011-08-27T13:32:05Z</time>
      </trkpt>
      <trkpt lat="43.8576" lon="1.80756">
        <ele>121.744141</ele>
        <time>2011-08-27T13:32:10Z</time>
      </trkpt>
      <trkpt lat="43.85722" lon="1.80764">
        <ele>120.302124</ele>
        <time>2011-08-27T13:32:15Z</time>
      </trkpt>
      <trkpt lat="43.85694" lon="1.80779">
        <ele>121.26355</ele>
        <time>2011-08-27T13:32:19Z</time>
      </trkpt>
      <trkpt lat="43.85666" lon="1.80776">
        <ele>122.224731</ele>
        <time>2011-08-27T13:32:23Z</time>
      </trkpt>
      <trkpt lat="43.85567" lon="1.80699">
        <ele>121.744141</ele>
        <time>2011-08-27T13:32:37Z</time>
      </trkpt>
      <trkpt lat="43.85488" lon="1.80639">
        <ele>120.782837</ele>
        <time>2011-08-27T13:32:48Z</time>
      </trkpt>
      <trkpt lat="43.85462" lon="1.80657">
        <ele>120.302124</ele>
        <time>2011-08-27T13:32:53Z</time>
      </trkpt>
      <trkpt lat="43.8541" lon="1.808">
        <ele>117.898804</ele>
        <time>2011-08-27T13:33:07Z</time>
      </trkpt>
      <trkpt lat="43.85399" lon="1.80833">
        <ele>117.418213</ele>
        <time>2011-08-27T13:33:10Z</time>
      </trkpt>
      <trkpt lat="43.85349" lon="1.80956">
        <ele>117.418213</ele>
        <time>2011-08-27T13:33:23Z</time>
      </trkpt>
      <trkpt lat="43.85346" lon="1.80976">
        <ele>117.898804</ele>
        <time>2011-08-27T13:33:25Z</time>
      </trkpt>
      <trkpt lat="43.8534" lon="1.81001">
        <ele>116.456787</ele>
        <time>2011-08-27T13:33:28Z</time>
      </trkpt>
      <trkpt lat="43.85317" lon="1.81003">
        <ele>116.9375</ele>
        <time>2011-08-27T13:33:32Z</time>
      </trkpt>
      <trkpt lat="43.85259" lon="1.8096">
        <ele>117.898804</ele>
        <time>2011-08-27T13:33:41Z</time>
      </trkpt>
      <trkpt lat="43.85248" lon="1.80951">
        <ele>116.9375</ele>
        <time>2011-08-27T13:33:43Z</time>
      </trkpt>
      <trkpt lat="43.85232" lon="1.80939">
        <ele>118.379395</ele>
        <time>2011-08-27T13:33:46Z</time>
      </trkpt>
      <trkpt lat="43.85211" lon="1.80924">
        <ele>119.34082</ele>
        <time>2011-08-27T13:33:49Z</time>
      </trkpt>
      <trkpt lat="43.851" lon="1.80842">
        <ele>115.976196</ele>
        <time>2011-08-27T13:34:03Z</time>
      </trkpt>
      <trkpt lat="43.85073" lon="1.80851">
        <ele>114.53418</ele>
        <time>2011-08-27T13:34:09Z</time>
      </trkpt>
      <trkpt lat="43.85073" lon="1.80859">
        <ele>115.014893</ele>
        <time>2011-08-27T13:34:10Z</time>
      </trkpt>
      <trkpt lat="43.85077" lon="1.80894">
        <ele>116.456787</ele>
        <time>2011-08-27T13:34:14Z</time>
      </trkpt>
      <trkpt lat="43.8508" lon="1.80922">
        <ele>115.976196</ele>
        <time>2011-08-27T13:34:17Z</time>
      </trkpt>
      <trkpt lat="43.85086" lon="1.81044">
        <ele>115.976196</ele>
        <time>2011-08-27T13:34:29Z</time>
      </trkpt>
      <trkpt lat="43.85099" lon="1.81279">
        <ele>115.976196</ele>
        <time>2011-08-27T13:34:50Z</time>
      </trkpt>
      <trkpt lat="43.85117" lon="1.81495">
        <ele>116.456787</ele>
        <time>2011-08-27T13:35:09Z</time>
      </trkpt>
      <trkpt lat="43.85131" lon="1.81712">
        <ele>116.9375</ele>
        <time>2011-08-27T13:35:28Z</time>
      </trkpt>
      <trkpt lat="43.85145" lon="1.81926">
        <ele>116.9375</ele>
        <time>2011-08-27T13:35:48Z</time>
      </trkpt>
      <trkpt lat="43.85162" lon="1.8219">
        <ele>115.976196</ele>
        <time>2011-08-27T13:36:12Z</time>
      </trkpt>
      <trkpt lat="43.85166" lon="1.82336">
        <ele>116.9375</ele>
        <time>2011-08-27T13:36:25Z</time>
      </trkpt>
      <trkpt lat="43.85153" lon="1.82376">
        <ele>116.9375</ele>
        <time>2011-08-27T13:36:29Z</time>
      </trkpt>
      <trkpt lat="43.85125" lon="1.82437">
        <ele>118.379395</ele>
        <time>2011-08-27T13:36:35Z</time>
      </trkpt>
      <trkpt lat="43.85064" lon="1.82566">
        <ele>117.418213</ele>
        <time>2011-08-27T13:36:49Z</time>
      </trkpt>
      <trkpt lat="43.84996" lon="1.82684">
        <ele>115.976196</ele>
        <time>2011-08-27T13:37:02Z</time>
      </trkpt>
      <trkpt lat="43.84962" lon="1.8273">
        <ele>118.379395</ele>
        <time>2011-08-27T13:37:08Z</time>
      </trkpt>
      <trkpt lat="43.84921" lon="1.82763">
        <ele>119.34082</ele>
        <time>2011-08-27T13:37:15Z</time>
      </trkpt>
      <trkpt lat="43.84843" lon="1.82772">
        <ele>121.26355</ele>
        <time>2011-08-27T13:37:27Z</time>
      </trkpt>
      <trkpt lat="43.84824" lon="1.82765">
        <ele>121.744141</ele>
        <time>2011-08-27T13:37:30Z</time>
      </trkpt>
      <trkpt lat="43.84794" lon="1.82748">
        <ele>121.744141</ele>
        <time>2011-08-27T13:37:35Z</time>
      </trkpt>
      <trkpt lat="43.8477" lon="1.8275">
        <ele>122.224731</ele>
        <time>2011-08-27T13:37:39Z</time>
      </trkpt>
      <trkpt lat="43.84736" lon="1.82819">
        <ele>124.147339</ele>
        <time>2011-08-27T13:37:48Z</time>
      </trkpt>
      <trkpt lat="43.84731" lon="1.82839">
        <ele>124.628052</ele>
        <time>2011-08-27T13:37:50Z</time>
      </trkpt>
      <trkpt lat="43.84723" lon="1.8287">
        <ele>125.589355</ele>
        <time>2011-08-27T13:37:54Z</time>
      </trkpt>
      <trkpt lat="43.84708" lon="1.82912">
        <ele>127.031372</ele>
        <time>2011-08-27T13:37:59Z</time>
      </trkpt>
      <trkpt lat="43.84685" lon="1.82948">
        <ele>127.992554</ele>
        <time>2011-08-27T13:38:04Z</time>
      </trkpt>
      <trkpt lat="43.84632" lon="1.8303">
        <ele>129.915283</ele>
        <time>2011-08-27T13:38:17Z</time>
      </trkpt>
      <trkpt lat="43.84613" lon="1.83072">
        <ele>131.3573</ele>
        <time>2011-08-27T13:38:23Z</time>
      </trkpt>
      <trkpt lat="43.84562" lon="1.83131">
        <ele>135.202515</ele>
        <time>2011-08-27T13:38:34Z</time>
      </trkpt>
      <trkpt lat="43.84485" lon="1.83202">
        <ele>138.567261</ele>
        <time>2011-08-27T13:38:50Z</time>
      </trkpt>
      <trkpt lat="43.84393" lon="1.83273">
        <ele>141.45105</ele>
        <time>2011-08-27T13:39:09Z</time>
      </trkpt>
      <trkpt lat="43.84298" lon="1.83283">
        <ele>142.893066</ele>
        <time>2011-08-27T13:39:26Z</time>
      </trkpt>
      <trkpt lat="43.84198" lon="1.83231">
        <ele>143.85437</ele>
        <time>2011-08-27T13:39:42Z</time>
      </trkpt>
      <trkpt lat="43.84055" lon="1.83143">
        <ele>144.335205</ele>
        <time>2011-08-27T13:40:03Z</time>
      </trkpt>
      <trkpt lat="43.83959" lon="1.8312">
        <ele>142.893066</ele>
        <time>2011-08-27T13:40:17Z</time>
      </trkpt>
      <trkpt lat="43.83804" lon="1.83128">
        <ele>141.931763</ele>
        <time>2011-08-27T13:40:38Z</time>
      </trkpt>
      <trkpt lat="43.836" lon="1.83135">
        <ele>143.85437</ele>
        <time>2011-08-27T13:41:06Z</time>
      </trkpt>
      <trkpt lat="43.83537" lon="1.83114">
        <ele>143.373657</ele>
        <time>2011-08-27T13:41:15Z</time>
      </trkpt>
      <trkpt lat="43.83458" lon="1.83036">
        <ele>143.373657</ele>
        <time>2011-08-27T13:41:28Z</time>
      </trkpt>
      <trkpt lat="43.83429" lon="1.83025">
        <ele>141.931763</ele>
        <time>2011-08-27T13:41:32Z</time>
      </trkpt>
      <trkpt lat="43.83405" lon="1.83023">
        <ele>141.931763</ele>
        <time>2011-08-27T13:41:35Z</time>
      </trkpt>
      <trkpt lat="43.83372" lon="1.83033">
        <ele>140.489868</ele>
        <time>2011-08-27T13:41:39Z</time>
      </trkpt>
      <trkpt lat="43.83365" lon="1.83039">
        <ele>140.009155</ele>
        <time>2011-08-27T13:41:40Z</time>
      </trkpt>
      <trkpt lat="43.83328" lon="1.8307">
        <ele>140.009155</ele>
        <time>2011-08-27T13:41:45Z</time>
      </trkpt>
      <trkpt lat="43.83227" lon="1.83152">
        <ele>141.45105</ele>
        <time>2011-08-27T13:42:00Z</time>
      </trkpt>
      <trkpt lat="43.8319" lon="1.83176">
        <ele>144.815796</ele>
        <time>2011-08-27T13:42:06Z</time>
      </trkpt>
      <trkpt lat="43.83154" lon="1.83193">
        <ele>148.18042</ele>
        <time>2011-08-27T13:42:12Z</time>
      </trkpt>
      <trkpt lat="43.83149" lon="1.83195">
        <ele>148.18042</ele>
        <time>2011-08-27T13:42:13Z</time>
      </trkpt>
      <trkpt lat="43.83115" lon="1.83209">
        <ele>151.064209</ele>
        <time>2011-08-27T13:42:19Z</time>
      </trkpt>
      <trkpt lat="43.83069" lon="1.8323">
        <ele>154.428955</ele>
        <time>2011-08-27T13:42:28Z</time>
      </trkpt>
      <trkpt lat="43.83026" lon="1.83249">
        <ele>157.793579</ele>
        <time>2011-08-27T13:42:36Z</time>
      </trkpt>
      <trkpt lat="43.83006" lon="1.83258">
        <ele>159.235474</ele>
        <time>2011-08-27T13:42:40Z</time>
      </trkpt>
      <trkpt lat="43.82956" lon="1.8328">
        <ele>162.600098</ele>
        <time>2011-08-27T13:42:50Z</time>
      </trkpt>
      <trkpt lat="43.82951" lon="1.83282">
        <ele>163.080811</ele>
        <time>2011-08-27T13:42:51Z</time>
      </trkpt>
      <trkpt lat="43.82875" lon="1.83319">
        <ele>165.484131</ele>
        <time>2011-08-27T13:43:06Z</time>
      </trkpt>
      <trkpt lat="43.82739" lon="1.83382">
        <ele>168.368042</ele>
        <time>2011-08-27T13:43:30Z</time>
      </trkpt>
      <trkpt lat="43.82629" lon="1.83468">
        <ele>170.771362</ele>
        <time>2011-08-27T13:43:52Z</time>
      </trkpt>
      <trkpt lat="43.82496" lon="1.83582">
        <ele>171.252075</ele>
        <time>2011-08-27T13:44:15Z</time>
      </trkpt>
      <trkpt lat="43.82378" lon="1.83684">
        <ele>174.616577</ele>
        <time>2011-08-27T13:44:34Z</time>
      </trkpt>
      <trkpt lat="43.82329" lon="1.83741">
        <ele>175.09729</ele>
        <time>2011-08-27T13:44:43Z</time>
      </trkpt>
      <trkpt lat="43.82298" lon="1.83783">
        <ele>177.02002</ele>
        <time>2011-08-27T13:44:49Z</time>
      </trkpt>
      <trkpt lat="43.82228" lon="1.83898">
        <ele>178.942627</ele>
        <time>2011-08-27T13:45:04Z</time>
      </trkpt>
      <trkpt lat="43.82224" lon="1.83907">
        <ele>177.981201</ele>
        <time>2011-08-27T13:45:05Z</time>
      </trkpt>
      <trkpt lat="43.82165" lon="1.84016">
        <ele>178.942627</ele>
        <time>2011-08-27T13:45:18Z</time>
      </trkpt>
      <trkpt lat="43.82044" lon="1.84239">
        <ele>179.423218</ele>
        <time>2011-08-27T13:45:45Z</time>
      </trkpt>
      <trkpt lat="43.81964" lon="1.84374">
        <ele>179.903809</ele>
        <time>2011-08-27T13:46:01Z</time>
      </trkpt>
      <trkpt lat="43.81872" lon="1.84496">
        <ele>179.903809</ele>
        <time>2011-08-27T13:46:17Z</time>
      </trkpt>
      <trkpt lat="43.81687" lon="1.84725">
        <ele>181.826416</ele>
        <time>2011-08-27T13:46:48Z</time>
      </trkpt>
      <trkpt lat="43.81542" lon="1.84904">
        <ele>184.229858</ele>
        <time>2011-08-27T13:47:11Z</time>
      </trkpt>
      <trkpt lat="43.81432" lon="1.85039">
        <ele>185.191162</ele>
        <time>2011-08-27T13:47:31Z</time>
      </trkpt>
      <trkpt lat="43.81427" lon="1.85046">
        <ele>184.710571</ele>
        <time>2011-08-27T13:47:32Z</time>
      </trkpt>
      <trkpt lat="43.81409" lon="1.85072">
        <ele>184.229858</ele>
        <time>2011-08-27T13:47:36Z</time>
      </trkpt>
      <trkpt lat="43.81413" lon="1.85103">
        <ele>184.710571</ele>
        <time>2011-08-27T13:47:41Z</time>
      </trkpt>
      <trkpt lat="43.81483" lon="1.85185">
        <ele>182.307129</ele>
        <time>2011-08-27T13:47:52Z</time>
      </trkpt>
      <trkpt lat="43.81535" lon="1.8524">
        <ele>179.423218</ele>
        <time>2011-08-27T13:47:59Z</time>
      </trkpt>
      <trkpt lat="43.81601" lon="1.85309">
        <ele>178.942627</ele>
        <time>2011-08-27T13:48:08Z</time>
      </trkpt>
      <trkpt lat="43.81648" lon="1.85359">
        <ele>179.423218</ele>
        <time>2011-08-27T13:48:15Z</time>
      </trkpt>
      <trkpt lat="43.81769" lon="1.8546">
        <ele>182.307129</ele>
        <time>2011-08-27T13:48:32Z</time>
      </trkpt>
      <trkpt lat="43.81935" lon="1.85542">
        <ele>183.268433</ele>
        <time>2011-08-27T13:48:53Z</time>
      </trkpt>
      <trkpt lat="43.82068" lon="1.85625">
        <ele>183.268433</ele>
        <time>2011-08-27T13:49:11Z</time>
      </trkpt>
      <trkpt lat="43.82193" lon="1.85739">
        <ele>180.865234</ele>
        <time>2011-08-27T13:49:29Z</time>
      </trkpt>
      <trkpt lat="43.82208" lon="1.85751">
        <ele>180.384521</ele>
        <time>2011-08-27T13:49:31Z</time>
      </trkpt>
      <trkpt lat="43.82316" lon="1.85846">
        <ele>181.826416</ele>
        <time>2011-08-27T13:49:47Z</time>
      </trkpt>
      <trkpt lat="43.82329" lon="1.85859">
        <ele>182.787842</ele>
        <time>2011-08-27T13:49:49Z</time>
      </trkpt>
      <trkpt lat="43.82363" lon="1.85888">
        <ele>183.268433</ele>
        <time>2011-08-27T13:49:54Z</time>
      </trkpt>
      <trkpt lat="43.82486" lon="1.85999">
        <ele>185.671753</ele>
        <time>2011-08-27T13:50:13Z</time>
      </trkpt>
      <trkpt lat="43.82513" lon="1.86022">
        <ele>185.191162</ele>
        <time>2011-08-27T13:50:18Z</time>
      </trkpt>
      <trkpt lat="43.82523" lon="1.86047">
        <ele>183.749023</ele>
        <time>2011-08-27T13:50:22Z</time>
      </trkpt>
      <trkpt lat="43.82551" lon="1.86106">
        <ele>185.191162</ele>
        <time>2011-08-27T13:50:30Z</time>
      </trkpt>
      <trkpt lat="43.82566" lon="1.8613">
        <ele>184.229858</ele>
        <time>2011-08-27T13:50:34Z</time>
      </trkpt>
      <trkpt lat="43.82568" lon="1.8617">
        <ele>184.229858</ele>
        <time>2011-08-27T13:50:40Z</time>
      </trkpt>
    </trkseg>
  </trk>
</gpx>